     2              OBSERVATION DATA    GPS                 RINEX VERSION / TYPE
teqc 2000Feb29 Duncan Agnew 20030513 23:02:31UTC            PGM / RUN BY / DATE
                                                            COMMENT
L2: 1 -> 1; 150 -> 5; 250 -> 9                              COMMENT
L2: 1 -> 1; 150 -> 5; 250 -> 9                              COMMENT
L2: 1 -> 1; 150 -> 5; 250 -> 9                              COMMENT
L2: 1 -> 1; 150 -> 5; 250 -> 9                              COMMENT
L2: 1 -> 1; 150 -> 5; 250 -> 9                              COMMENT
Original Marker Name: I016                                  COMMENT
Campaign Name: Imperial Valley 2003                         COMMENT
4-Character Station Name: I016                              COMMENT
6-Character Antenna Code: DMRCHT                            COMMENT
Vertical Measurement Point: BCR                             COMMENT
Vertical Offset to Rinex Ref. Point: 0.0348                 COMMENT
Radial Measurement Point: ECF                               COMMENT
Radial Offset to Rinex Ref. Point: 0.1897                   COMMENT
Antenna Height from Field Measurement: 0.8540 m             COMMENT
Additional Antenna Identification Info.:                    COMMENT
Turborogue and Ashtech Choke Ring                           COMMENT
Original XYZ: -2302257.5151 -4847148.7888 3435911.1319      COMMENT
New XYZ position is based on association with SCEC monument COMMENT
E1C8W0V7+0021. Position of that monument is believed to be  COMMENT
valid to within 1 m horizontally; vertical accuracy         COMMENT
should be no worse than 3-times this value.                 COMMENT
                                                            COMMENT
Revised Rinex header created by UCSD GPS archive for        COMMENT
GSAC on 11-Jul-2003 (2003:192) 16:00:33 GMT                 COMMENT
For assistance contact dagnew@ucsd.edu                      COMMENT
or anderson@python.ucsd.edu                                 COMMENT
                                                            COMMENT
CO OF IMP GPS 0004 1995                                     MARKER NAME
SJB SCRIPPS INSTITUTION OF OCEANOGRAPHY                     OBSERVER / AGENCY
312 ASHTECH Z-XII3 CC00                                     REC # / TYPE / VERS
636 DORNE-MARGOL. TYPE T                                    ANT # / TYPE
 -2311924.6362 -4843050.2012  3435164.4671                  APPROX POSITION XYZ
        0.7979        0.0000        0.0000                  ANTENNA: DELTA H/E/N
     1     1     0                                          WAVELENGTH FACT L1/2
     7    C1    L1    L2    P1    P2    S1    S2            # / TYPES OF OBSERV
     0                                                      INTERVAL
  2003     5     5    16    25   30.000000                  TIME OF FIRST OBS
  2003     5     5    22    19   30.000000                  TIME OF LAST OBS
                                                            END OF HEADER
 03  5  5 16 25 30.0000000  0  4G24G 5G30G10
  22014089.356      -79328.33759    -55560.98647  22014089.573    22014097.788
       235.000         189.000
                   -226084.61759   -166124.60043
       242.000          74.000
  20897541.771     -405214.76159   -282393.72047  20897542.093    20897548.145
       244.000         207.000
  21085846.106     -444131.59459   -316225.11147  21085845.303    21085852.633
       239.000         198.000
 03  5  5 16 26  0.0000000  0  7G24G17G 9G 5G30G10G 6
  22008190.025     -110332.14849    -79719.83947  22008190.197    22008198.460
       237.000         191.000
                   -564584.64759   -416931.12944                  24295753.986
       201.000         122.000
  25077688.419      -55865.07059    -41001.86545  25077685.280    25077699.107
       214.000         137.000
                   -303960.73249    -36973.17647                  20436683.842
       245.000         191.000
  20869901.501     -550465.16649   -395575.81247  20869901.828    20869908.147
       243.000         208.000
  21057228.015     -594520.28849   -433411.07247  21057227.445    21057234.797
       240.000         199.000
  23086096.933     -521099.32259   -384379.36946  23086097.667    23086105.201
       220.000         168.000
 03  5  5 16 26 30.0000000  0  7G24G17G 9G 5G30G10G 6
  22009698.660     -102405.33349    -73543.13747  22009698.663    22009706.950
       237.000         191.000
  24267784.796     -711508.61749   -531417.13345  24267785.102    24267796.836
       201.000         135.000
  25081963.313      -33398.61449    -23495.61545  25081961.789    25081974.970
       212.000         137.000
  20429341.642     -342510.74049    -67012.14847  20429341.341    20429348.302
       246.000         209.000
  20849739.472     -656417.19449   -478135.79847  20849739.915    20849745.835
       243.000         208.000
  21036096.674     -705566.37549   -519940.44447  21036095.914    21036103.580
       240.000         200.000
  23060846.480     -653790.79349   -487775.26646  23060847.318    23060854.563
       222.000         167.000
 03  5  5 16 27  0.0000000  0  6G24G17G 5G30G10G 6
  22023507.872      -29838.00249    -16997.20247  22023507.463    22023515.526
       236.000         191.000
  24252133.095     -793759.57948   -595508.62545  24252131.829    24252144.142
       193.000         136.000
  20434382.013     -316023.80149    -46372.98047  20434381.542    20434388.411
       246.000         212.000
  20841948.872     -697357.25049   -510037.10447  20841949.419    20841955.472
       243.000         209.000
  21027345.114     -751556.53049   -555776.88447  21027344.672    21027351.939
       240.000         201.000
  23047873.043     -721967.80849   -540900.13546  23047873.139    23047881.364
       222.000         167.000
 03  5  5 16 27 30.0000000  0  6G24G17G 5G30G10G 6
  22037344.567       42874.19049     39661.60347  22037344.504    22037352.318
       236.000         190.000
  24236515.393     -875830.68558   -659459.96445  24236514.770    24236526.489
       193.000         135.000
  20439525.716     -288993.69149    -25310.56947  20439525.381    20439532.312
       245.000         212.000
  20834257.247     -737777.28349   -541533.20747  20834257.494    20834263.918
       243.000         209.000
  21018700.884     -796982.32249   -591173.56047  21018700.127    21018707.900
       240.000         201.000
  23034903.518     -790123.40549   -594008.34246  23034903.638    23034912.230
       220.000         167.000
 03  5  5 16 28  0.0000000  0  6G24G17G 5G30G10G 6
  22051208.218      115728.17949     96430.90047  22051207.657    22051216.475
       236.000         190.000
  24220932.045     -957721.78649   -723271.07145  24220930.898    24220942.851
       206.000         144.000
  20444772.473     -261422.05749     -3826.19047  20444772.169    20444778.841
       244.000         212.000
  20826664.670     -777676.57349   -572623.54347  20826665.130    20826671.171
       244.000         209.000
  21010164.275     -841842.67449   -626129.64247  21010163.447    21010171.140
       240.000         201.000
  23021937.993     -858258.16849   -647100.31846  23021937.914    23021946.363
       222.000         168.000
 03  5  5 16 28 30.0000000  0  6G24G17G 5G30G10G 6
  22065098.203      188720.31149    153307.83147  22065098.270    22065105.945
       235.000         189.000
  24205382.657    -1039434.05249   -786942.80345  24205382.612    24205393.508
       206.000         146.000
  20450121.765     -233311.55049     18078.09247  20450121.336    20450128.186
       244.000         212.000
  20819171.133     -817055.57849   -603308.45947  20819171.547    20819177.792
       244.000         209.000
  21001735.229     -886137.68449   -660645.19247  21001734.512    21001741.819
       241.000         201.000
  23008976.053     -926373.72949   -700177.33246  23008976.117    23008984.273
       221.000         168.000
 03  5  5 16 29  0.0000000  0  6G24G17G 5G30G10G 6
  22079014.286      261849.79649    210291.79047  22079014.426    22079022.114
       235.000         189.000
  24189867.618    -1120966.00549   -850474.05045  24189866.824    24189877.629
       207.000         146.000
  20455573.710     -204661.52249     40402.77647  20455573.451    20455580.320
       244.000         212.000
  20811777.174     -855911.21549   -633585.56047  20811777.556    20811783.747
       244.000         209.000
  20993414.333     -929864.52649   -694718.01847  20993413.772    20993421.319
       240.000         202.000
  22996018.143     -994468.24049   -753237.94946  22996018.188    22996025.994
       221.000         169.000
 03  5  5 16 29 30.0000000  0  6G24G17G 5G30G10G 6
  22092956.216      335114.84449    267381.37947  22092956.035    22092964.567
       234.000         188.000
  24174387.159    -1202316.56149   -913863.95245  24174386.530    24174397.779
       208.000         147.000
  20461128.354     -175471.98949     63147.85247  20461127.946    20461134.826
       244.000         212.000
  20804483.253     -894241.17349   -663453.04047  20804483.636    20804489.782
       246.000         209.000
  20985202.030     -973020.48249   -728346.00247  20985201.377    20985208.959
       241.000         202.000
  22983064.431    -1062540.71049   -806281.37946  22983064.725    22983072.187
       222.000         169.000
 03  5  5 16 30  0.0000000  0  6G24G17G 5G30G10G 6
  22106923.754      408514.74949    324576.05146  22106923.635    22106931.825
       234.000         187.000
  24158941.500    -1283483.87849   -977111.07045  24158940.593    24158950.943
       209.000         148.000
  20466785.739     -145742.65549     86313.54947  20466785.269    20466792.187
       244.000         212.000
  20797289.874     -932042.83349   -692908.86247  20797290.176    20797296.346
       246.000         210.000
  20977098.912    -1015602.79549   -761526.99747  20977098.137    20977105.429
       240.000         202.000
  22970115.130    -1130589.62249   -859306.46546  22970115.280    22970123.784
       222.000         170.000
 03  5  5 16 30 30.0000000  0  6G24G17G 5G30G10G 6
  22120916.651      482047.51049    381874.25546  22120916.598    22120924.991
       233.000         187.000
  24143530.839    -1364466.92449  -1040214.60245  24143530.392    24143540.344
       209.000         148.000
  20472545.606     -115474.44649    109899.14847  20472545.242    20472552.106
       244.000         212.000
  20790197.228     -969314.83949   -721951.96447  20790197.686    20790203.758
       246.000         210.000
  20969105.200    -1057609.88649   -794259.76447  20969104.501    20969112.156
       241.000         202.000
  22957170.409    -1198614.69249   -912312.96246  22957170.691    22957178.840
       222.000         170.000
 03  5  5 16 31  0.0000000  0  6G24G17G 5G30G10G 6
  22134934.245      555710.40349    439273.86446  22134934.114    22134942.078
       233.000         186.000
  24128155.186    -1445266.41849  -1103175.11045  24128154.067    24128164.976
       209.000         149.000
  20478407.733      -84668.95649    133903.40847  20478407.354    20478414.125
       244.000         212.000
  20783205.548    -1006056.47049   -750581.79347  20783205.806    20783212.156
       246.000         210.000
  20961221.174    -1099040.82549   -826543.57747  20961220.289    20961227.885
       241.000         202.000
  22944230.197    -1266616.18749   -965301.07946  22944230.810    22944238.827
       223.000         171.000
 03  5  5 16 31 30.0000000  0  6G24G17G 5G30G10G 6
  22148976.446      629502.50249    496774.36746  22148975.973    22148984.214
       233.000         185.000
  24112814.726    -1525880.66359  -1165991.21145  24112814.826    24112824.331
       210.000         149.000
  20484372.092      -53326.24359    158326.38747  20484371.695    20484378.255
       244.000         212.000
  20776315.369    -1042264.81049   -778795.84947  20776315.556    20776321.568
       246.000         210.000
  20953447.377    -1139892.50349   -858375.80647  20953446.341    20953453.760
       241.000         202.000
  22931294.673    -1334592.94859  -1018269.82646  22931294.765    22931302.744
       222.000         170.000
 03  5  5 16 32  0.0000000  0  6G24G17G 5G30G10G 6
  22163042.719      703421.43349    554373.48046  22163042.745    22163050.762
       233.000         185.000
  24097509.643    -1606309.67649  -1228663.10245  24097508.892    24097520.052
       211.000         152.000
  20490438.693      -21446.08649    183168.16047  20490438.085    20490444.962
       244.000         212.000
  20769526.755    -1077938.96049   -806593.86747  20769526.966    20769533.216
       246.000         210.000
  20945783.922    -1180164.03449   -889756.19147  20945782.926    20945790.724
       241.000         202.000
  22918363.922    -1402544.57349  -1071219.21346  22918363.427    22918372.214
       222.000         171.000
 03  5  5 16 32 30.0000000  0  6G24G17G 5G30G10G 6
  22177132.665      777464.58349    612069.38746  22177132.481    22177140.549
       232.000         185.000
  24082239.922    -1686552.30749  -1291189.71345  24082239.622    24082249.892
       210.000         153.000
  20496607.104       10968.92849    208426.59347  20496606.704    20496613.642
       243.000         212.000
  20762840.073    -1113077.49949   -833974.53447  20762840.335    20762846.407
       245.000         210.000
  20938231.144    -1219853.90449   -920683.34047  20938230.465    20938237.574
       240.000         202.000
  22905438.045    -1470470.60549  -1124148.54046  22905438.085    22905446.244
       222.000         171.000
 03  5  5 16 33  0.0000000  0  6G24G17G 5G30G10G 6
  22191245.921      851630.14849    669860.68146  22191245.960    22191254.558
       233.000         184.000
  24067005.693    -1766608.15049  -1353570.77045  24067004.859    24067015.783
       213.000         154.000
  20502877.210       43918.54849    234101.60147  20502876.834    20502883.712
       244.000         212.000
  20756255.666    -1147678.91149   -860936.65047  20756255.993    20756262.121
       246.000         210.000
  20930789.479    -1258960.10249   -951155.67747  20930788.597    20930796.350
       243.000         202.000
  22892517.088    -1538370.87349  -1177057.78646  22892517.000    22892524.687
       223.000         172.000
 03  5  5 16 33 30.0000000  0  6G24G17G 5G30G10G 6
  22205382.320      925917.28749    727746.70846  22205381.894    22205390.262
       233.000         184.000
  24051807.210    -1846476.38049  -1415805.63545  24051806.431    24051817.462
       213.000         155.000
  20509249.064       77402.77049    260193.18147  20509248.563    20509255.392
       244.000         212.000
  20749773.838    -1181741.07649   -887478.57847  20749774.150    20749780.263
       246.000         210.000
  20923459.214    -1297480.74949   -981171.74747  20923458.581    20923465.724
       242.000         203.000
  22879601.235    -1606243.98649  -1229945.88246  22879601.252    22879609.148
       223.000         172.000
 03  5  5 16 34  0.0000000  0  6G24G17G 5G30G10G 6
  22219541.491     1000323.70649    785725.67846  22219541.242    22219549.472
       233.000         185.000
  24036644.416    -1926156.73649  -1477894.10345  24036644.038    24036654.540
       213.000         155.000
  20515722.425      111420.46949    286700.46047  20515722.191    20515728.860
       243.000         212.000
  20743394.886    -1215262.60249   -913599.22747  20743395.286    20743401.245
       246.000         210.000
  20916240.680    -1335414.44249  -1010730.44647  20916240.118    20916247.636
       243.000         203.000
  22866690.631    -1674089.68149  -1282812.61546  22866690.899    22866698.731
       224.000         172.000
 03  5  5 16 34 30.0000000  0  6G24G17G 5G30G10G 6
  22233722.777     1074846.39449    843795.24546  22233722.744    22233730.884
       234.000         184.000
  24021517.480    -2005649.16749  -1539836.15545  24021516.840    24021527.583
       214.000         155.000
  20522296.927      145969.48749    313621.75047  20522296.490    20522303.367
       244.000         211.000
  20737118.879    -1248243.41549   -939298.54547  20737119.281    20737125.239
       246.000         211.000
  20909133.901    -1372760.86149  -1039831.53747  20909132.998    20909140.697
       241.000         203.000
  22853785.111    -1741908.68949  -1335658.55346  22853785.164    22853792.641
       223.000         173.000
 03  5  5 16 35  0.0000000  0  6G24G17G 5G30G10G 6
  22247926.086     1149484.65649    901954.87146  22247926.311    22247934.314
       234.000         185.000
  24006426.618    -2084952.08049  -1601630.52045  24006425.917    24006436.375
       214.000         155.000
  20528972.532      181049.98749    340957.18447  20528972.178    20528979.136
       244.000         211.000
  20730946.288    -1280680.59549   -964574.25147  20730946.674    20730952.786
       246.000         211.000
  20902139.509    -1409516.76749  -1068472.48147  20902138.720    20902146.387
       242.000         203.000
  22840884.988    -1809699.19449  -1388482.27146  22840884.225    22840892.625
       224.000         173.000
 03  5  5 16 35 30.0000000  0  6G24G17G 5G30G10G 6
  22262151.026     1224236.69849    960203.15446  22262151.343    22262159.085
       234.000         185.000
  23991371.932    -2164064.57249  -1663276.51945  23991371.449    23991381.458
       215.000         155.000
  20535749.217      216661.58549    368706.46147  20535748.837    20535755.665
       243.000         211.000
  20724877.460    -1312572.54849   -989425.10747  20724877.796    20724883.939
       245.000         211.000
  20895257.748    -1445680.60749  -1096652.08147  20895256.925    20895264.365
       242.000         203.000
  22827990.484    -1877460.31649  -1441283.10446  22827990.211    22827999.143
       224.000         173.000
 03  5  5 16 36  0.0000000  0  6G24G17G 5G30G10G 6
  22276397.350     1299101.34949   1018539.18046  22276397.751    22276405.176
       234.000         185.000
  23976353.719    -2242985.55749  -1724773.28945  23976353.136    23976363.176
       214.000         155.000
  20542626.901      252803.85449    396869.24447  20542626.466    20542633.286
       243.000         211.000
  20718912.805    -1343917.13249  -1013849.44347  20718913.395    20718919.269
       245.000         211.000
  20888489.128    -1481250.05949  -1124368.52147  20888488.241    20888495.682
       241.000         203.000
  22815101.750    -1945190.77049  -1494060.04646  22815101.834    22815109.721
       224.000         174.000
 03  5  5 16 36 30.0000000  0  6G24G17G 5G30G10G 6
  22290664.579     1374075.71849   1076960.70446  22290664.664    22290672.844
       233.000         184.000
  23961371.757    -2321715.80149  -1786121.42745  23961371.458    23961382.048
       214.000         154.000
  20549605.131      289474.61349    425443.84047  20549604.675    20549611.624
       243.000         211.000
  20713052.336    -1374714.24249  -1037847.17647  20713052.632    20713058.788
       245.000         211.000
  20881833.615    -1516225.04649  -1151621.73647  20881832.878    20881840.246
       242.000         203.000
  22802218.784    -2012891.22349  -1546813.59046  22802218.343    22802226.524
       224.000         174.000
 03  5  5 16 37  0.0000000  0  6G24G17G 5G30G10G 6
  22304952.442     1449158.52349   1135466.72646  22304952.743    22304961.200
       233.000         184.000
  23946426.441    -2400253.69349  -1847319.69145  23946425.095    23946435.386
       216.000         155.000
  20556683.920      326673.67249    454430.09747  20556683.644    20556690.410
       243.000         211.000
  20707296.480    -1404961.54649  -1061416.49047  20707296.737    20707302.883
       245.000         211.000
  20875291.636    -1550603.28849  -1178409.96347  20875290.957    20875298.378
       241.000         203.000
  22789341.775    -2080560.31649  -1599542.71546  22789341.597    22789349.716
       225.000         174.000
 03  5  5 16 37 30.0000000  0  6G24G17G 5G30G10G 6
  22319260.550     1524347.77549   1194055.69046  22319260.817    22319269.105
       232.000         184.000
  23931517.796    -2478599.01449  -1908367.90245  23931517.585    23931527.560
       216.000         155.000
  20563863.005      364399.82249    483827.07547  20563862.654    20563869.491
       243.000         211.000
  20701645.417    -1434658.10749  -1084556.65747  20701645.889    20701651.747
       245.000         211.000
  20868863.513    -1584383.26849  -1204732.01147  20868862.747    20868870.560
       241.000         203.000
  22776470.827    -2148197.65849  -1652247.08846  22776470.967    22776478.264
       225.000         175.000
 03  5  5 16 38  0.0000000  0  7G24G21G17G 5G30G10G 6
  22333588.570     1599641.59749   1252726.13346  22333588.798    22333597.055
       232.000         183.000
                  -1257843.78859   -955764.03743                  24772162.369
       204.000          90.000
  23916645.827    -2556751.36049  -1969265.73845  23916645.181    23916655.515
       219.000         155.000
  20571142.200      402652.01149    513633.94547  20571141.915    20571148.790
       243.000         211.000
  20696099.429    -1463802.46249  -1107266.53747  20696099.668    20696105.918
       245.000         211.000
  20862549.490    -1617563.73749  -1230586.90847  20862548.698    20862555.874
       241.000         203.000
  22763605.969    -2215802.67949  -1704926.27046  22763605.764    22763613.085
       224.000         175.000
 03  5  5 16 38 30.0000000  0  7G24G21G17G 5G30G10G 6
  22347936.091     1675037.97649   1311476.49746  22347936.296    22347944.564
       231.000         183.000
  24755668.037    -1344474.37549  -1023268.22145  24755668.038    24755676.830
       204.000         134.000
  23901810.700    -2634710.51749  -2030013.05045  23901809.741    23901819.242
       216.000         155.000
  20578521.207      441428.81149    543849.60547  20578520.796    20578527.720
       243.000         211.000
  20690658.736    -1492393.57949  -1129545.32647  20690659.125    20690665.304
       245.000         211.000
  20856349.709    -1650143.79949  -1255973.95347  20856348.930    20856356.240
       240.000         203.000
  22750747.333    -2283375.08949  -1757580.05346  22750747.066    22750754.723
       225.000         175.000
 03  5  5 16 39  0.0000000  0  7G24G21G17G 5G30G10G 6
  22362303.024     1750536.41549   1370306.37746  22362302.770    22362311.489
       231.000         182.000
  24739211.171    -1430955.04949  -1090655.59345  24739210.781    24739219.320
       204.000         138.000
  23887012.662    -2712474.52049  -2090608.31045  23887012.435    23887021.887
       218.000         156.000
  20586000.153      480730.66149    574474.39047  20585999.899    20586006.808
       243.000         211.000
  20685323.787    -1520428.96549  -1151391.08247  20685324.168    20685330.115
       245.000         211.000
  20850264.744    -1682120.65949  -1280890.97247  20850263.893    20850271.768
       240.000         203.000
  22737895.308    -2350912.93249  -1810206.89246  22737895.233    22737902.989
       225.000         176.000
 03  5  5 16 39 30.0000000  0  7G24G21G17G 5G30G10G 6
  22376688.957     1826134.79749   1429214.14046  22376688.791    22376697.225
       230.000         182.000
  24722782.770    -1517285.62349  -1157925.99145  24722782.094    24722792.570
       203.000         139.000
  23872251.857    -2790042.90149  -2151051.11045  23872251.404    23872260.706
       216.000         155.000
  20593578.753      520556.35249    605507.36647  20593578.472    20593585.098
       243.000         211.000
  20680094.845    -1547907.46749  -1172802.89947  20680095.188    20680101.263
       245.000         211.000
  20844294.735    -1713493.23749  -1305337.12547  20844293.796    20844301.517
       240.000         203.000
  22725049.981    -2418415.65949  -1862806.37346  22725049.636    22725057.591
       225.000         176.000
 03  5  5 16 40  0.0000000  0  7G24G21G17G 5G30G10G 6
  22391093.302     1901830.01849   1488197.35946  22391093.219    22391102.075
       230.000         181.000
  24706383.101    -1603466.50149  -1225079.75745  24706382.817    24706393.128
       202.000         137.000
  23857528.095    -2867416.64849  -2211342.26145  23857528.177    23857537.586
       216.000         155.000
  20601256.571      560903.25249    636946.48247  20601256.157    20601263.136
       243.000         211.000
  20674971.839    -1574829.10249  -1193780.79147  20674972.185    20674978.072
       245.000         211.000
  20838439.771    -1744261.24749  -1329312.18047  20838439.029    20838446.343
       241.000         203.000
  22712211.156    -2485884.04549  -1915379.09546  22712211.503    22712218.907
       226.000         176.000
 03  5  5 16 40 30.0000000  0  7G24G21G17G 5G30G10G 6
  22405515.850     1977620.78949   1547255.03746  22405515.604    22405524.375
       229.000         181.000
  24690012.125    -1689496.12349  -1292115.64845  24690011.960    24690021.341
       201.000         136.000
  23842841.619    -2944594.30549  -2271480.62145  23842841.494    23842850.876
       217.000         154.000
  20609033.500      601771.06549    668791.49647  20609033.253    20609040.155
       244.000         210.000
  20669955.178    -1601191.71849  -1214323.08847  20669955.488    20669961.464
       245.000         211.000
  20832700.203    -1774422.79949  -1352814.67647  20832699.382    20832706.892
       241.000         203.000
  22699379.120    -2553316.60249  -1967923.89146  22699378.797    22699386.828
       226.000         176.000
 03  5  5 16 41  0.0000000  0  7G24G21G17G 5G30G10G 6
  22419956.322     2053505.58749   1606385.97846  22419956.307    22419964.529
       229.000         180.000
  24673670.034    -1775374.16649  -1359033.43045  24673669.224    24673678.573
       205.000         134.000
  23828192.483    -3021575.61449  -2331465.98445  23828191.716    23828201.342
       217.000         153.000
  20616909.349      643158.55649    701041.46147  20616909.071    20616915.896
       243.000         210.000
  20665045.108    -1626994.39849  -1234429.06847  20665045.607    20665051.591
       245.000         212.000
  20827076.220    -1803977.01349  -1375843.92047  20827075.456    20827083.094
       240.000         203.000
  22686554.071    -2620712.85749  -2020440.41246  22686553.436    22686561.662
       226.000         177.000
 03  5  5 16 41 30.0000000  0  7G24G21G17G 5G30G10G 6
  22434414.367     2129482.83249   1665588.95646  22434414.518    22434423.050
       229.000         180.000
  24657356.910    -1861099.92149  -1425832.56545  24657355.178    24657365.460
       202.000         133.000
  23813580.756    -3098360.31749  -2391298.14545  23813580.221    23813590.201
       215.000         153.000
  20624883.799      685064.46149    733695.38347  20624883.460    20624890.248
       243.000         210.000
  20660241.774    -1652236.08649  -1254097.90947  20660242.212    20660248.335
       245.000         212.000
  20821568.129    -1832922.46749  -1398398.80547  20821567.429    20821574.753
       241.000         203.000
  22673735.968    -2688072.30749  -2072928.24546  22673735.899    22673743.499
       227.000         177.000
 03  5  5 16 42  0.0000000  0  7G24G21G17G 5G30G10G 6
  22448889.727     2205550.91849   1724862.71746  22448889.697    22448898.057
       230.000         180.000
  24641072.941    -1946672.51249  -1492512.32745  24641073.120    24641081.624
       203.000         133.000
  23799006.824    -3174946.92349  -2450975.95645  23799006.531    23799015.381
       216.000         154.000
  20632956.742      727488.03449    766752.68647  20632956.242    20632963.325
       243.000         210.000
  20655545.561    -1676914.98549  -1273328.21347  20655546.083    20655552.082
       245.000         212.000
  20816176.194    -1861257.40249  -1420477.95547  20816175.721    20816182.936
       241.000         203.000
  22660925.092    -2755393.76749  -2125386.48746  22660924.688    22660932.417
       227.000         177.000
 03  5  5 16 42 30.0000000  0  7G24G21G17G 5G30G10G 6
  22463381.602     2281705.85649   1784204.15446  22463381.305    22463389.824
       229.000         179.000
  24624817.900    -2032093.08349  -1559073.67145  24624818.073    24624827.480
       205.000         134.000
  23784470.162    -3251337.51049  -2510501.00645  23784469.504    23784479.219
       215.000         154.000
  20641127.630      770426.03349    800210.84247  20641127.415    20641134.130
       243.000         210.000
  20650956.246    -1701032.00849  -1292120.68847  20650956.650    20650962.574
       245.000         212.000
  20810900.221    -1888982.85249  -1442082.18647  20810899.614    20810906.833
       241.000         203.000
  22648121.241    -2822678.56349  -2177816.15246  22648120.852    22648129.232
       227.000         177.000
 03  5  5 16 43  0.0000000  0  7G24G21G17G 5G30G10G 6
  22477890.124     2357948.41249   1843613.86746  22477889.911    22477898.761
       229.000         179.000
  24608592.306    -2117358.99349  -1625514.52745  24608590.427    24608599.510
       202.000         134.000
  23769971.337    -3327529.32049  -2569871.17845  23769971.211    23769980.122
       215.000         154.000
  20649396.606      813879.55949    834070.70447  20649396.260    20649403.143
       243.000         210.000
  20646474.511    -1724583.79949  -1310472.72247  20646474.843    20646480.887
       245.000         212.000
  20805740.860    -1916095.42349  -1463208.84847  20805740.156    20805747.557
       241.000         203.000
  22635324.902    -2889923.62849  -2230214.85546  22635324.721    22635332.717
       227.000         178.000
 03  5  5 16 43 30.0000000  0  7G24G21G17G 5G30G10G 6
  22492415.108     2434277.43749   1903090.95446  22492415.665    22492423.700
       229.000         179.000
  24592396.329    -2202468.66249  -1691833.57845  24592395.459    24592405.148
       203.000         134.000
  23755510.585    -3403521.08049  -2629085.46445  23755509.613    23755519.962
       215.000         154.000
  20657763.614      857848.15749    868331.90947  20657763.168    20657770.187
       243.000         210.000
  20642100.676    -1747568.33449  -1328382.74047  20642101.021    20642107.134
       245.000         212.000
  20800698.476    -1942593.21449  -1483856.46347  20800697.827    20800705.241
       241.000         204.000
  22622536.404    -2957127.58249  -2282581.52046  22622536.174    22622544.361
       228.000         178.000
 03  5  5 16 44  0.0000000  0  7G24G21G17G 5G30G10G 6
  22506956.112     2510690.47549   1962633.50946  22506956.079    22506964.236
       230.000         179.000
  24576230.107    -2287422.33949  -1758031.13345  24576229.630    24576239.085
       206.000         135.000
  23741087.822    -3479312.95849  -2688144.00145  23741086.538    23741096.641
       214.000         155.000
  20666228.179      902329.64049    902992.77947  20666227.808    20666234.524
       243.000         209.000
  20637834.844    -1769985.50049  -1345850.65547  20637835.154    20637841.316
       245.000         212.000
  20795773.094    -1968476.28649  -1504025.07547  20795772.236    20795780.086
       241.000         204.000
  22609755.746    -3024290.59749  -2334916.29246  22609755.662    22609763.248
       228.000         178.000
 03  5  5 16 44 30.0000000  0  7G24G21G17G 5G30G10G 6
  22521512.729     2587185.56449   2022240.00646  22521512.891    22521521.473
       230.000         179.000
  24560093.683    -2372219.67549  -1824106.84045  24560093.271    24560101.757
       207.000         137.000
  23726703.126    -3554904.73849  -2747046.61245  23726701.656    23726712.895
       215.000         155.000
  20674790.113      947322.68349    938052.26347  20674789.881    20674796.505
       243.000         209.000
  20633677.178    -1791834.25449  -1362875.65047  20633677.512    20633683.549
       245.000         212.000
  20790964.918    -1993743.39449  -1523713.71747  20790964.285    20790971.696
       241.000         204.000
  22596982.963    -3091411.92449  -2387218.57746  22596982.644    22596990.692
       227.000         178.000
 03  5  5 16 45  0.0000000  0  7G24G21G17G 5G30G10G 6
  22536084.805     2663761.81049   2081909.73546  22536085.113    22536093.947
       230.000         179.000
  24543987.117    -2456859.57749  -1890059.88345  24543986.592    24543995.150
       209.000         138.000
  23712356.729    -3630295.25449  -2805792.38145  23712356.107    23712366.944
       216.000         155.000
  20683449.210      992826.44849    973509.70847  20683448.906    20683455.987
       243.000         209.000
  20629627.936    -1813113.20849  -1379456.64647  20629628.276    20629634.313
       245.000         212.000
  20786274.237    -2018393.00749  -1542921.19647  20786273.492    20786281.049
       241.000         204.000
  22584218.348    -3158490.45549  -2439487.51146  22584218.231    22584226.097
       227.000         178.000
 03  5  5 16 45 30.0000000  0  7G24G21G17G 5G30G10G 6
  22550671.865     2740416.86649   2141640.87446  22550672.204    22550680.666
       229.000         179.000
  24527910.560    -2541341.67349  -1955889.96945  24527909.831    24527920.292
       209.000         139.000
  23698048.658    -3705484.87749  -2864381.63545  23698047.553    23698057.125
       217.000         156.000
  20692205.167     1038839.26649   1009363.81347  20692204.825    20692211.730
       243.000         209.000
  20625687.294    -1833821.48549  -1395592.96047  20625687.773    20625693.685
       246.000         212.000
  20781701.236    -2042424.42049  -1561646.95847  20781700.398    20781708.257
       241.000         204.000
  22571461.913    -3225525.74449  -2491722.76346  22571461.912    22571469.744
       227.000         178.000
 03  5  5 16 46  0.0000000  0  7G24G21G17G 5G30G10G 6
  22565273.511     2817148.56049   2201431.73146  22565273.626    22565281.892
       229.000         179.000
  24511864.176    -2625665.81849  -2021596.97745  24511864.220    24511872.884
       210.000         140.000
  23683778.783    -3780473.39549  -2922814.17645  23683777.702    23683787.283
       216.000         156.000
  20701057.717     1085359.50549   1045613.31547  20701057.276    20701064.240
       243.000         209.000
  20621855.317    -1853958.60849  -1411284.22547  20621855.676    20621861.599
       245.000         212.000
  20777245.927    -2065837.15049  -1579890.63947  20777245.212    20777252.745
       241.000         204.000
  22558713.741    -3292517.58649  -2543924.16046  22558713.118    22558721.360
       228.000         179.000
 03  5  5 16 46 30.0000000  0  7G24G21G17G 5G30G10G 6
  22579889.664     2893956.56349   2261282.05446  22579889.438    22579898.364
       229.000         179.000
  24495848.073    -2709830.63549  -2087179.83545  24495847.658    24495856.004
       210.000         140.000
  23669547.317    -3855259.75049  -2981089.19145  23669546.104    23669556.568
       214.000         156.000
  20710006.768     1132386.78649   1082257.90947  20710006.351    20710013.577
       243.000         209.000
  20618132.434    -1873522.55849  -1426528.85847  20618132.944    20618138.844
       245.000         212.000
  20772908.783    -2088629.17349  -1597650.64747  20772908.055    20772915.793
       241.000         204.000
  22545974.215    -3359464.02249  -2596090.17646  22545973.947    22545982.269
       227.000         179.000
 03  5  5 16 47  0.0000000  0  7G24G21G17G 5G30G10G 6
  22594519.851     2970838.62949   2321190.08846  22594519.280    22594528.070
       229.000         179.000
  24479862.305    -2793835.77249  -2152638.26945  24479862.304    24479870.776
       211.000         139.000
  23655354.515    -3929843.14149  -3039206.04145  23655353.360    23655364.391
       215.000         157.000
  20719051.961     1179919.35249   1119296.23847  20719051.779    20719058.493
       243.000         209.000
  20614518.742    -1892512.72749  -1441326.39447  20614519.095    20614525.152
       245.000         212.000
  20768689.844    -2110799.86349  -1614926.50447  20768689.346    20768696.569
       241.000         204.000
  22533243.413    -3426364.67049  -2648220.51346  22533243.080    22533251.046
       227.000         179.000
 03  5  5 16 47 30.0000000  0  7G24G21G17G 5G30G10G 6
  22609163.663     3047792.25049   2381153.87946  22609163.872    22609173.416
       229.000         178.000
  24463906.961    -2877681.27949  -2217972.32745  24463905.940    24463914.801
       210.000         139.000
  23641200.160    -4004224.35849  -3097165.36845  23641199.618    23641209.959
       216.000         157.000
  20728192.808     1227954.75149   1156726.38347  20728192.601    20728199.476
       243.000         209.000
  20611014.245    -1910929.04149  -1455676.77047  20611014.462    20611020.480
       245.000         212.000
  20764589.088    -2132349.36549  -1631718.31747  20764588.245    20764595.640
       241.000         204.000
  22520521.321    -3493219.72549  -2700315.31346  22520521.088    22520529.129
       227.000         179.000
 03  5  5 16 48  0.0000000  0  7G24G21G17G 5G30G10G 6
  22623821.182     3124817.63349   2441173.58646  22623820.605    22623830.304
       229.000         178.000
  24447982.328    -2961364.84649  -2283180.20545  24447981.984    24447991.412
       212.000         139.000
  23627084.595    -4078401.32249  -3154965.52745  23627083.740    23627094.125
       215.000         158.000
  20737429.493     1276493.64649   1194548.85447  20737429.356    20737436.177
       243.000         209.000
  20607619.526    -1928768.55349  -1469577.69247  20607619.852    20607625.967
       245.000         212.000
  20760607.134    -2153274.80649  -1648023.85347  20760606.581    20760614.023
       241.000         205.000
  22507808.424    -3560026.44849  -2752372.46546  22507808.149    22507815.715
       228.000         179.000
 03  5  5 16 48 30.0000000  0  7G24G21G17G 5G30G10G 6
  22638491.916     3201912.49349   2501247.42946  22638491.608    22638500.123
       228.000         178.000
  24432088.506    -3044886.96849  -2348262.26945  24432086.808    24432097.304
       213.000         141.000
  23613007.881    -4152374.53449  -3212606.91145  23613007.375    23613017.392
       216.000         159.000
  20746761.532     1325533.58749   1232761.75647  20746760.966    20746768.314
       243.000         209.000
  20604334.520    -1946031.39849  -1483029.26247  20604334.936    20604340.964
       245.000         212.000
  20756743.867    -2173576.27349  -1663843.16847  20756743.156    20756750.797
       241.000         205.000
  22495104.647    -3626785.03149  -2804392.09846  22495104.533    22495112.270
       228.000         179.000
 03  5  5 16 49  0.0000000  0  7G24G21G17G 5G30G10G 6
  22653175.482     3279074.49049   2561373.58546  22653175.623    22653184.152
       228.000         177.000
  24416225.463    -3128247.48449  -2413218.43245  24416224.400    24416235.029
       214.000         140.000
  23598970.002    -4226143.94749  -3270089.49945  23598969.353    23598979.425
       219.000         160.000
  20756188.601     1375072.69849   1271363.61347  20756188.330    20756195.406
       243.000         209.000
  20601159.357    -1962717.23349  -1496031.21347  20601159.594    20601165.816
       245.000         212.000
  20752999.467    -2193253.42249  -1679176.01047  20752998.808    20753006.229
       241.000         205.000
  22482410.089    -3693495.11249  -2856373.93346  22482409.911    22482417.132
       227.000         179.000
 03  5  5 16 49 30.0000000  0  7G24G21G17G 5G30G10G 6
  22667871.428     3356301.97949   2621550.79046  22667871.509    22667879.999
       227.000         177.000
  24400393.249    -3211445.77949  -2478048.18545  24400393.049    24400402.366
       214.000         141.000
  23584970.960    -4299709.13949  -3327412.94345  23584970.545    23584980.534
       217.000         160.000
  20765710.294     1425109.39749   1310353.20747  20765710.038    20765717.148
       243.000         209.000
  20598094.118    -1978825.08649  -1508582.78547  20598094.576    20598100.618
       245.000         212.000
  20749374.017    -2212305.39849  -1694021.70347  20749373.448    20749380.705
       241.000         205.000
  22469724.986    -3760155.77349  -2908317.26046  22469725.123    22469732.395
       228.000         179.000
 03  5  5 16 50  0.0000000  0  7G24G21G17G 5G30G10G 6
  22682579.764     3433594.62849   2681778.75746  22682579.597    22682588.449
       227.000         176.000
  24384592.267    -3294480.45749  -2542750.45445  24384592.008    24384600.257
       215.000         140.000
  23571011.028    -4373068.90049  -3384576.30345  23571010.589    23571020.553
       217.000         161.000
  20775326.615     1475643.28549   1349730.21747  20775326.181    20775333.294
       243.000         209.000
  20595139.239    -1994353.08049  -1520682.52247  20595139.612    20595145.697
       246.000         212.000
  20745867.809    -2230730.69749  -1708379.07347  20745867.165    20745874.520
       241.000         205.000
  22457049.584    -3826765.14249  -2960220.62346  22457049.388    22457057.329
       227.000         179.000
 03  5  5 16 50 30.0000000  0  7G24G21G17G 5G30G10G 6
  22697299.723     3510948.33649   2742054.30346  22697299.796    22697308.985
       227.000         176.000
  24368822.095    -3377353.15449  -2607326.51145  24368821.816    24368831.379
       214.000         141.000
  23557089.857    -4446225.36949  -3441581.25745  23557089.127    23557098.792
       217.000         162.000
  20785036.825     1526670.52649   1389491.65547  20785036.519    20785043.742
       243.000         208.000
  20592294.423    -2009302.79849  -1532331.65147  20592294.821    20592300.927
       245.000         212.000
  20742480.574    -2248530.65849  -1722249.16347  20742479.870    20742487.101
       241.000         205.000
  22444383.631    -3893324.77949  -3012085.23146  22444383.637    22444391.596
       228.000         180.000
 03  5  5 16 51  0.0000000  0  7G24G21G17G 5G30G10G 6
  22712031.548     3588364.26749   2802378.33846  22712031.628    22712040.782
       227.000         175.000
  24353083.320    -3460060.88049  -2671773.99945  24353081.722    24353090.957
       217.000         142.000
  23543207.819    -4519175.30949  -3498425.26345  23543206.937    23543217.592
       217.000         162.000
  20794841.076     1578192.13349   1429638.31347  20794840.691    20794847.805
       243.000         208.000
  20589560.278    -2023670.88649  -1543527.56047  20589560.684    20589566.641
       245.000         212.000
  20739212.979    -2265702.02049  -1735629.43147  20739212.252    20739219.684
       241.000         205.000
  22431727.829    -3959831.37449  -3063908.51546  22431727.838    22431735.279
       227.000         180.000
 03  5  5 16 51 30.0000000  0  7G24G21G17G 5G30G10G 6
  22726774.661     3665839.54549   2862748.61346  22726774.701    22726783.310
       227.000         175.000
  24337375.869    -3542604.11649  -2736093.33545  24337375.655    24337383.997
       215.000         142.000
  23529365.134    -4591918.81749  -3555108.43946  23529364.950    23529375.170
       218.000         163.000
  20804738.954     1630205.47949   1470168.14747  20804738.609    20804745.869
       242.000         208.000
  20586936.747    -2037457.69749  -1554270.53347  20586937.110    20586943.269
       245.000         212.000
  20736064.910    -2282245.15749  -1748520.17547  20736064.251    20736071.769
       241.000         205.000
  22419082.130    -4026285.00249  -3115690.51946  22419082.202    22419090.120
       228.000         180.000
 03  5  5 16 52  0.0000000  0  7G24G21G17G 5G30G10G 6
  22741528.980     3743373.77149   2923164.82646  22741528.627    22741537.998
       228.000         174.000
  24321700.010    -3624981.03149  -2800283.07445  24321699.028    24321708.024
       215.000         141.000
  23515561.908    -4664455.15449  -3611630.17246  23515561.725    23515571.293
       218.000         163.000
  20814730.307     1682710.30549   1511080.94847  20814730.212    20814737.117
       242.000         208.000
  20584424.211    -2050661.15649  -1564558.94547  20584424.519    20584430.623
       246.000         212.000
  20733036.749    -2298158.22449  -1760919.96047  20733036.048    20733043.503
       241.000         205.000
  22406446.824    -4092683.68749  -3167429.71346  22406447.029    22406454.076
       228.000         180.000
 03  5  5 16 52 30.0000000  0  7G24G21G17G 5G30G10G 6
  22756294.372     3820966.18549   2983626.37646  22756294.395    22756302.968
       227.000         174.000
  24306055.988    -3707190.66549  -2864342.44845  24306055.498    24306063.247
       214.000         141.000
  23501798.315    -4736783.28549  -3667989.65446  23501797.594    23501807.530
       219.000         164.000
  20824815.099     1735705.88649   1552376.15647  20824814.811    20824821.912
       243.000         208.000
  20582022.960    -2063279.89649  -1574391.73247  20582023.242    20582029.442
       246.000         212.000
  20730128.810    -2313439.76649  -1772827.64547  20730128.001    20730135.448
       241.000         205.000
  22393822.310    -4159025.70249  -3219124.74746  22393822.140    22393830.154
       228.000         180.000
 03  5  5 16 53  0.0000000  0  7G24G21G17G 5G30G10G 6
  22771070.326     3898613.76149   3044130.91046  22771071.046    22771078.979
       227.000         174.000
  24290443.608    -3789233.72049  -2928272.02545  24290443.176    24290452.033
       214.000         140.000
  23488074.029    -4808904.70249  -3724188.06646  23488073.365    23488082.688
       218.000         164.000
  20834992.640     1789188.94549   1594051.21247  20834992.165    20834999.576
       242.000         207.000
  20579732.815    -2075314.65949  -1583769.47447  20579733.217    20579739.309
       246.000         212.000
  20727340.776    -2328090.91549  -1784244.10947  20727340.021    20727347.563
       242.000         205.000
  22381208.450    -4225311.76449  -3270776.17746  22381208.042    22381215.527
       228.000         180.000
 03  5  5 16 53 30.0000000  0  7G24G21G17G 5G30G10G 6
  22785856.333     3976314.35549   3104676.75846  22785856.929    22785864.849
       227.000         174.000
  24274862.908    -3871110.49949  -2992072.01745  24274861.343    24274871.425
       213.000         140.000
  23474389.114    -4880819.10949  -3780225.17046  23474388.439    23474397.811
       220.000         164.000
  20845262.482     1843157.17449   1636104.32647  20845262.275    20845269.384
       242.000         207.000
  20577553.770    -2086765.69149  -1592692.35547  20577554.056    20577560.131
       246.000         212.000
  20724672.675    -2342111.99349  -1795169.61147  20724672.018    20724679.412
       242.000         205.000
  22368605.268    -4291541.70449  -3322383.88746  22368605.217    22368612.726
       228.000         181.000
 03  5  5 16 54  0.0000000  0  7G24G21G17G 5G30G10G 6
  22800652.183     4054066.70049   3165262.94046  22800652.587    22800660.694
       226.000         173.000
  24259314.031    -3952820.14049  -3055741.79745  24259313.477    24259321.942
       211.000         139.000
  23460743.670    -4952525.97749  -3836100.56446  23460742.786    23460752.119
       218.000         164.000
  20855624.466     1897609.56449   1678534.70747  20855624.182    20855631.182
       242.000         207.000
  20575486.093    -2097631.43649  -1601159.17547  20575486.567    20575492.437
       246.000         212.000
  20722124.743    -2355501.61949  -1805603.07447  20722123.872    20722131.601
       242.000         205.000
  22356013.074    -4357713.86949  -3373946.58546  22356013.634    22356020.226
       228.000         181.000
 03  5  5 16 54 30.0000000  0  7G24G21G17G 5G30G10G 6
  22815457.759     4131870.29449   3225889.05546  22815457.537    22815467.125
       228.000         173.000
  24243797.181    -4034361.20249  -3119280.18445  24243796.759    24243803.499
       210.000         139.000
  23447137.938    -5024023.75449  -3891813.02746  23447137.365    23447146.914
       219.000         165.000
  20866078.410     1952545.33749   1721341.75147  20866078.005    20866085.311
       242.000         207.000
  20573530.042    -2107910.65249  -1609168.95147  20573530.481    20573536.464
       246.000         212.000
  20719697.233    -2368258.31549  -1815543.34447  20719696.483    20719703.944
       242.000         206.000
  22343432.257    -4423826.62549  -3425462.97746  22343432.064    22343439.975
       228.000         181.000
 03  5  5 16 55  0.0000000  0  7G24G21G17G 5G30G10G 6
  22830272.555     4209722.31149   3286552.89346  22830272.861    22830281.570
       227.000         173.000
  24228312.318    -4115734.27049  -3182687.69645  24228312.059    24228319.877
       210.000         139.000
  23433571.755    -5095313.71849  -3947363.57346  23433571.126    23433580.572
       219.000         165.000
  20876623.852     2007961.61949   1764523.21947  20876623.354    20876630.733
       242.000         207.000
  20571685.533    -2117603.83049  -1616722.07947  20571685.828    20571691.910
       245.000         212.000
  20717389.987    -2380382.88649  -1824991.05647  20717389.310    20717396.658
       242.000         206.000
  22330862.643    -4489880.25549  -3476933.29546  22330862.456    22330870.053
       228.000         181.000
 03  5  5 16 55 30.0000000  0  7G24G21G17G 5G30G10G 6
  22845096.604     4287622.85549   3347254.55546  22845096.579    22845106.303
       225.000         173.000
  24212859.700    -4196937.91249  -3245963.15945  24212858.987    24212868.298
       210.000         140.000
  23420045.561    -5166394.28549  -4002750.95146  23420045.210    23420054.077
       218.000         165.000
  20887260.616     2063857.90449   1808078.71947  20887260.411    20887267.626
       242.000         207.000
  20569952.782    -2126709.41449  -1623817.34247  20569952.938    20569959.079
       245.000         212.000
  20715203.285    -2391874.15249  -1833945.27447  20715202.474    20715209.857
       241.000         206.000
  22318304.650    -4555872.80949  -3528356.01946  22318303.970    22318312.109
       229.000         182.000
 03  5  5 16 56  0.0000000  0  7G24G21G17G 5G30G10G 6
  22859929.405     4365569.13349   3407991.84046  22859929.260    22859938.577
       226.000         173.000
  24197439.107    -4277972.86849  -3309107.20945  24197438.172    24197447.702
       210.000         140.000
  23406559.010    -5237266.19049  -4057975.73546  23406558.717    23406568.278
       220.000         165.000
  20897988.167     2120231.31049   1852005.99447  20897987.734    20897995.152
       242.000         207.000
  20568331.827    -2135227.75549  -1630455.01647  20568332.320    20568338.337
       245.000         212.000
  20713137.043    -2402732.39349  -1842406.23847  20713136.274    20713143.603
       242.000         206.000
  22305758.309    -4621804.39249  -3579731.25246  22305758.225    22305765.504
       229.000         182.000
 03  5  5 16 56 30.0000000  0  7G24G21G17G 5G30G10G 6
  22874770.704     4443560.53149   3468764.28546  22874771.295    22874779.709
       226.000         173.000
  24182051.115    -4358837.36349  -3372118.42545  24182051.774    24182059.182
       212.000         142.000
  23393112.378    -5307928.44249  -4113037.17646  23393112.695    23393121.358
       220.000         166.000
  20908806.372     2177081.23749   1896304.58247  20908806.015    20908813.255
       242.000         207.000
  20566822.836    -2143157.46249  -1636634.01647  20566823.135    20566829.257
       246.000         212.000
  20711191.538    -2412956.26349  -1850372.88647  20711190.861    20711198.175
       242.000         206.000
  22293223.910    -4687672.96049  -3631057.37846  22293223.662    22293230.908
       230.000         183.000
 03  5  5 16 57  0.0000000  0  7G24G21G17G 5G30G10G 6
  22889620.244     4521595.03449   3529570.30746  22889620.256    22889629.500
       225.000         173.000
  24166695.478    -4439531.83049  -3434997.15745  24166695.025    24166704.006
       212.000         143.000
  23379705.564    -5378381.68349  -4167935.75046  23379705.227    23379714.347
       220.000         166.000
  20919714.733     2234404.89849   1940972.31147  20919714.503    20919721.613
       242.000         206.000
  20565425.856    -2150498.79849  -1642354.54947  20565426.162    20565432.403
       246.000         212.000
  20709366.621    -2422546.30749  -1857845.64747  20709365.754    20709373.220
       242.000         206.000
  22280701.513    -4753478.34149  -3682334.26346  22280701.182    22280709.549
       229.000         183.000
 03  5  5 16 57 30.0000000  0  7G24G21G17G 5G30G10G 6
  22904477.805     4599671.70549   3590409.19046  22904477.880    22904487.403
       224.000         172.000
  24151372.321    -4520055.30049  -3497742.64745  24151372.363    24151381.586
       210.000         143.000
  23366338.834    -5448624.55849  -4222670.41346  23366338.051    23366348.069
       221.000         167.000
  20930713.117     2292201.28349   1986008.39847  20930712.749    20930720.247
       242.000         206.000
  20564141.071    -2157250.47149  -1647615.60647  20564141.401    20564147.565
       246.000         212.000
  20707662.531    -2431501.43449  -1864823.67147  20707661.614    20707668.986
       242.000         206.000
  22268191.478    -4819218.84549  -3733560.59946  22268191.382    22268199.172
       230.000         183.000
 03  5  5 16 58  0.0000000  0  7G24G21G17G 5G30G10G 6
  22919343.048     4677788.92749   3651279.67546  22919342.969    22919352.016
       225.000         172.000
  24136081.731    -4600407.36249  -3560354.57745  24136081.778    24136090.329
       210.000         144.000
  23353012.001    -5518657.43249  -4277241.42446  23353012.036    23353020.602
       221.000         167.000
  20941801.060     2350468.48249   2031411.36247  20941800.663    20941807.989
       242.000         206.000
  20562968.550    -2163412.28549  -1652417.02747  20562968.973    20562974.997
       246.000         212.000
  20706079.323    -2439821.30449  -1871306.68647  20706078.680    20706085.950
       242.000         206.000
  22255693.964    -4884893.95049  -3784735.96546  22255693.784    22255701.765
       231.000         184.000
 03  5  5 16 58 30.0000000  0  7G24G21G17G 5G30G10G 6
  22934215.483     4755944.01749   3712179.65846  22934215.793    22934224.791
       224.000         172.000
  24120823.757    -4680588.79649  -3622833.53445  24120824.321    24120832.223
       210.000         145.000
  23339724.951    -5588481.15049  -4331649.46546  23339724.245    23339733.353
       222.000         167.000
  20952977.987     2409203.38249   2077178.76147  20952977.406    20952984.999
       241.000         206.000
  20561908.063    -2168985.24749  -1656759.60347  20561908.457    20561914.407
       246.000         212.000
  20704616.705    -2447507.53449  -1877295.95747  20704616.023    20704623.537
       242.000         206.000
  22243208.832    -4950503.93349  -3835860.59046  22243208.807    22243216.425
       230.000         184.000
 03  5  5 16 59  0.0000000  0  7G24G21G17G 5G30G10G 6
  22949095.285     4834137.47449   3773109.55046  22949094.882    22949104.866
       224.000         172.000
  24105598.605    -4760597.48049  -3685177.87845  24105598.102    24105606.479
       209.000         146.000
  23326478.183    -5658093.41549  -4385892.73746  23326477.676    23326487.587
       221.000         167.000
  20964243.985     2468406.17449   2123310.75447  20964243.666    20964251.183
       242.000         206.000
  20560960.096    -2173966.91049  -1660641.43047  20560960.333    20560966.421
       245.000         212.000
  20703275.151    -2454557.49549  -1882789.43647  20703274.331    20703281.672
       242.000         207.000
  22230736.628    -5016045.65549  -3886932.02946  22230735.882    22230744.026
       229.000         184.000
 03  5  5 16 59 30.0000000  0  7G24G21G17G 5G30G10G 6
  22963981.962     4912367.48949   3834067.90946  22963982.366    22963991.856
       223.000         171.000
  24090406.290    -4840433.46249  -3747387.63845  24090405.819    24090414.384
       209.000         146.000
  23313271.638    -5727494.03949  -4439971.09146  23313271.398    23313281.174
       221.000         167.000
  20975598.594     2528074.80249   2169805.74247  20975598.305    20975605.291
       242.000         205.000
  20560124.651    -2178357.20449  -1664062.44747  20560124.962    20560131.062
       245.000         212.000
  20702054.667    -2460971.24649  -1887787.16947  20702053.936    20702061.134
       243.000         207.000
  22218277.546    -5081518.44349  -3937949.74946  22218277.437    22218285.232
       231.000         185.000
 03  5  5 17  0  0.0000000  0  7G24G21G17G 5G30G10G 6
  22978875.354     4990632.24649   3895053.34146  22978875.186    22978884.528
       223.000         171.000
  24075246.881    -4920096.51249  -3809462.66845  24075246.813    24075254.286
       209.000         146.000
  23300105.283    -5796683.65349  -4493885.02946  23300104.993    23300114.037
       221.000         167.000
  20987041.372     2588206.77549   2216661.77147  20987041.204    20987048.352
       241.000         205.000
  20559401.732    -2182156.29849  -1667022.79147  20559402.132    20559408.041
       246.000         212.000
  20700955.177    -2466749.22949  -1892289.50147  20700954.298    20700961.697
       243.000         207.000
  22205831.715    -5146921.90349  -3988913.45946  22205831.193    22205838.739
       231.000         185.000
 03  5  5 17  0 30.0000000  0  7G24G21G17G 5G30G10G 6
  22993775.168     5068931.04749   3956065.31046  22993774.931    22993784.716
       222.000         170.000
  24060120.532    -4999585.25349  -3871401.83845  24060119.796    24060129.198
       208.000         146.000
  23286979.298    -5865661.07849  -4547633.61346  23286978.640    23286988.241
       221.000         167.000
  20998572.168     2648801.31549   2263878.25347  20998571.911    20998579.280
       241.000         205.000
  20558791.561    -2185362.70149  -1669521.30047  20558791.845    20558798.077
       246.000         212.000
  20699976.875    -2471890.30049  -1896295.53347  20699976.105    20699983.317
       242.000         207.000
  22193399.440    -5212253.96549  -4039821.52946  22193399.459    22193406.853
       231.000         186.000
 03  5  5 17  1  0.0000000  0  7G24G21G17G 5G30G10G 6
  23008681.202     5147262.66249   4017102.84546  23008681.661    23008690.654
       222.000         170.000
  24045027.434    -5078899.45849  -3933205.03245  24045027.134    24045035.113
       209.000         147.000
  23273893.639    -5934426.42049  -4601216.94046  23273892.789    23273902.719
       221.000         167.000
  21010190.594     2709856.24949   2311453.47247  21010190.368    21010197.572
       241.000         205.000
  20558294.216    -2187976.40349  -1671557.96747  20558294.489    20558300.627
       245.000         212.000
  20699119.682    -2476394.76149  -1899805.50847  20699118.938    20699126.467
       242.000         207.000
  22180980.890    -5277513.97849  -4090673.45846  22180980.437    22180988.215
       231.000         186.000
 03  5  5 17  1 30.0000000  0  7G24G21G17G 5G30G10G 6
  23023593.191     5225625.27749   4078164.52946  23023593.128    23023602.252
       223.000         170.000
  24029967.550    -5158039.07449  -3994872.17445  24029967.150    24029975.528
       212.000         149.000
  23260848.330    -6002979.47849  -4654634.84146  23260847.291    23260856.263
       221.000         167.000
  21021896.221     2771369.52549   2359385.84947  21021895.674    21021903.156
       241.000         204.000
  20557909.624    -2189997.56549  -1673132.91148  20557910.035    20557916.161
       246.000         213.000
  20698383.636    -2480262.74149  -1902819.52547  20698382.858    20698390.186
       242.000         207.000
  22168576.180    -5342701.10949  -4141468.59046  22168575.744    22168584.004
       230.000         186.000
 03  5  5 17  2  0.0000000  0  7G24G21G17G 5G30G10G 6
  23038510.679     5304016.99549   4139248.89446  23038511.700    23038520.522
       223.000         169.000
  24014941.047    -5237003.98949  -4056403.17445  24014939.963    24014949.093
       212.000         149.000
  23247843.451    -6071320.35149  -4707887.39146  23247842.384    23247852.669
       220.000         167.000
  21033688.657     2833339.17049   2407673.83347  21033688.161    21033695.667
       241.000         204.000
  20557637.840    -2191426.01449  -1674246.00448  20557638.213    20557644.236
       246.000         213.000
  20697768.715    -2483494.16849  -1905337.52647  20697767.923    20697775.342
       242.000         207.000
  22156185.482    -5407814.45049  -4192206.22346  22156185.412    22156192.770
       231.000         187.000
 03  5  5 17  2 30.0000000  0  7G24G21G17G 5G30G10G 6
  23053433.626     5382436.91449   4200355.24446  23053434.230    23053443.934
       224.000         169.000
  23999947.866    -5315793.69649  -4117797.63645  23999946.833    23999954.591
       211.000         149.000
  23234878.913    -6139449.21749  -4760974.74146  23234879.088    23234888.130
       220.000         167.000
  21045567.552     2895763.03849   2456315.75147  21045567.497    21045574.523
       241.000         204.000
  20557478.850    -2192261.52749  -1674897.06948  20557479.113    20557485.354
       247.000         213.000
  20697274.945    -2486089.11849  -1907359.57347  20697274.135    20697281.623
       242.000         207.000
  22143809.048    -5472853.02349  -4242885.59546  22143809.140    22143816.242
       232.000         187.000
 03  5  5 17  3  0.0000000  0  7G24G21G17G 5G30G10G 6
  23068361.590     5460883.41849   4261482.30146  23068361.885    23068370.629
       223.000         169.000
  23984987.987    -5394408.11849  -4179055.51245  23984987.669    23984995.653
       212.000         149.000
  23221954.724    -6207365.93649  -4813896.77946  23221954.405    23221963.572
       220.000         168.000
  21057532.571     2958639.20649   2505310.11947  21057532.304    21057539.567
       241.000         203.000
  20557432.717    -2192504.13549  -1675086.13348  20557433.215    20557439.143
       248.000         213.000
  20696902.209    -2488047.82649  -1908885.84947  20696901.403    20696908.861
       242.000         207.000
  22131447.008    -5537815.97349  -4293506.04646  22131446.688    22131454.056
       231.000         187.000
 03  5  5 17  3 30.0000000  0  7G24G21G17G 5G30G10G 6
  23083294.499     5539355.82349   4322629.53746  23083294.398    23083303.979
       223.000         168.000
  23970061.599    -5472846.28849  -4240176.04445  23970060.942    23970069.332
       213.000         150.000
  23209071.162    -6275069.42549  -4866652.67246  23209070.105    23209080.156
       221.000         167.000
  21069583.312     3021966.08149   2554655.67247  21069583.061    21069590.096
       241.000         203.000
  20557499.508    -2192153.12849  -1674812.64448  20557500.039    20557505.992
       248.000         213.000
  20696650.686    -2489369.68949  -1909915.88547  20696650.057    20696657.322
       242.000         207.000
  22119099.659    -5602701.52749  -4344066.18546  22119099.556    22119106.911
       232.000         187.000
 03  5  5 17  4  0.0000000  0  7G24G21G17G 5G30G10G 6
  23098231.964     5617852.68949   4383795.83946  23098232.187    23098240.532
       223.000         167.000
  23955168.758    -5551107.87649  -4301158.97045  23955167.553    23955176.853
       214.000         151.000
  23196228.114    -6342559.97149  -4919242.62446  23196227.086    23196236.930
       220.000         168.000
  21081719.399     3085741.43949   2604350.71047  21081718.960    21081726.529
       241.000         203.000
  20557679.315    -2191208.32249  -1674076.44548  20557679.675    20557685.801
       247.000         213.000
  20696520.306    -2490054.76149  -1910449.71147  20696519.678    20696526.966
       242.000         207.000
  22106767.261    -5667508.78049  -4394565.31146  22106767.443    22106774.632
       232.000         187.000
 03  5  5 17  4 30.0000000  0  7G24G21G17G 5G30G10G 6
  23113173.916     5696372.61649   4444980.10946  23113174.113    23113184.074
       222.000         167.000
  23940309.649    -5629192.74049  -4362004.19945  23940308.459    23940317.732
       215.000         152.000
  23183425.581    -6409837.39749  -4971666.51446  23183425.469    23183434.585
       221.000         168.000
  21093940.472     3149963.46949   2654393.80247  21093940.149    21093947.597
       240.000         203.000
  20557972.126    -2189669.65549  -1672877.50348  20557972.572    20557978.601
       247.000         213.000
  20696511.084    -2490103.14949  -1910487.42347  20696510.204    20696517.783
       242.000         207.000
  22094449.868    -5732236.53549  -4445002.48846  22094449.931    22094456.887
       232.000         187.000
 03  5  5 17  5  0.0000000  0  7G24G21G17G 5G30G10G 6
  23128119.932     5774913.86349   4506180.98546  23128119.636    23128129.832
       223.000         167.000
  23925484.222    -5707100.63549  -4422711.52845  23925483.752    23925491.810
       215.000         153.000
  23170663.648    -6476901.41849  -5023924.11846  23170662.734    23170672.630
       222.000         168.000
  21106246.144     3214629.98949   2704783.24147  21106245.880    21106253.043
       240.000         203.000
  20558377.909    -2187537.34549  -1671215.98248  20558378.341    20558384.366
       247.000         213.000
  20696622.945    -2489515.28449  -1910029.35547  20696622.297    20696629.772
       242.000         207.000
  22082147.836    -5796884.17049  -4495377.24646  22082147.947    22082155.554
       233.000         187.000
 03  5  5 17  5 30.0000000  0  7G24G21G17G 5G30G10G 6
  23143069.808     5853475.48549   4567397.73946  23143069.956    23143079.544
       223.000         166.000
  23910692.537    -5784831.14749  -4483280.62045  23910691.573    23910701.048
       216.000         153.000
  23157942.296    -6543752.34949  -5076015.67646  23157941.101    23157950.627
       221.000         168.000
  21118636.098     3279739.31449   2755517.72847  21118635.613    21118643.152
       240.000         202.000
  20558896.730    -2184811.12549  -1669091.67248  20558897.192    20558903.179
       247.000         213.000
  20696855.862    -2488291.32049  -1909075.62547  20696854.935    20696862.681
       242.000         207.000
  22069861.307    -5861450.36149  -4545688.53046  22069861.283    22069868.853
       233.000         187.000
 03  5  5 17  6  0.0000000  0  7G24G21G17G 5G30G10G 6
  23158023.351     5932056.44549   4628629.55746  23158023.754    23158033.122
       222.000         166.000
  23895934.745    -5862383.72249  -4543711.08745  23895934.499    23895942.302
       216.000         154.000
  23145261.650    -6610389.35549  -5127940.54046  23145261.229    23145270.515
       222.000         168.000
  21131109.983     3345289.68049   2806595.87947  21131109.827    21131117.250
       240.000         202.000
  20559528.680    -2181490.46749  -1666504.16848  20559529.064    20559535.074
       248.000         213.000
  20697209.855    -2486431.18249  -1907626.17647  20697209.050    20697216.384
       243.000         207.000
  22057590.542    -5925933.63949  -4595935.20947  22057590.268    22057597.625
       233.000         188.000
 03  5  5 17  6 30.0000000  0  7G24G21G17G 5G30G10G 6
  23172979.931     6010653.43349   4689873.87246  23172980.519    23172989.580
       222.000         165.000
  23881210.422    -5939759.99949  -4604004.15945  23881209.443    23881218.585
       215.000         154.000
  23132621.317    -6676814.49649  -5179700.31946  23132620.390    23132630.014
       222.000         169.000
  21143666.973     3411276.90849   2858014.43947  21143666.694    21143674.007
       240.000         202.000
  20560273.298    -2177577.57349  -1663455.17648  20560273.749    20560279.816
       247.000         213.000
  20697684.560    -2483936.62949  -1905682.37947  20697683.712    20697691.266
       243.000         207.000
  22045335.305    -5990334.94449  -4646118.01847  22045334.722    22045342.777
       232.000         188.000
 03  5  5 17  7  0.0000000  0  7G24G21G17G 5G30G10G 6
  23187939.956     6089268.47149   4751132.25246  23187940.643    23187949.748
       222.000         165.000
  23866520.378    -6016956.13549  -4664156.88845  23866519.912    23866527.916
       216.000         153.000
  23120021.994    -6743024.41149  -5231292.38346  23120021.282    23120031.169
       222.000         169.000
  21156307.328     3477702.31749   2909774.44247  21156307.233    21156314.526
       240.000         202.000
  20561131.254    -2173069.08549  -1659942.08948  20561131.635    20561137.767
       247.000         213.000
  20698280.547    -2480804.78049  -1903241.98947  20698279.789    20698287.174
       243.000         207.000
  22033096.529    -6054649.78349  -4696233.45347  22033096.085    22033103.724
       233.000         188.000
 03  5  5 17  7 30.0000000  0  7G24G21G17G 5G30G10G 6
  23202902.979     6167899.22049   4812402.87846  23202902.475    23202912.250
       221.000         164.000
  23851864.447    -6093973.09949  -4724169.98345  23851863.718    23851871.445
       216.000         153.000
  23107463.316    -6809020.24349  -5282717.64346  23107461.927    23107471.534
       221.000         169.000
  21169030.466     3544562.54049   2961873.27147  21169030.185    21169037.683
       240.000         202.000
  20562102.344    -2167966.16949  -1655965.80648  20562102.752    20562108.688
       248.000         213.000
  20698997.498    -2477037.20849  -1900306.22747  20698996.893    20699004.142
       243.000         207.000
  22020874.306    -6118878.19449  -4746281.54447  22020873.726    22020881.414
       233.000         188.000
 03  5  5 17  8  0.0000000  0  7G24G21G17G 5G30G10G 6
  23217868.704     6246544.09749   4873684.49946  23217869.074    23217878.218
       220.000         164.000
  23837242.552    -6170810.89349  -4784043.48345  23837241.491    23837250.022
       215.000         154.000
  23094945.392    -6874801.86749  -5333975.96846  23094944.483    23094953.595
       221.000         169.000
  21181835.899     3611855.25149   3014309.10047  21181835.430    21181843.039
       240.000         201.000
  20563186.486    -2162269.00849  -1651526.47948  20563187.072    20563192.925
       247.000         213.000
  20699835.416    -2472634.12849  -1896875.27047  20699834.723    20699842.282
       243.000         207.000
  22008668.622    -6183019.34749  -4796261.64047  22008668.546    22008675.785
       232.000         188.000
 03  5  5 17  8 30.0000000  0  7G24G21G17G 5G30G10G 6
  23232837.033     6325202.78549   4934976.88446  23232837.082    23232846.698
       221.000         164.000
  23822655.079    -6247468.21749  -4843776.36245  23822653.860    23822663.004
       217.000         154.000
  23082468.459    -6940368.14549  -5385066.50246  23082467.450    23082477.513
       221.000         169.000
  21194723.412     3679579.41649   3067081.12247  21194722.939    21194730.615
       240.000         201.000
  20564383.878    -2155976.75749  -1646623.43948  20564384.143    20564390.556
       247.000         213.000
  20700794.296    -2467595.19849  -1892948.84247  20700793.639    20700800.968
       242.000         207.000
  21996479.917    -6247071.10449  -4846172.07747  21996479.584    21996487.532
       233.000         189.000
 03  5  5 17  9  0.0000000  0  7G24G21G17G 5G30G10G 6
  23247807.515     6403872.84149   4996278.12246  23247807.068    23247816.743
       220.000         163.000
  23808101.708    -6323946.09149  -4903369.41345  23808101.095    23808109.925
       218.000         154.000
  23070032.188    -7005720.85049  -5435990.61946  23070031.819    23070041.221
       223.000         169.000
  21207692.361     3747731.51649   3120186.59847  21207691.990    21207699.521
       240.000         201.000
  20565694.209    -2149090.94349  -1641257.88848  20565694.626    20565700.679
       247.000         213.000
  20701873.882    -2461921.98249  -1888528.16447  20701873.191    20701880.846
       243.000         207.000
  21984308.221    -6311033.54149  -4896012.91847  21984308.280    21984316.091
       232.000         189.000
 03  5  5 17  9 30.0000000  0  7G24G21G17G 5G30G10G 6
  23262779.986     6482553.59949   5057587.69846  23262779.453    23262789.626
       219.000         163.000
  23793582.720    -6400243.82349  -4962822.11145  23793582.566    23793590.807
       218.000         154.000
  23057636.800    -7070858.88849  -5486747.45846  23057635.491    23057644.965
       223.000         170.000
  21220742.480     3816310.09249   3173624.39647  21220742.106    21220750.011
       240.000         201.000
  20567117.623    -2141611.05849  -1635429.42648  20567118.100    20567124.094
       248.000         213.000
  20703074.213    -2455614.27249  -1883613.08147  20703073.530    20703080.950
       243.000         207.000
  21972153.927    -6374904.73049  -4945782.65947  21972154.034    21972161.076
       232.000         189.000
 03  5  5 17 10  0.0000000  0  7G24G21G17G 5G30G10G 6
  23277754.310     6561243.79249   5118904.62446  23277753.966    23277763.859
       219.000         163.000
  23779097.922    -6476361.22849  -5022134.28645  23779097.823    23779105.825
       217.000         154.000
  23045282.162    -7135782.39649  -5537337.13846  23045281.314    23045290.761
       222.000         170.000
  21233873.294     3885312.73249   3227392.63147  21233872.926    21233880.510
       239.000         200.000
  20568653.985    -2133537.55349  -1629138.39848  20568654.297    20568660.329
       248.000         213.000
  20704395.173    -2448672.72049  -1878204.09447  20704394.476    20704402.024
       243.000         207.000
  21960017.181    -6438683.86649  -4995480.66547  21960016.637    21960024.642
       232.000         189.000
 03  5  5 17 10 30.0000000  0  7G24G21G17G 5G30G10G 6
  23292730.263     6639942.55049   5180228.22745  23292730.458    23292740.634
       218.000         162.000
  23764647.695    -6552297.32149  -5081305.19645  23764647.527    23764654.623
       218.000         154.000
  23032968.518    -7200490.67949  -5587759.10146  23032968.238    23032977.503
       221.000         170.000
  21247084.521     3954738.05749   3281490.23447  21247083.940    21247091.393
       239.000         200.000
  20570303.419    -2124869.80949  -1622384.32647  20570303.695    20570309.888
       247.000         212.000
  20705836.793    -2441097.00449  -1872300.95147  20705835.998    20705843.740
       244.000         207.000
  21947898.225    -6502368.96949  -5045105.39647  21947898.036    21947905.912
       232.000         189.000
 03  5  5 17 11  0.0000000  0  7G24G21G17G 5G30G10G 6
  23307707.452     6718647.93749   5241556.98945  23307707.490    23307717.070
       218.000         162.000
  23750231.919    -6628052.69949  -5140335.29845  23750231.647    23750239.216
       218.000         154.000
  23020695.757    -7264984.40749  -5638013.88546  23020695.304    23020703.526
       223.000         170.000
  21260375.629     4024583.03149   3335914.83147  21260375.538    21260382.864
       239.000         200.000
  20572065.743    -2115608.82049  -1615167.98847  20572066.265    20572072.136
       246.000         212.000
  20707398.827    -2432888.43349  -1865904.67647  20707398.306    20707405.477
       243.000         207.000
  21935797.304    -6565959.74049  -5094656.62347  21935797.453    21935804.873
       232.000         190.000
 03  5  5 17 11 30.0000000  0  7G24G21G17G 5G30G10G 6
  23322685.695     6797359.05049   5302890.22245  23322685.241    23322695.887
       218.000         162.000
  23735850.594    -6703626.88049  -5199224.20245  23735850.333    23735858.485
       217.000         153.000
  23008463.765    -7329263.67749  -5688101.56546  23008463.532    23008471.918
       223.000         170.000
  21273746.145     4094845.26449   3390664.56647  21273745.832    21273753.488
       239.000         200.000
  20573940.845    -2105755.01449  -1607489.71847  20573941.257    20573947.502
       246.000         212.000
  20709081.185    -2424047.77449  -1859015.86847  20709080.532    20709088.031
       243.000         207.000
  21923714.551    -6629455.07249  -5144133.48047  21923714.318    21923722.358
       232.000         190.000
 03  5  5 17 12  0.0000000  0  7G24G21G17G 5G30G10G 6
  23337665.057     6876075.44949   5364227.56045  23337664.911    23337674.909
       219.000         162.000
  23721503.914    -6779018.90149  -5257971.15945  23721502.955    23721511.800
       217.000         152.000
  22996272.738    -7393327.66249  -5738021.48146  22996271.752    22996280.840
       223.000         170.000
  21287195.863     4165523.75149   3445738.65547  21287195.301    21287203.469
       239.000         200.000
  20575928.957    -2095307.54949  -1599348.85447  20575929.390    20575935.455
       245.000         212.000
  20710883.904    -2414574.48349  -1851634.09647  20710883.184    20710890.502
       243.000         207.000
  21911650.346    -6692852.86049  -5193534.33447  21911649.890    21911657.932
       233.000         190.000
 03  5  5 17 12 30.0000000  0  7G24G21G17G 5G30G10G 6
  23352644.958     6954795.13549   5425567.46545  23352645.660    23352655.263
       219.000         162.000
  23707191.691    -6854229.70049  -5316576.90045  23707191.433    23707199.444
       217.000         152.000
  22984122.524    -7457177.21349  -5787774.30146  22984121.704    22984130.578
       224.000         171.000
  21300724.197     4236615.30849   3501134.62147  21300723.796    21300731.785
       240.000         200.000
  20578029.765    -2084267.73349  -1590746.41847  20578030.126    20578036.411
       246.000         212.000
  20712806.782    -2404469.71949  -1843760.26947  20712806.113    20712813.729
       244.000         207.000
  21899604.758    -6756152.81249  -5242858.94747  21899604.769    21899612.124
       233.000         190.000
 03  5  5 17 13  0.0000000  0  7G24G21G17G 5G30G10G 6
  23367625.415     7033517.48649   5486909.44245  23367625.210    23367635.690
       219.000         162.000
  23692914.177    -6929257.99949  -5375040.42945  23692912.948    23692922.035
       217.000         151.000
  22972013.273    -7520811.71449  -5837359.56846  22972012.517    22972021.739
       223.000         171.000
  21314330.806     4308118.24149   3556851.13747  21314330.476    21314338.221
       239.000         199.000
  20580243.332    -2072635.34149  -1581682.23347  20580243.644    20580249.708
       245.000         212.000
  20714849.808    -2393733.88049  -1835394.69747  20714849.108    20714856.602
       243.000         207.000
  21887578.142    -6819352.98949  -5292105.80647  21887578.055    21887585.838
       233.000         190.000
 03  5  5 17 13 30.0000000  0  7G24G21G17G 5G30G10G 6
  23382606.059     7112240.90449   5548252.25645  23382606.019    23382615.945
       219.000         162.000
  23678671.322    -7004104.24749  -5433362.09545  23678671.247    23678678.959
       217.000         151.000
  22959944.884    -7584231.34349  -5886777.38646  22959944.012    22959953.292
       223.000         172.000
  21328015.180     4380029.96349   3612886.19447  21328014.683    21328022.784
       238.000         199.000
  20582569.550    -2060411.08549  -1572156.85047  20582569.823    20582576.134
       245.000         212.000
  20717012.684    -2382367.90649  -1826538.10547  20717012.021    20717019.675
       243.000         207.000
  21875570.647    -6882452.74649  -5341274.41647  21875570.528    21875577.893
       233.000         191.000
 03  5  5 17 14  0.0000000  0  7G24G21G17G 5G30G10G 6
  23397586.861     7190964.94949   5609595.55245  23397587.068    23397597.894
       218.000         162.000
  23664463.267    -7078767.43949  -5491541.11245  23664463.363    23664471.959
       217.000         152.000
  22947917.458    -7647435.60049  -5936027.38746  22947916.038    22947925.149
       224.000         172.000
  21341777.025     4452348.78849   3669238.46747  21341776.745    21341784.516
       239.000         199.000
  20585008.447    -2047594.69249  -1562170.06947  20585008.815    20585015.082
       246.000         212.000
  20719295.548    -2370371.47449  -1817190.25547  20719294.761    20719302.390
       243.000         207.000
  21863582.628    -6945450.08349  -5390363.22647  21863582.427    21863589.999
       233.000         191.000
 03  5  5 17 14 30.0000000  0  7G24G21G17G 5G30G10G 6
  23412567.124     7269686.34149   5670936.77645  23412567.067    23412577.622
       219.000         162.000
  23650289.725    -7153249.62049  -5549579.06645  23650288.696    23650297.369
       218.000         152.000
  22935930.701    -7710426.45449  -5985111.11246  22935930.756    22935939.363
       225.000         173.000
  21355615.526     4525070.32749   3725904.54347  21355615.345    21355623.020
       239.000         198.000
  20587559.530    -2034188.73949  -1551723.88947  20587559.989    20587566.036
       245.000         212.000
  20721697.825    -2357747.49449  -1807353.40247  20721697.178    20721704.556
       242.000         207.000
  21851613.987    -7008345.76749  -5439372.82047  21851613.873    21851621.531
       234.000         191.000
 03  5  5 17 15  0.0000000  0  7G24G21G17G 5G30G10G 6
  23427547.237     7348406.63849   5732277.15145  23427547.486    23427557.614
       219.000         162.000
  23636151.171    -7227547.84649  -5607473.68345  23636150.843    23636158.231
       215.000         152.000
  22923984.990    -7773201.21349  -6034026.44046  22923984.236    22923993.426
       224.000         173.000
  21369530.775     4598195.18249   3782884.89047  21369530.482    21369538.144
       238.000         198.000
  20590223.304    -2020190.71949  -1540816.35547  20590223.585    20590230.076
       245.000         212.000
  20724219.862    -2344494.10049  -1797026.09847  20724219.122    20724226.717
       242.000         207.000
  21839665.399    -7071135.93949  -5488300.20447  21839665.344    21839672.869
       234.000         191.000
 03  5  5 17 15 30.0000000  0  7G24G21G17G 5G30G10G 6
  23442526.775     7427123.99749   5793615.23745  23442527.126    23442536.925
       220.000         161.000
  23622047.495    -7301662.73149  -5665225.41645  23622048.066    23622055.811
       216.000         151.000
  22912080.240    -7835760.91049  -6082774.18646  22912079.807    22912088.575
       225.000         173.000
  21383522.180     4671720.27149   3840177.11547  21383522.126    21383529.749
       238.000         198.000
  20592999.378    -2005602.19649  -1529448.68947  20592999.963    20593005.933
       245.000         212.000
  20726861.429    -2330612.73049  -1786209.46247  20726860.563    20726868.237
       242.000         206.000
  21827737.013    -7133820.09249  -5537144.97147  21827736.812    21827743.883
       234.000         192.000
 03  5  5 17 16  0.0000000  0  7G24G21G17G 5G30G10G 6
  23457505.640     7505837.74049   5854950.50945  23457505.747    23457514.735
       219.000         160.000
  23607978.877    -7375593.51649  -5722833.70145  23607978.597    23607985.913
       215.000         152.000
  22900216.562    -7898104.78949  -6131353.77446  22900215.701    22900225.097
       224.000         173.000
  21397589.417     4745643.70449   3897779.73647  21397589.167    21397596.635
       238.000         198.000
  20595887.971    -1990422.69349  -1517620.52047  20595888.223    20595894.529
       245.000         212.000
  20729622.379    -2316103.80149  -1774903.81747  20729621.741    20729629.221
       241.000         206.000
  21815829.103    -7196396.49749  -5585905.78447  21815829.416    21815836.304
       234.000         192.000
 03  5  5 17 16 30.0000000  0  7G24G21G17G 5G30G10G 6
  23472483.480     7584546.17049   5916281.64545  23472483.498    23472493.014
       219.000         160.000
  23593945.183    -7449340.62949  -5780298.84545  23593945.042    23593952.461
       216.000         151.000
  22888393.694    -7960233.91549  -6179766.01846  22888392.905    22888402.492
       224.000         173.000
  21411731.852     4819962.40149   3955690.35447  21411731.787    21411739.163
       238.000         197.000
  20598888.727    -1974653.78349  -1505333.07747  20598889.206    20598895.567
       245.000         212.000
  20732502.555    -2300968.56549  -1763110.14147  20732501.998    20732509.395
       241.000         206.000
  21803941.801    -7258864.66949  -5634582.25347  21803941.715    21803948.877
       234.000         192.000
 03  5  5 17 17  0.0000000  0  7G24G21G17G 5G30G10G 6
  23487460.236     7663248.92949   5977608.36445  23487460.380    23487470.754
       219.000         159.000
  23579946.579    -7522903.30949  -5837620.27245  23579945.843    23579953.032
       215.000         152.000
  22876611.921    -8022147.65849  -6228010.43246  22876611.152    22876619.540
       225.000         174.000
  21425949.268     4894674.81649   4013907.77147  21425949.024    21425956.527
       238.000         197.000
  20602001.703    -1958295.25249  -1492586.18247  20602002.161    20602008.228
       245.000         212.000
  20735501.845    -2285207.33149  -1750828.67047  20735501.151    20735508.655
       241.000         206.000
  21792075.530    -7321222.46949  -5683172.71547  21792075.660    21792083.044
       235.000         193.000
 03  5  5 17 17 30.0000000  0  7G24G21G17G 5G30G10G 6
  23502435.607     7741944.48049   6038929.44645  23502435.433    23502445.978
       218.000         159.000
  23565983.016    -7596281.84649  -5894798.23145  23565982.080    23565990.673
       214.000         151.000
  22864871.035    -8083846.43249  -6276087.35146  22864870.350    22864879.603
       225.000         174.000
  21440240.970     4969777.97649   4072429.65147  21440240.760    21440248.075
       238.000         197.000
  20605226.663    -1941348.11449  -1479380.64547  20605227.028    20605233.209
       245.000         212.000
  20738620.037    -2268821.39849  -1738060.43247  20738619.413    20738626.678
       241.000         206.000
  21780230.400    -7383469.14249  -5731676.58947  21780230.170    21780237.648
       235.000         193.000
 03  5  5 17 18  0.0000000  0  7G24G21G17G 5G30G10G 6
  23517409.323     7820631.47449   6100243.87245  23517409.946    23517419.573
       218.000         158.000
  23552054.429    -7669476.17649  -5951832.65245  23552053.483    23552062.358
       214.000         151.000
  22853170.918    -8145330.67349  -6323997.09146  22853170.589    22853178.921
       226.000         174.000
  21454606.576     5045269.51949   4131254.17647  21454605.945    21454613.492
       238.000         196.000
  20608563.507    -1923812.89049  -1465716.84947  20608563.868    20608570.026
       246.000         212.000
  20741856.891    -2251811.64349  -1724806.09147  20741856.122    20741863.614
       242.000         206.000
  21768406.615    -7445603.52349  -5780092.96347  21768406.866    21768413.822
       235.000         193.000
 03  5  5 17 18 30.0000000  0  7G24G21G17G 5G30G10G 6
  23532381.362     7899309.37849   6161551.22045  23532381.521    23532390.961
       218.000         158.000
  23538161.136    -7742485.72149  -6008723.08445  23538161.040    23538167.965
       216.000         152.000
  22841511.872    -8206599.41649  -6371738.91646  22841511.211    22841519.730
       225.000         175.000
  21469045.709     5121147.47949   4190379.79747  21469045.329    21469053.123
       237.000         196.000
  20612012.251    -1905689.81749  -1451594.98847  20612012.651    20612019.077
       245.000         212.000
  20745212.352    -2234178.48949  -1711065.98547  20745211.639    20745219.267
       241.000         206.000
  21756604.528    -7507623.69249  -5828420.34247  21756604.516    21756611.763
       235.000         193.000
 03  5  5 17 19  0.0000000  0  7G24G21G17G 5G30G10G 6
  23547351.406     7977976.86949   6222850.44945  23547351.478    23547361.854
       217.000         156.000
  23524302.984    -7815310.58649  -6065469.63245  23524302.684    23524310.803
       217.000         153.000
  22829893.667    -8267653.26549  -6419313.29146  22829893.773    22829901.284
       226.000         175.000
  21483557.918     5197409.27749   4249804.50747  21483557.653    21483565.127
       237.000         196.000
  20615572.642    -1886979.87949  -1437015.83547  20615573.136    20615579.450
       246.000         212.000
  20748686.215    -2215923.38649  -1696841.24847  20748685.424    20748693.122
       241.000         206.000
  21744824.434    -7569528.73549  -5876658.01547  21744824.351    21744831.435
       235.000         193.000
 03  5  5 17 19 30.0000000  0  7G24G21G17G 5G30G10G 6
  23562319.285     8056633.45149   6284141.17845  23562320.055    23562329.958
       217.000         156.000
  23510480.040    -7887950.11949  -6122071.77445  23510480.423    23510487.641
       217.000         154.000
  22818316.381    -8328491.99749  -6466720.04046  22818315.909    22818324.834
       226.000         176.000
  21498142.791     5274053.04149   4309526.86347  21498142.346    21498150.044
       237.000         196.000
  20619244.700    -1867683.28049  -1421979.53847  20619245.114    20619251.446
       245.000         212.000
  20752278.369    -2197046.53449  -1682132.03147  20752277.717    20752285.337
       240.000         206.000
  21733066.539    -7631316.77949  -5924804.51547  21733066.161    21733073.595
       235.000         194.000
 03  5  5 17 20  0.0000000  0  7G24G21G17G 5G30G10G 6
  23577284.823     8135277.59349   6345422.21845  23577285.035    23577293.923
       218.000         156.000
  23496692.446    -7960404.59949  -6178529.73345  23496692.668    23496699.768
       217.000         155.000
  22806780.048    -8389115.60349  -6513959.14546  22806779.025    22806788.112
       225.000         176.000
  21512799.793     5351075.90449   4369544.60847  21512799.649    21512807.548
       237.000         196.000
  20623028.173    -1847801.01449  -1406486.87947  20623028.584    20623034.783
       245.000         212.000
  20755988.504    -2177549.60149  -1666939.63147  20755987.649    20755995.380
       240.000         206.000
  21721331.044    -7692987.03749  -5972859.23947  21721330.846    21721338.194
       235.000         194.000
 03  5  5 17 20 30.0000000  0  7G24G21G17G 5G30G10G 6
  23592247.969     8213908.76849   6406693.13645  23592248.366    23592258.358
       218.000         156.000
  23482939.924    -8032673.83549  -6234843.33745  23482939.419    23482946.695
       217.000         155.000
  22795284.578    -8449524.45249  -6561030.93946  22795283.993    22795293.210
       226.000         176.000
  21527528.522     5428475.68949   4429856.05747  21527528.002    21527536.057
       238.000         195.000
  20626923.036    -1827333.40449  -1390538.11547  20626923.308    20626929.762
       246.000         212.000
  20759816.529    -2157433.23249  -1651264.56547  20759815.729    20759823.395
       240.000         206.000
  21709618.280    -7754537.90749  -6020820.94447  21709618.344    21709625.485
       235.000         194.000
 03  5  5 17 21  0.0000000  0  8G24G21G29G17G 5G30G10G 6
  23607206.707     8292516.91249   6467946.11545  23607207.231    23607216.469
       214.000         155.000
  23469221.090    -8104766.48749  -6291019.35845  23469220.587    23469228.762
       217.000         156.000
  24594177.529   -11417059.63559  -8868684.02544  24594176.946    24594190.298
       197.000         129.000
  22783828.319    -8509727.44549  -6607942.29246  22783826.885    22783836.211
       227.000         176.000
  21542326.833     5506241.11849   4490452.43247  21542326.148    21542334.472
       237.000         195.000
  20630927.418    -1806290.45649  -1374141.02947  20630927.996    20630934.113
       245.000         212.000
  20763760.610    -2136707.00949  -1635114.27947  20763759.708    20763767.487
       240.000         205.000
  21697926.849    -7815976.88549  -6068695.45047  21697926.618    21697933.744
       236.000         194.000
 03  5  5 17 21 30.0000000  0  8G24G21G29G17G 5G30G10G 6
  23622162.892     8371112.20249   6529189.08045  23622163.576    23622173.502
       217.000         155.000
  23455538.131    -8176670.85749  -6347048.68045  23455537.160    23455545.133
       217.000         157.000
  24580623.037   -11488289.34449  -8924187.52844  24580623.119    24580636.575
       196.000         130.000
  22772413.430    -8569713.04949  -6654684.27846  22772413.336    22772421.541
       227.000         177.000
  21557196.451     5584381.11649   4551340.67347  21557196.064    21557204.318
       237.000         195.000
  20635043.348    -1784661.27549  -1357287.14247  20635043.726    20635050.185
       246.000         212.000
  20767822.652    -2115360.90249  -1618480.97747  20767822.106    20767829.534
       241.000         206.000
  21686259.150    -7877291.15849  -6116472.78847  21686258.696    21686266.414
       236.000         194.000
 03  5  5 17 22  0.0000000  0  8G24G21G29G17G 5G30G10G 6
  23637116.675     8449694.41149   6590421.86645  23637116.865    23637127.068
       215.000         155.000
  23441891.056    -8248386.59449  -6402931.00645  23441889.917    23441897.615
       218.000         157.000
  24567072.825   -11559495.39449  -8979672.60044  24567072.919    24567087.429
       198.000         131.000
  22761039.893    -8629481.03349  -6701256.67746  22761039.450    22761048.719
       227.000         177.000
  21572137.012     5662893.89049   4612519.39947  21572136.910    21572144.644
       236.000         195.000
  20639270.739    -1762446.19649  -1339976.70747  20639271.160    20639277.508
       245.000         212.000
  20772002.557    -2093395.40249  -1601365.02347  20772001.812    20772009.717
       241.000         206.000
  21674615.429    -7938479.05549  -6164151.64547  21674615.416    21674622.865
       236.000         195.000
 03  5  5 17 22 30.0000000  0  8G24G21G29G17G 5G30G10G 6
  23652067.226     8528259.41649   6651641.22145  23652067.664    23652077.036
       216.000         154.000
  23428279.358    -8319916.24749  -6458668.32445  23428278.830    23428286.210
       218.000         157.000
  24553527.271   -11630677.61849  -9035139.14044  24553528.596    24553540.093
       198.000         131.000
  22749707.229    -8689034.49249  -6747661.91946  22749706.636    22749714.354
       228.000         177.000
  21587147.488     5741774.25449   4673984.54547  21587146.829    21587155.354
       236.000         194.000
  20643608.964    -1739648.69949  -1322212.44447  20643609.367    20643615.670
       245.000         211.000
  20776299.631    -2070814.18149  -1583769.29047  20776298.648    20776306.548
       241.000         205.000
  21662995.539    -7999541.89649  -6211733.05847  21662995.520    21663002.917
       237.000         195.000
 03  5  5 17 23  0.0000000  0  8G24G21G29G17G 5G30G10G 6
  23667014.654     8606808.05149   6712847.82845  23667015.226    23667024.570
       217.000         155.000
  23414703.373    -8391258.47249  -6514259.62045  23414703.028    23414710.399
       220.000         158.000
  24539987.051   -11701831.94249  -9090583.89845  24539987.270    24540000.319
       198.000         132.000
  22738415.653    -8748371.95549  -6793898.84546  22738414.413    22738424.293
       227.000         178.000
  21602227.653     5821020.91649   4735735.12547  21602227.499    21602235.504
       236.000         194.000
  20648058.089    -1716268.54349  -1303994.16047  20648058.377    20648064.771
       245.000         212.000
  20780713.871    -2047617.41249  -1565693.91347  20780713.332    20780720.697
       241.000         205.000
  21651399.995    -8060476.92849  -6259214.87847  21651399.638    21651407.176
       237.000         195.000
 03  5  5 17 23 30.0000000  0  8G24G21G29G17G 5G30G10G 6
  23681958.663     8685338.60349   6774040.35245  23681959.131    23681969.452
       218.000         155.000
  23401163.074    -8462413.46149  -6569705.00645  23401162.692    23401169.762
       220.000         159.000
  24526452.470   -11772955.87349  -9146004.97444  24526451.071    24526463.914
       203.000         131.000
  22727165.158    -8807493.79949  -6839967.76746  22727164.372    22727172.648
       227.000         178.000
  21617376.975     5900630.84349   4797768.76347  21617377.121    21617384.898
       236.000         193.000
  20652617.839    -1692306.91849  -1285322.78747  20652618.370    20652624.359
       245.000         211.000
  20785244.826    -2023807.09349  -1547140.44847  20785244.095    20785251.974
       240.000         205.000
  21639828.926    -8121283.31849  -6306596.45647  21639828.728    21639836.136
       236.000         196.000
 03  5  5 17 24  0.0000000  0  8G24G21G29G17G 5G30G10G 6
  23696898.828     8763849.34049   6835217.43445  23696899.618    23696908.679
       217.000         155.000
  23387658.282    -8533381.83049  -6625004.98745  23387658.181    23387665.267
       221.000         160.000
  24512924.209   -11844047.37749  -9201400.81245  24512923.896    24512937.191
       201.000         132.000
  22715955.385    -8866401.50549  -6885869.81846  22715954.562    22715963.524
       228.000         178.000
  21632594.821     5980600.81149   4860082.96047  21632594.646    21632602.552
       235.000         193.000
  20657287.964    -1667765.54949  -1266199.65947  20657288.447    20657294.648
       245.000         211.000
  20789892.245    -1999384.85649  -1528110.16047  20789891.687    20789899.525
       240.000         205.000
  21628282.444    -8181960.38349  -6353877.26447  21628282.102    21628289.723
       236.000         196.000
 03  5  5 17 24 30.0000000  0  8G24G21G29G17G 5G30G10G 6
  23711835.169     8842339.75949   6896378.69145  23711834.978    23711845.627
       218.000         156.000
  23374188.958    -8604163.44049  -6680159.42445  23374188.476    23374194.891
       221.000         161.000
  24499402.694   -11915103.15749  -9256768.79244  24499401.727    24499418.259
       201.000         131.000
  22704786.359    -8925094.94649  -6931604.91346  22704786.034    22704794.613
       227.000         178.000
  21647880.766     6060928.88549   4922676.18947  21647880.524    21647888.358
       235.000         192.000
  20662068.263    -1642644.91949  -1246625.16347  20662068.518    20662074.958
       245.000         211.000
  20794655.995    -1974351.43449  -1508603.62847  20794655.510    20794662.889
       240.000         205.000
  21616760.937    -8242506.26349  -6401055.84947  21616760.538    21616767.864
       236.000         196.000
 03  5  5 17 25  0.0000000  0  8G24G21G29G17G 5G30G10G 6
  23726767.431     8920808.95549   6957523.39245  23726767.521    23726778.690
       216.000         155.000
  23360755.072    -8674758.27449  -6735168.32945  23360754.746    23360763.109
       220.000         161.000
  24485888.469   -11986120.27549  -9312106.64844  24485886.484    24485899.574
       202.000         130.000
  22693658.149    -8983573.84749  -6977172.84646  22693657.288    22693666.515
       228.000         178.000
  21663234.374     6141612.36149   4985546.36347  21663233.945    21663242.261
       235.000         192.000
  20666958.618    -1616945.96349  -1226600.01947  20666959.092    20666965.302
       245.000         211.000
  20799535.789    -1948707.99449  -1488621.76447  20799534.962    20799542.783
       240.000         205.000
  21605264.618    -8302919.65749  -6448131.19247  21605264.397    21605271.877
       237.000         196.000
 03  5  5 17 25 30.0000000  0  8G24G21G29G17G 5G30G10G 6
  23741695.432     8999255.94549   7018650.79445  23741695.866    23741705.932
       216.000         155.000
  23347356.734    -8745166.42849  -6790031.75445  23347356.721    23347363.504
       221.000         162.000
  24472382.146   -12057096.26649  -9367412.44644  24472382.542    24472394.537
       204.000         131.000
  22682570.621    -9041839.05049  -7022574.25546  22682570.093    22682579.080
       228.000         178.000
  21678655.086     6222648.46749   5048691.30547  21678654.820    21678662.770
       235.000         192.000
  20671958.805    -1590669.94049  -1206125.21647  20671959.150    20671965.475
       245.000         211.000
  20804531.348    -1922456.25149  -1468165.89047  20804530.733    20804538.430
       240.000         205.000
  21593793.752    -8363199.58149  -6495102.52947  21593793.618    21593800.742
       237.000         197.000
 03  5  5 17 26  0.0000000  0  8G24G21G29G17G 5G30G10G 6
  23756619.085     9077679.59149   7079760.01045  23756619.115    23756629.773
       217.000         155.000
  23333994.049    -8815387.67249  -6844749.53745  23333992.993    23334000.564
       221.000         162.000
  24458884.063   -12128028.02949  -9422683.76844  24458882.918    24458898.220
       205.000         131.000
  22671523.739    -9099890.21649  -7067808.88046  22671523.041    22671532.643
       228.000         179.000
  21694142.444     6304034.72549   5112109.10147  21694142.068    21694150.241
       235.000         192.000
  20677068.648    -1563817.73849  -1185201.43547  20677069.293    20677075.515
       245.000         211.000
  20809642.444    -1895597.44349  -1447236.99247  20809641.715    20809649.522
       240.000         205.000
  21582348.555    -8423344.37849  -6541968.58147  21582348.411    21582355.914
       237.000         197.000
 03  5  5 17 26 30.0000000  0  8G24G21G29G17G 5G30G10G 6
  23771538.169     9156079.15649   7140850.45945  23771538.017    23771549.249
       217.000         156.000
  23320666.945    -8885421.71549  -6899321.45345  23320665.869    23320673.223
       221.000         162.000
  24445395.044   -12198912.68949  -9477918.39345  24445393.906    24445408.426
       209.000         132.000
  22660517.671    -9157727.11949  -7112876.54246  22660516.881    22660526.094
       228.000         179.000
  21709695.987     6385768.88249   5175797.97847  21709695.960    21709704.171
       235.000         192.000
  20682287.926    -1536390.26449  -1163829.40447  20682288.230    20682294.769
       245.000         211.000
  20814868.839    -1868132.67249  -1425835.90847  20814868.207    20814875.930
       241.000         205.000
  21570929.405    -8483352.53649  -6588728.16947  21570929.077    21570936.788
       237.000         197.000
 03  5  5 17 27  0.0000000  0  8G24G21G29G17G 5G30G10G 6
  23786452.394     9234453.53649   7201921.27245  23786452.392    23786462.529
       216.000         156.000
  23307375.402    -8955268.93149  -6953747.76845  23307374.840    23307382.368
       222.000         162.000
  24431915.420   -12269747.61849  -9533114.28644  24431914.637    24431929.109
       205.000         131.000
  22649552.248    -9215350.63949  -7157777.93246  22649551.252    22649560.531
       227.000         179.000
  21725315.209     6467848.00849   5239755.66247  21725314.728    21725323.315
       235.000         191.000
  20687616.409    -1508388.92549  -1142010.20147  20687616.861    20687623.078
       245.000         211.000
  20820210.261    -1840063.74649  -1403964.05647  20820209.579    20820217.494
       241.000         205.000
  21559536.416    -8543222.85149  -6635380.33847  21559536.184    21559543.502
       237.000         197.000
 03  5  5 17 27 30.0000000  0  8G24G21G29G17G 5G30G10G 6
  23801361.694     9312802.07649   7262971.95245  23801362.660    23801373.357
       216.000         156.000
  23294119.494    -9024929.14849  -7008028.39146  23294119.696    23294126.025
       223.000         164.000
  24418445.950   -12340529.57049  -9588268.85744  24418444.932    24418459.188
       206.000         131.000
  22638627.326    -9272760.91849  -7202513.17746  22638626.395    22638635.369
       227.000         179.000
  21740999.660     6550269.95549   5303980.47847  21740999.149    21741007.634
       234.000         191.000
  20693053.974    -1479814.40449  -1119744.36747  20693054.407    20693060.565
       245.000         211.000
  20825666.465    -1811391.44149  -1381622.04047  20825665.951    20825673.498
       241.000         205.000
  21548170.019    -8602953.52749  -6681923.70147  21548169.792    21548176.997
       238.000         197.000
 03  5  5 17 28  0.0000000  0  8G24G21G29G17G 5G30G10G 6
  23816265.892     9391123.40749   7324001.42545  23816264.773    23816277.385
       217.000         156.000
  23280899.124    -9094402.51049  -7062163.39146  23280898.879    23280906.429
       223.000         164.000
  24404987.130   -12411256.09749  -9643380.27944  24404985.690    24404999.202
       208.000         131.000
  22627743.003    -9329958.34149  -7247082.55546  22627742.220    22627751.094
       228.000         179.000
  21756748.753     6633031.75049   5368470.10247  21756748.267    21756756.790
       234.000         190.000
  20698600.333    -1450668.12749  -1097033.00947  20698600.777    20698606.976
       245.000         210.000
  20831237.067    -1782117.77349  -1358811.43647  20831236.485    20831244.043
       241.000         205.000
  21536830.387    -8662543.66149  -6728357.55247  21536830.113    21536837.570
       237.000         198.000
 03  5  5 17 28 30.0000000  0  8G24G21G29G17G 5G30G10G 6
  23831164.807     9469417.15449   7385009.40845  23831164.998    23831176.068
       217.000         156.000
  23267714.446    -9163688.56349  -7116152.45446  23267713.737    23267721.182
       222.000         165.000
  24391539.463   -12481923.93949  -9698445.93845  24391539.848    24391550.462
       206.000         133.000
  22616899.178    -9386942.75949  -7291485.95446  22616898.337    22616906.739
       227.000         180.000
  21772562.097     6716131.11149   5433222.78147  21772561.959    21772570.193
       234.000         190.000
  20704255.382    -1420950.75049  -1073876.63447  20704255.672    20704262.157
       245.000         210.000
  20836921.945    -1752243.75149  -1335533.01347  20836921.300    20836929.118
       241.000         205.000
  21525517.897    -8721991.19449  -6774680.28247  21525517.804    21525525.105
       238.000         198.000
 03  5  5 17 29  0.0000000  0  8G24G21G29G17G 5G30G10G 6
  23846058.347     9547682.71449   7445995.43445  23846058.867    23846069.161
       216.000         155.000
  23254565.338    -9232787.00349  -7169995.31646  23254564.570    23254573.006
       222.000         165.000
  24378103.322   -12552529.64449  -9753463.20245  24378104.050    24378116.838
       207.000         133.000
  22606096.064    -9443713.53149  -7335722.87446  22606095.256    22606104.062
       228.000         180.000
  21788439.274     6799565.96249   5498236.86347  21788439.117    21788447.342
       234.000         190.000
  20710018.955    -1390663.15049  -1050275.93547  20710019.422    20710025.782
       245.000         210.000
  20842720.935    -1721770.07849  -1311787.33047  20842720.275    20842728.127
       241.000         205.000
  21514232.888    -8781294.22649  -6820890.41747  21514232.627    21514240.119
       239.000         198.000
 03  5  5 17 29 30.0000000  0  8G24G21G29G17G 5G30G10G 6
  23860946.372     9625919.49549   7506959.03245  23860946.081    23860957.269
       216.000         155.000
  23241452.023    -9301697.69149  -7223691.88446  23241451.438    23241458.825
       222.000         165.000
  24364679.821   -12623070.32849  -9808429.80145  24364680.243    24364691.940
       208.000         134.000
  22595333.490    -9500271.18249  -7379793.73246  22595332.437    22595341.936
       227.000         179.000
  21804379.823     6883333.74849   5563510.38047  21804379.352    21804387.810
       234.000         190.000
  20715890.859    -1359806.44649  -1026231.77947  20715891.217    20715897.651
       244.000         210.000
  20848633.737    -1690698.29149  -1287575.59347  20848633.172    20848640.781
       242.000         205.000
  21502975.607    -8840451.41249  -6866986.90647  21502975.420    21502982.725
       239.000         198.000
 03  5  5 17 30  0.0000000  0  8G24G21G29G17G 5G30G10G 6
  23875828.658     9704126.03549   7567899.06845  23875829.217    23875839.851
       216.000         155.000
  23228374.294    -9370421.46749  -7277242.82246  23228373.532    23228381.402
       223.000         165.000
  24351268.992   -12693543.97249  -9863344.15745  24351268.488    24351281.189
       206.000         135.000
  22584611.295    -9556616.49649  -7423699.12446  22584610.719    22584619.401
       228.000         180.000
  21820383.125     6967431.18449   5629040.77147  21820383.233    21820390.834
       233.000         190.000
  20721870.629    -1328382.47749  -1001745.59547  20721870.877    20721877.340
       244.000         210.000
  20854659.902    -1659030.96249  -1262899.79147  20854659.240    20854666.828
       241.000         205.000
  21491746.256    -8899462.04749  -6912969.20047  21491745.794    21491753.294
       239.000         198.000
 03  5  5 17 30 30.0000000  0  8G24G21G29G17G 5G30G10G 6
  23890704.834     9782300.31849   7628813.95645  23890704.290    23890716.485
       216.000         155.000
  23215332.025    -9438959.15249  -7330648.75046  23215330.881    23215338.851
       222.000         165.000
  24337871.259   -12763948.62849  -9918204.75945  24337870.223    24337882.733
       208.000         134.000
  22573929.285    -9612751.01249  -7467440.27346  22573928.604    22573936.936
       228.000         180.000
  21836448.376     7051854.44749   5694825.04747  21836447.912    21836456.330
       233.000         189.000
  20727957.944    -1296393.63949   -976819.26047  20727958.313    20727964.549
       245.000         210.000
  20860798.849    -1626770.72549  -1237761.98647  20860798.390    20860805.808
       241.000         205.000
  21480544.876    -8958325.77949  -6958837.03047  21480544.648    21480552.100
       239.000         198.000
 03  5  5 17 31  0.0000000  0  8G24G21G29G17G 5G30G10G 6
  23905575.053     9860443.60249   7689704.70445  23905576.034    23905585.298
       215.000         154.000
  23202325.527    -9507308.75549  -7383908.11246  23202324.295    23202332.735
       223.000         165.000
  24324487.562   -12834279.23749  -9973007.68945  24324486.918    24324499.168
       207.000         134.000
  22563287.665    -9668672.84149  -7511015.67646  22563286.722    22563295.800
       228.000         180.000
  21852575.564     7136603.15649   5760862.91647  21852575.097    21852583.830
       233.000         189.000
  20734152.890    -1263839.05449   -951452.07447  20734153.344    20734159.618
       245.000         210.000
  20867050.800    -1593916.69049  -1212161.48147  20867050.082    20867057.786
       241.000         205.000
  21469372.092    -9017038.95049  -7004587.53047  21469371.923    21469379.166
       239.000         199.000
 03  5  5 17 31 30.0000000  0  8G24G21G29G17G 5G30G10G 6
  23920438.490     9938550.83249   7750567.35845  23920439.025    23920448.479
       215.000         154.000
  23189353.951    -9575474.38649  -7437024.13646  23189353.355    23189361.095
       223.000         165.000
  24311117.834   -12904537.07049 -10027753.88545  24311118.063    24311131.575
       207.000         135.000
  22552685.717    -9724386.31649  -7554428.74046  22552684.921    22552693.748
       228.000         181.000
  21868763.436     7221670.58249   5827149.13747  21868763.050    21868771.637
       234.000         189.000
  20740454.500    -1230723.98949   -925648.15247  20740454.772    20740461.045
       244.000         209.000
  20873414.684    -1560474.56449  -1186102.71847  20873413.986    20873421.742
       242.000         205.000
  21458227.470    -9075604.26249  -7050222.81647  21458227.228    21458234.538
       239.000         199.000
 03  5  5 17 32  0.0000000  0  8G24G21G29G17G 5G30G10G 6
  23935296.882    10016631.62349   7811409.41245  23935296.559    23935308.456
       215.000         153.000
  23176419.405    -9643445.61349  -7489988.66946  23176418.719    23176426.393
       223.000         165.000
  24297764.488   -12974708.84849 -10082433.05045  24297763.089    24297775.772
       207.000         135.000
  22542125.411    -9779881.01149  -7597671.33146  22542124.642    22542134.129
       229.000         181.000
  21885013.429     7307064.53649   5893689.79147  21885013.031    21885021.831
       234.000         189.000
  20746864.505    -1197039.23649   -899400.32247  20746864.694    20746871.160
       244.000         209.000
  20879892.088    -1526435.83249  -1159579.07447  20879891.542    20879899.053
       242.000         205.000
  21447113.256    -9134009.75449  -7095733.58247  21447113.412    21447120.634
       238.000         199.000
 03  5  5 17 32 30.0000000  0  8G24G21G29G17G 5G30G10G 6
  23950148.499    10094676.76949   7872223.69045  23950148.068    23950159.942
       215.000         153.000
  23163520.209    -9711231.05049  -7542808.44946  23163519.489    23163526.888
       224.000         165.000
  24284426.571   -13044799.72949 -10137049.17045  24284426.701    24284438.059
       206.000         136.000
  22531605.044    -9835165.58749  -7640750.18846  22531604.445    22531612.936
       227.000         181.000
  21901323.489     7392774.08449   5960476.36247  21901323.179    21901331.640
       233.000         189.000
  20753381.048    -1162794.70549   -872716.30647  20753381.463    20753387.808
       244.000         209.000
  20886481.152    -1491810.39249  -1132598.25647  20886480.650    20886488.163
       241.000         205.000
  21436028.186    -9192262.15249  -7141125.05147  21436027.897    21436035.379
       238.000         199.000
 03  5  5 17 33  0.0000000  0  8G24G21G29G17G 5G30G10G 6
  23964993.471    10172687.05449   7933010.80245  23964994.150    23965004.755
       215.000         153.000
  23150656.605    -9778829.35649  -7595482.40746  23150656.594    23150663.836
       223.000         165.000
  24271104.867   -13114805.75649 -10191599.17645  24271104.464    24271116.768
       206.000         136.000
  22521124.953    -9890238.82849  -7683664.36546  22521124.120    22521132.823
       228.000         181.000
  21917693.353     7478797.83749   6027507.77047  21917693.167    21917701.777
       233.000         188.000
  20760004.140    -1127990.15149   -845595.90147  20760004.628    20760010.894
       245.000         209.000
  20893181.816    -1456598.32849  -1105160.31947  20893181.072    20893188.850
       242.000         205.000
  21424972.793    -9250358.57349  -7186394.98147  21424972.540    21424979.967
       239.000         199.000
 03  5  5 17 33 30.0000000  0  8G24G21G29G17G 5G30G10G 6
  23979831.738    10250662.17449   7993770.51445  23979833.007    23979842.455
       214.000         152.000
  23137828.762    -9846239.73249  -7648009.92546  23137828.175    23137835.872
       225.000         165.000
  24257799.891   -13184723.19649 -10246080.12445  24257800.574    24257812.932
       205.000         138.000
  22510685.081    -9945100.53049  -7726413.71146  22510684.238    22510693.478
       228.000         181.000
  21934122.591     7565133.69049   6094782.36447  21934122.123    21934130.851
       232.000         188.000
  20766733.673    -1092626.46649   -818039.81347  20766733.979    20766740.587
       244.000         209.000
  20899993.884    -1420800.93049  -1077266.28147  20899993.286    20900000.840
       242.000         205.000
  21413947.437    -9308297.07949  -7231541.86247  21413947.373    21413954.490
       238.000         199.000
 03  5  5 17 34  0.0000000  0  8G24G21G29G17G 5G30G10G 6
  23994662.954    10328600.36449   8054501.45645  23994663.440    23994674.620
       214.000         151.000
  23125036.593    -9913462.97449  -7700391.62846  23125036.031    23125043.902
       223.000         165.000
  24244512.145   -13254550.15249 -10300490.60245  24244511.374    24244525.329
       205.000         139.000
  22500285.119    -9999752.27949  -7768999.46446  22500284.377    22500292.971
       228.000         181.000
  21950610.524     7651778.17449   6162297.45246  21950610.259    21950618.853
       232.000         187.000
  20773569.193    -1056705.80449   -790049.72347  20773569.757    20773576.044
       244.000         209.000
  20906916.898    -1384420.51349  -1048917.94447  20906916.423    20906923.962
       242.000         205.000
  21402952.301    -9366076.93049  -7276565.11847  21402952.185    21402959.268
       238.000         199.000
 03  5  5 17 34 30.0000000  0  8G24G21G29G17G 5G30G10G 6
  24009487.301    10406502.38949   8115204.22045  24009487.038    24009499.014
       213.000         150.000
  23112280.208    -9980497.92249  -7752626.61746  23112279.532    23112287.565
       224.000         165.000
  24231242.474   -13324282.26649 -10354827.15545  24231240.821    24231253.966
       207.000         139.000
  22489925.397   -10054192.80749  -7811420.62146  22489924.959    22489934.112
       229.000         181.000
  21967156.969     7738729.95349   6230051.99746  21967156.824    21967165.667
       231.000         186.000
  20780510.638    -1020228.35349   -761625.77047  20780511.211    20780517.673
       244.000         209.000
  20913950.768    -1347457.51949  -1020115.65347  20913950.214    20913957.849
       242.000         205.000
  21391987.871    -9423695.28849  -7321462.53547  21391987.695    21391994.868
       239.000         200.000
 03  5  5 17 35  0.0000000  0  8G24G21G29G17G 5G30G10G 6
  24024304.508    10484366.94649   8175877.79745  24024304.400    24024315.856
       214.000         149.000
  23099559.569   -10047345.24249  -7804715.38146  23099558.438    23099566.765
       223.000         164.000
  24217991.180   -13393917.40849 -10409088.16245  24217990.624    24218002.830
       207.000         139.000
  22479605.763   -10108422.91449  -7853677.81846  22479605.323    22479613.870
       229.000         182.000
  21983761.295     7825985.74749   6298043.42346  21983761.249    21983769.525
       231.000         186.000
  20787557.671     -983196.09749   -732769.50147  20787557.983    20787564.480
       244.000         209.000
  20921094.996    -1309914.46949   -990861.36847  20921094.268    20921101.746
       242.000         205.000
  21381054.399    -9481151.16249  -7366233.33647  21381054.264    21381061.556
       238.000         200.000
 03  5  5 17 35 30.0000000  0  8G24G21G29G17G 5G30G10G 6
  24039114.418    10562192.91349   8236521.28745  24039114.957    24039126.169
       212.000         148.000
  23086874.543   -10114005.20349  -7856658.16546  23086873.440    23086881.630
       223.000         164.000
  24204758.929   -13463452.57749 -10463271.25645  24204757.425    24204769.428
       207.000         139.000
  22469326.059   -10162442.90749  -7895771.29146  22469325.410    22469334.365
       228.000         182.000
  22000422.867     7913542.65849   6366269.48746  22000422.784    22000430.766
       231.000         186.000
  20794709.967     -945610.70749   -703482.22447  20794710.372    20794716.760
       244.000         209.000
  20928349.272    -1271793.04749   -961156.40647  20928348.826    20928356.456
       242.000         205.000
  21370152.123    -9538443.15849  -7410876.44447  21370151.682    21370159.186
       238.000         200.000
 03  5  5 17 36  0.0000000  0  8G24G21G29G17G 5G30G10G 6
  24053917.014    10639980.27249   8297134.71045  24053917.569    24053927.473
       212.000         148.000
  23074225.292   -10180477.38549  -7908454.62746  23074225.016    23074231.623
       224.000         164.000
  24191546.430   -13532884.23149 -10517373.67845  24191545.631    24191558.684
       209.000         142.000
  22459086.440   -10216252.54649  -7937700.85746  22459085.848    22459094.371
       229.000         182.000
  22017141.383     8001398.62849   6434728.58846  22017141.400    22017149.962
       231.000         185.000
  20801967.357     -907472.99449   -673764.56747  20801967.837    20801974.209
       244.000         209.000
  20935713.422    -1233094.41149   -931001.66847  20935712.688    20935720.391
       242.000         205.000
  21359281.387    -9595569.21549  -7455390.25247  21359281.417    21359288.186
       238.000         200.000
 03  5  5 17 36 30.0000000  0  8G24G21G29G17G 5G30G10G 6
  24068711.946    10717728.01649   8357717.25845  24068712.297    24068723.432
       213.000         148.000
  23061611.574   -10246762.67249  -7960105.43846  23061610.889    23061618.604
       224.000         164.000
  24178354.045   -13602209.95949 -10571393.57145  24178353.384    24178365.929
       209.000         143.000
  22448886.633   -10269852.66249  -7979467.14546  22448886.130    22448895.086
       229.000         182.000
  22033916.204     8089550.50149   6503418.26946  22033916.287    22033923.880
       232.000         185.000
  20809329.531     -868784.81649   -643617.97047  20809330.081    20809336.577
       244.000         209.000
  20943186.927    -1193821.02549   -900399.06847  20943186.244    20943194.119
       242.000         205.000
  21348442.453    -9652528.14449  -7499773.82147  21348442.271    21348449.518
       238.000         200.000
 03  5  5 17 37  0.0000000  0  8G24G21G29G17G 5G30G10G 6
  24083499.195    10795435.40049   8418268.35545  24083499.800    24083510.350
       212.000         147.000
  23049033.576   -10312859.96949  -8011609.79046  23049032.737    23049040.217
       224.000         164.000
  24165182.467   -13671426.66849 -10625328.51945  24165181.313    24165193.427
       209.000         144.000
  22438726.777   -10323243.05449  -8021070.02346  22438725.623    22438735.421
       229.000         182.000
  22050746.879     8177996.05549   6572336.78246  22050746.876    22050755.027
       231.000         185.000
  20816796.216     -829547.48449   -613043.46447  20816796.712    20816803.220
       244.000         209.000
  20950769.583    -1153974.16949   -869349.61047  20950769.014    20950776.681
       241.000         205.000
  21337635.695    -9709318.07649  -7544025.71747  21337635.682    21337643.074
       238.000         200.000
 03  5  5 17 37 30.0000000  0  8G24G21G29G17G 5G30G10G 6
  24098278.859    10873102.42249   8478788.00745  24098278.819    24098290.263
       213.000         148.000
  23036491.558   -10378768.79549  -8062967.25446  23036490.799    23036498.324
       223.000         164.000
  24152032.320   -13740530.62949 -10679175.59145  24152031.996    24152043.970
       208.000         143.000
  22428606.914   -10376423.28949  -8062509.14046  22428605.979    22428615.082
       229.000         182.000
  22067633.061     8266733.14449   6641482.47246  22067632.596    22067641.084
       230.000         184.000
  20824367.226     -789761.79949   -582041.66947  20824367.580    20824374.038
       244.000         209.000
  20958461.110    -1113555.16449   -837854.32847  20958460.490    20958468.324
       242.000         204.000
  21326861.463    -9765936.79649  -7588144.19447  21326861.381    21326868.816
       238.000         200.000
 03  5  5 17 38  0.0000000  0  8G24G21G29G17G 5G30G10G 6
  24113050.520    10950727.33349   8539274.84645  24113051.572    24113061.387
       212.000         147.000
  23023985.067   -10444490.82749  -8114179.16846  23023984.237    23023990.402
       222.000         164.000
  24138903.885   -13809520.36249 -10732933.65145  24138902.615    24138914.685
       210.000         144.000
  22418526.710   -10429395.11849  -8103785.86646  22418526.207    22418534.786
       229.000         183.000
  22084574.011     8355757.77449   6710852.21446  22084573.328    22084581.797
       231.000         184.000
  20832041.993     -749430.72249   -550614.89447  20832042.477    20832048.913
       244.000         208.000
  20966260.884    -1072567.15849   -805915.66647  20966260.220    20966267.884
       241.000         204.000
  21316119.910    -9822384.05449  -7632129.06547  21316119.727    21316127.411
       239.000         201.000
 03  5  5 17 38 30.0000000  0  8G24G21G29G17G 5G30G10G 6
  24127813.953    11028309.25449   8599728.19345  24127813.712    24127825.510
       213.000         148.000
  23011514.035   -10510026.03949  -8165245.51346  23011512.242    23011521.775
       222.000         164.000
  24125797.794   -13878392.74049 -10786600.28745  24125798.237    24125809.201
       209.000         145.000
  22408486.016   -10482159.12749  -8144900.64746  22408485.019    22408494.305
       230.000         183.000
  22101569.129     8445067.35949   6780444.00046  22101568.592    22101577.739
       230.000         183.000
  20839820.211     -708555.96849   -518764.47947  20839820.652    20839826.914
       244.000         208.000
  20974168.519    -1031012.37049   -773535.35747  20974167.936    20974175.604
       241.000         204.000
  21305411.325    -9878658.22449  -7675979.06147  21305411.201    21305418.409
       239.000         201.000
 03  5  5 17 39  0.0000000  0  8G24G21G29G17G 5G30G10G 6
  24142569.252    11105848.56849   8660148.32545  24142568.717    24142580.979
       213.000         147.000
  22999078.750   -10575373.64949  -8216165.68046  22999078.259    22999085.033
       223.000         165.000
  24112714.747   -13947143.93549 -10840172.49345  24112714.155    24112726.118
       209.000         145.000
  22398485.056   -10534714.59149  -8185852.93946  22398485.141    22398493.221
       229.000         183.000
  22118618.142     8534660.00849   6850256.36046  22118618.419    22118626.391
       230.000         183.000
  20847701.818     -667137.93249   -486490.72747  20847702.226    20847708.528
       244.000         208.000
  20982183.884     -988891.49849   -740713.94747  20982183.337    20982191.054
       241.000         204.000
  21294736.152    -9934756.78449  -7719692.21347  21294735.981    21294743.243
       239.000         201.000
 03  5  5 17 39 30.0000000  0  8G24G21G29G17G 5G30G10G 6
  24157316.325    11183344.61049   8720534.76145  24157316.768    24157328.122
       213.000         148.000
  22986679.164   -10640533.77049  -8266939.75346  22986678.604    22986685.794
       223.000         165.000
  24099655.362   -14015771.15449 -10893648.10345  24099654.806    24099666.823
       207.000         145.000
  22388523.710   -10587061.76449  -8226642.92046  22388522.648    22388531.852
       230.000         183.000
  22135720.431     8624532.92449   6920287.09046  22135719.870    22135728.368
       230.000         182.000
  20855686.491     -625178.40949   -453795.04247  20855687.078    20855693.537
       244.000         208.000
  20990306.644     -946206.31449   -707452.80947  20990305.734    20990313.795
       240.000         204.000
  21284094.608    -9990678.28649  -7763267.40247  21284094.668    21284101.576
       239.000         201.000
 03  5  5 17 40  0.0000000  0  8G24G21G29G17G 5G30G10G 6
  24172055.081    11260796.61649   8780886.87645  24172055.494    24172066.836
       213.000         148.000
  22974315.304   -10705506.33549  -8317567.68046  22974314.683    22974321.868
       223.000         165.000
  24086620.049   -14084270.98349 -10947024.43245  24086619.650    24086631.183
       210.000         146.000
  22378602.035   -10639200.55849  -8267270.53946  22378601.856    22378610.122
       230.000         183.000
  22152875.619     8714683.71749   6990534.35946  22152875.733    22152884.745
       230.000         182.000
  20863773.932     -582678.76249   -420678.47947  20863774.370    20863780.875
       244.000         208.000
  20998536.449     -902958.53949   -673753.29247  20998535.666    20998543.582
       241.000         203.000
  21273487.171   -10046420.79849  -7806703.11747  21273487.321    21273494.042
       239.000         201.000
 03  5  5 17 40 30.0000000  0  8G24G21G29G17G 5G30G10G 6
  24186785.392    11338204.31149   8841204.46945  24186786.066    24186796.500
       214.000         148.000
  22961987.152   -10770290.97249  -8368049.17046  22961985.778    22961993.828
       224.000         164.000
  24073609.619   -14152640.55349 -11000299.27145  24073609.377    24073621.263
       211.000         146.000
  22368719.985   -10691131.20349  -8307735.95346  22368719.258    22368727.591
       230.000         184.000
  22170083.203     8805109.78049   7060996.11946  22170083.221    22170091.659
       230.000         181.000
  20871963.898     -539640.45349   -387142.18147  20871964.400    20871970.928
       244.000         208.000
  21006872.909     -859150.18949   -639616.96347  21006872.265    21006880.367
       240.000         203.000
  21262914.161   -10101982.35249  -7849997.82547  21262913.881    21262921.143
       239.000         201.000
 03  5  5 17 41  0.0000000  0  8G24G21G29G17G 5G30G10G 6
  24201507.022    11415566.70649   8901486.76545  24201507.795    24201518.985
       213.000         148.000
  22949694.648   -10834888.25249  -8418384.67446  22949693.118    22949701.320
       223.000         165.000
  24060624.490   -14220877.17549 -11053470.51245  24060623.477    24060636.119
       211.000         147.000
  22358877.324   -10742854.65149  -8348039.91646  22358876.592    22358884.864
       231.000         184.000
  22187342.595     8895808.04749   7131669.98546  22187342.662    22187350.839
       230.000         181.000
  20880255.955     -496065.56949   -353187.77547  20880256.449    20880263.048
       244.000         208.000
  21015315.651     -814783.37949   -605045.47247  21015315.110    21015322.779
       240.000         203.000
  21252375.764   -10157361.83249  -7893150.65947  21252375.517    21252383.159
       239.000         202.000
 03  5  5 17 41 30.0000000  0  8G24G21G29G17G 5G30G10G 6
  24216219.981    11492883.47549   8961733.50845  24216220.409    24216230.976
       214.000         149.000
  22937437.824   -10899298.14749  -8468574.14446  22937437.512    22937444.932
       224.000         166.000
  24047665.336   -14288977.74149 -11106535.74445  24047664.978    24047676.649
       211.000         147.000
  22349074.109   -10794370.88449  -8388182.41546  22349073.468    22349082.239
       231.000         184.000
  22204653.300     8986775.91949   7202553.93546  22204653.188    22204661.965
       229.000         180.000
  20888649.847     -451955.67249   -318816.47247  20888650.278    20888656.921
       244.000         208.000
  21023864.301     -769860.02549   -570040.30847  21023863.692    21023871.599
       240.000         203.000
  21241872.379   -10212557.52549  -7936160.28347  21241872.318    21241879.073
       239.000         202.000
 03  5  5 17 42  0.0000000  0  8G24G21G29G17G 5G30G10G 6
  24230924.095    11570154.05749   9021944.25645  24230924.270    24230936.169
       215.000         148.000
  22925216.660   -10963520.49449  -8518617.49346  22925216.533    22925223.280
       225.000         166.000
  24034732.610   -14356939.11849 -11159492.51645  24034731.302    24034744.161
       208.000         147.000
  22339310.283   -10845680.03049  -8428163.56046  22339309.738    22339318.534
       230.000         184.000
  22222014.840     9078010.92749   7273646.02746  22222014.769    22222023.289
       229.000         180.000
  20897145.212     -407312.28449   -284029.46447  20897145.677    20897152.143
       244.000         208.000
  21032518.442     -724382.28849   -534603.16647  21032517.861    21032525.846
       240.000         202.000
  21231404.325   -10267567.57649  -7979025.25547  21231404.135    21231411.501
       239.000         202.000
 03  5  5 17 42 30.0000000  0  8G24G21G29G17G 5G30G10G 6
  24245619.369    11647377.62449   9082118.35645  24245619.527    24245631.382
       213.000         148.000
  22913031.195   -11027555.66449  -8568515.00146  22913030.539    22913037.308
       224.000         166.000
  24021826.889   -14424758.59949 -11212338.70445  24021826.196    24021839.288
       209.000         146.000
  22329585.740   -10896782.95749  -8467984.00246  22329584.830    22329593.909
       231.000         185.000
  22239426.626     9169510.10749   7344943.97946  22239426.655    22239435.357
       228.000         180.000
  20905741.738     -362137.39849   -248828.30247  20905742.076    20905748.724
       244.000         207.000
  21041277.711     -678352.09749   -498735.53747  21041276.987    21041285.054
       239.000         202.000
  21220971.850   -10322390.42149  -8021744.34447  21220971.507    21220978.888
       239.000         202.000
 03  5  5 17 43  0.0000000  0  8G24G21G29G17G 5G30G10G 6
  24260305.486    11724553.19649   9142255.07045  24260305.310    24260317.055
       214.000         148.000
  22900881.150   -11091404.54749  -8618267.34846  22900881.030    22900887.552
       225.000         167.000
  24008948.658   -14492433.55549 -11265072.29045  24008948.311    24008960.163
       209.000         147.000
  22319900.324   -10947680.27849  -8507644.23546  22319899.855    22319908.260
       231.000         185.000
  22256888.048     9261270.21649   7416445.25446  22256887.827    22256897.057
       228.000         180.000
  20914439.007     -316433.21049   -213214.69747  20914439.415    20914446.068
       244.000         207.000
  21050141.667     -631771.84949   -462439.29047  21050141.041    21050149.398
       239.000         202.000
  21210575.256   -10377024.96249  -8064316.70447  21210574.945    21210582.283
       239.000         202.000
 03  5  5 17 43 30.0000000  0  8G24G21G29G17G 5G30G10G 6
  24274982.499    11801680.91749   9202354.48645  24274982.249    24274993.340
       212.000         148.000
  22888766.724   -11155066.24249  -8667873.83746  22888765.967    22888773.119
       225.000         167.000
  23996098.579   -14559960.39049 -11317690.44945  23996098.397    23996110.326
       210.000         147.000
  22310254.160   -10998371.00749  -8547143.49346  22310253.493    22310261.760
       230.000         185.000
  22274398.792     9353289.34149   7488148.34946  22274398.585    22274407.609
       228.000         179.000
  20923236.802     -270200.73449   -177189.44547  20923237.214    20923244.002
       244.000         207.000
  21059110.045     -584642.94349   -425715.51647  21059109.362    21059117.393
       239.000         202.000
  21200215.003   -10431468.56649  -8106740.28047  21200214.837    21200222.239
       240.000         202.000
 03  5  5 17 44  0.0000000  0  8G24G21G29G17G 5G30G10G 6
  24289650.224    11878760.00749   9262416.00045  24289649.775    24289661.856
       207.000         147.000
  22876687.864   -11218541.07349  -8717334.71046  22876687.299    22876693.382
       225.000         167.000
  23983277.341   -14627336.06649 -11370190.82345  23983276.723    23983288.132
       211.000         147.000
  22300647.149   -11048856.07449  -8586482.48646  22300646.554    22300654.777
       231.000         185.000
  22291958.297     9445564.66449   7560051.08346  22291958.089    22291967.163
       228.000         179.000
  20932134.775     -223441.75349   -140753.92247  20932135.174    20932141.966
       244.000         207.000
  21068182.335     -536967.91949   -388566.19847  21068181.801    21068189.756
       240.000         202.000
  21189891.311   -10485719.86849  -8149014.01047  21189891.274    21189898.448
       240.000         202.000
 03  5  5 17 44 30.0000000  0  8G24G21G29G17G 5G30G10G 6
  24304308.613    11955790.02349   9322439.28345  24304308.877    24304320.724
       212.000         147.000
  22864644.460   -11281829.48949  -8766650.34446  22864644.186    22864651.518
       226.000         168.000
  23970485.418   -14694557.89649 -11422571.31745  23970485.568    23970496.671
       212.000         148.000
  22291079.166   -11099136.04249  -8625661.66746  22291079.247    22291086.787
       231.000         185.000
  22309566.083     9538093.43549   7632151.31246  22309566.099    22309574.881
       229.000         179.000
  20941132.557     -176158.22149   -103909.66747  20941132.905    20941139.587
       244.000         207.000
  21077358.239     -488748.47749   -350992.66047  21077357.699    21077365.689
       239.000         202.000
  21179604.556   -10539777.08349  -8191136.50347  21179604.405    21179611.718
       240.000         203.000
 03  5  5 17 45  0.0000000  0  9G24G21G29G17G26G 5G30G10G 6
  24318957.093    12032767.90749   9382421.94545  24318957.546    24318968.127
       212.000         148.000
  22852636.320   -11344932.72849  -8815821.66946  22852635.759    22852643.933
       226.000         169.000
  23957722.855   -14761625.20449 -11474831.42345  23957723.013    23957734.339
       212.000         148.000
  22281549.749   -11149213.51049  -8664683.05646  22281548.875    22281557.861
       231.000         185.000
  24316279.999   -11801750.49459  -9153821.18744  24316279.020    24316294.436
       200.000         129.000
  22327221.045     9630870.34349   7704444.88446  22327221.296    22327229.595
       228.000         178.000
  20950229.385     -128354.33349    -66659.93747  20950229.778    20950236.405
       244.000         207.000
  21086636.890     -439989.17949   -312998.44847  21086636.126    21086644.388
       239.000         201.000
  21169354.613   -10593640.92849  -8233108.31847  21169354.531    21169361.728
       240.000         203.000
 03  5  5 17 45 30.0000000  0  9G24G21G29G17G26G 5G30G10G 6
  24333595.864    12109694.24649   9442364.41445  24333596.682    24333608.702
       210.000         147.000
  22840663.408   -11407850.86349  -8864848.76746  22840662.768    22840669.696
       226.000         169.000
  23944990.385   -14828534.03049 -11526968.05245  23944989.868    23945001.700
       211.000         148.000
  22272059.014   -11199087.56849  -8703545.95546  22272058.465    22272067.030
       231.000         186.000
  24299068.363   -11892197.48849  -9224299.09444  24299066.286    24299084.759
       204.000         130.000
  22344922.848     9723893.60549   7776930.42246  22344922.002    22344930.731
       227.000         178.000
  20959425.058      -80031.03749    -29005.48147  20959425.552    20959432.134
       244.000         207.000
  21096018.019     -390691.26149   -274584.54047  21096017.501    21096025.319
       239.000         201.000
  21159141.939   -10647308.78449  -8274927.41747  21159141.831    21159149.082
       239.000         203.000
 03  5  5 17 46  0.0000000  0  9G24G21G29G17G26G 5G30G10G 6
  24348225.174    12186571.55749   9502268.67845  24348224.605    24348237.812
       212.000         147.000
  22828726.163   -11470581.24349  -8913729.56146  22828725.842    22828732.746
       225.000         169.000
  23932289.251   -14895278.45449 -11578976.58545  23932288.921    23932300.038
       210.000         148.000
  22262607.428   -11248755.66249  -8742248.36146  22262606.848    22262615.171
       231.000         186.000
  24281850.395   -11982677.33949  -9294802.62644  24281851.094    24281862.887
       203.000         131.000
  22362671.605     9817163.70549   7849608.30446  22362671.365    22362680.503
       227.000         177.000
  20968719.801      -31187.12349      9054.65347  20968720.137    20968726.915
       243.000         206.000
  21105501.872     -340853.66949   -235750.09947  21105501.226    21105509.390
       240.000         201.000
  21148967.490   -10700775.91549  -8316590.10947  21148967.325    21148974.745
       240.000         203.000
 03  5  5 17 46 30.0000000  0  9G24G21G29G17G26G 5G30G10G 6
  24362845.059    12263398.85249   9562133.97145  24362844.404    24362856.988
       210.000         147.000
  22816824.727   -11533123.78549  -8962463.98446  22816824.861    22816831.024
       226.000         170.000
  23919619.826   -14961855.86449 -11630854.95845  23919619.842    23919631.564
       209.000         148.000
  22253194.854   -11298218.94049  -8780791.16846  22253194.264    22253202.671
       231.000         186.000
  24264626.712   -12073187.44749  -9365329.74744  24264626.669    24264639.766
       203.000         131.000
  22380466.753     9910677.44549   7922476.02646  22380466.445    22380476.028
       227.000         177.000
  20978113.181       18175.34849     47518.85747  20978113.654    20978120.347
       243.000         206.000
  21115087.915     -290478.88749   -196497.06847  21115087.359    21115095.174
       240.000         202.000
  21138831.479   -10754040.96249  -8358095.33147  21138831.282    21138838.576
       240.000         203.000
 03  5  5 17 47  0.0000000  0  9G24G21G29G17G26G 5G30G10G 6
  24377454.847    12340173.36949   9621958.14245  24377454.459    24377467.594
       210.000         147.000
  22804958.584   -11595480.76749  -9011053.81646  22804958.476    22804965.627
       226.000         171.000
  23906982.413   -15028265.10349 -11682602.30145  23906982.091    23906994.345
       212.000         148.000
  22243820.855   -11347479.51249  -8819176.02846  22243819.784    22243828.730
       231.000         186.000
  24247397.388   -12163726.76249  -9435879.64844  24247397.356    24247409.713
       204.000         131.000
  22398307.366    10004430.04249   7995529.87246  22398307.155    22398315.489
       226.000         176.000
  20987604.464       68052.25049     86383.91547  20987604.724    20987611.801
       243.000         206.000
  21124775.343     -239571.22849   -156828.80747  21124774.613    21124782.939
       239.000         202.000
  21128733.834   -10807104.44349  -8399443.48947  21128733.912    21128740.768
       240.000         203.000
 03  5  5 17 47 30.0000000  0  9G24G21G29G17G26G 5G30G10G 6
  24392054.915    12416896.83949   9681742.51545  24392054.832    24392066.902
       210.000         147.000
  22793128.067   -11657650.32649  -9059497.59946  22793128.216    22793134.320
       227.000         171.000
  23894377.962   -15094501.43349 -11734214.91345  23894377.587    23894389.569
       212.000         150.000
  22234485.837   -11396535.42649  -8857401.40546  22234485.206    22234493.698
       231.000         186.000
  24230163.538   -12254290.01049  -9506448.16845  24230163.367    24230177.119
       204.000         132.000
  22416193.230    10098420.85449   8068769.33746  22416193.312    22416202.394
       226.000         176.000
  20997193.692      118443.78349    125649.98447  20997194.305    20997200.813
       243.000         206.000
  21134564.175     -188130.79749   -116745.39447  21134563.496    21134571.604
       239.000         201.000
  21118675.268   -10859962.48649  -8440631.55947  21118675.215    21118682.389
       240.000         203.000
 03  5  5 17 48  0.0000000  0  9G24G21G29G17G26G 5G30G10G 6
  24406645.053    12493567.75449   9741485.94945  24406645.071    24406657.566
       209.000         147.000
  22781332.968   -11719633.69849  -9107796.30346  22781332.642    22781339.998
       227.000         171.000
  23881806.887   -15160562.70149 -11785691.13145  23881806.599    23881817.701
       212.000         151.000
  22225189.491   -11445388.14349  -8895468.45546  22225189.002    22225197.284
       232.000         187.000
  24212925.594   -12344874.93349  -9577033.58145  24212925.810    24212939.169
       204.000         133.000
  22434123.854    10192646.08349   8142191.46846  22434124.259    22434133.672
       226.000         176.000
  21006880.258      169346.87349    165314.66147  21006880.719    21006887.430
       243.000         206.000
  21144453.779     -136160.67649    -76249.24347  21144453.290    21144461.382
       240.000         202.000
  21108655.947   -10912614.34049  -8481658.97447  21108655.912    21108662.914
       240.000         204.000
 03  5  5 17 48 30.0000000  0  9G24G21G29G17G26G 5G30G10G 6
  24421225.222    12570186.60849   9801188.80945  24421225.328    24421238.049
       209.000         147.000
  22769573.415   -11781430.48049  -9155949.61946  22769572.833    22769580.059
       227.000         172.000
  23869269.660   -15226445.45349 -11837028.23545  23869269.878    23869281.303
       212.000         151.000
  22215931.826   -11494037.58549  -8933377.11146  22215931.561    22215939.581
       233.000         187.000
  24195684.291   -12435477.90949  -9647633.06445  24195683.757    24195698.819
       207.000         134.000
  22452098.617    10287103.55349   8215794.56246  22452098.406    22452107.954
       226.000         176.000
  21016663.961      220760.17549    205376.92147  21016664.446    21016671.176
       242.000         205.000
  21154443.921      -83662.62749    -35341.70947  21154443.394    21154451.240
       240.000         202.000
  21098676.299   -10965057.75149  -8522523.95947  21098676.210    21098683.317
       240.000         204.000
 03  5  5 17 49  0.0000000  0  9G24G21G29G17G26G 5G30G10G 6
  24435795.152    12646751.79249   9860849.81645  24435795.271    24435806.843
       209.000         147.000
  22757849.239   -11843041.34049  -9203958.05646  22757848.849    22757856.070
       227.000         171.000
  23856766.836   -15292147.75549 -11888224.74645  23856765.985    23856778.314
       211.000         151.000
  22206712.609   -11542485.05149  -8971128.38146  22206712.283    22206721.061
       232.000         187.000
  24178440.028   -12526096.67549  -9718244.84345  24178440.654    24178454.316
       205.000         134.000
  22470116.926    10381789.70849   8289575.86146  22470117.072    22470126.963
       226.000         176.000
  21026544.144      272680.85549    245834.53047  21026544.586    21026551.525
       243.000         205.000
  21164533.849      -30639.94449      5974.63047  21164533.328    21164541.409
       240.000         201.000
  21088736.440   -11017291.92049  -8563225.89547  21088736.202    21088743.611
       240.000         204.000
 03  5  5 17 49 30.0000000  0  9G24G21G29G17G26G 5G30G10G 6
  24450354.815    12723262.89149   9920468.71045  24450355.471    24450366.361
       208.000         146.000
  22746160.550   -11904465.76449  -9251821.22346  22746159.641    22746167.420
       227.000         172.000
  23844299.033   -15357666.29549 -11939278.06145  23844298.755    23844309.989
       212.000         151.000
  22197531.725   -11590730.79349  -9008722.47346  22197531.319    22197539.781
       232.000         187.000
  24161193.318   -12616727.90749  -9788866.34145  24161191.735    24161206.640
       206.000         134.000
  22488178.159    10476701.65449   8363533.08246  22488177.619    22488187.652
       227.000         176.000
  21036520.540      325107.02049    286686.02847  21036520.960    21036527.765
       243.000         205.000
  21174723.164       22905.13549     47698.03447  21174722.495    21174730.604
       240.000         201.000
  21078836.804   -11069314.95849  -8603763.31847  21078836.485    21078843.817
       240.000         204.000
 03  5  5 17 50  0.0000000  0  9G24G21G29G17G26G 5G30G10G 6
  24464904.037    12799719.04649   9980044.75645  24464903.440    24464915.792
       207.000         145.000
  22734507.056   -11965705.17249  -9299540.21746  22734506.499    22734513.474
       228.000         172.000
  23831866.695   -15422998.59249 -11990186.25745  23831866.362    23831878.284
       214.000         151.000
  22188389.122   -11638775.41049  -9046159.83247  22188388.608    22188396.938
       232.000         188.000
  24143944.836   -12707368.67749  -9859495.24245  24143944.405    24143957.456
       209.000         134.000
  22506281.859    10571836.44349   8437663.95646  22506281.815    22506291.503
       225.000         176.000
  21046592.678      378036.13649    327929.43847  21046593.177    21046600.040
       243.000         205.000
  21185011.456       76970.17649     89826.60647  21185010.712    21185019.047
       240.000         201.000
  21068977.545   -11121125.59449  -8644135.22947  21068977.360    21068984.772
       240.000         204.000
 03  5  5 17 50 30.0000000  0  9G24G21G29G17G26G 5G30G10G 6
  24479442.923    12876121.01349  10039578.60245  24479442.565    24479455.454
       207.000         143.000
  22722888.810   -12026759.50349  -9347115.00346  22722888.372    22722894.925
       227.000         173.000
  23819470.448   -15488140.65649 -12040946.20645  23819469.734    23819481.425
       213.000         151.000
  22179284.875   -11686618.52949  -9083440.19247  22179284.391    22179292.824
       233.000         188.000
  24126695.261   -12798014.91049  -9930128.42845  24126694.467    24126707.691
       208.000         135.000
  22524427.542    10667192.13549   8511966.95246  22524426.934    22524436.913
       225.000         176.000
  21056760.383      431467.43649    369564.15747  21056760.788    21056767.653
       242.000         205.000
  21195398.417      131553.79649    132359.26647  21195397.741    21195405.651
       239.000         201.000
  21059159.237   -11172721.03849  -8684339.45247  21059159.068    21059166.288
       241.000         204.000
 03  5  5 17 51  0.0000000  0  9G24G21G29G17G26G 5G30G10G 6
  24493971.245    12952467.22949  10099068.97045  24493972.246    24493984.713
       206.000         142.000
  22711305.753   -12087628.91749  -9394545.69446  22711304.811    22711312.051
       227.000         173.000
  23807110.894   -15553090.36549 -12091556.26445  23807110.400    23807121.744
       214.000         151.000
  22170218.777   -11734261.25249  -9120564.39347  22170218.037    22170226.955
       233.000         188.000
  24109445.035   -12888664.29049 -10000764.04845  24109443.779    24109457.892
       208.000         136.000
  22542614.595    10762765.35849   8586439.44546  22542614.413    22542624.101
       225.000         175.000
  21067022.999      485397.73749    411587.70447  21067023.613    21067030.271
       242.000         205.000
  21205883.432      186652.87149    175293.57647  21205882.893    21205891.147
       240.000         201.000
  21049382.115   -11224100.27849  -8724375.21547  21049382.056    21049389.211
       241.000         204.000
 03  5  5 17 51 30.0000000  0  9G24G21G29G17G26G 5G30G10G 6
  24508489.063    13028758.31149  10158516.38345  24508490.295    24508500.742
       206.000         142.000
  22699758.059   -12148312.38249  -9441831.49346  22699757.435    22699763.998
       227.000         173.000
  23794788.560   -15617843.93249 -12142013.46945  23794788.271    23794799.641
       214.000         151.000
  22161190.844   -11781703.46249  -9157532.35647  22161190.237    22161198.251
       233.000         188.000
  24092195.001   -12979312.77349 -10071398.97545  24092193.781    24092208.502
       208.000         135.000
  22560842.717    10858554.06949   8661079.86446  22560842.244    22560852.340
       226.000         175.000
  21077380.404      539825.92449    453999.21947  21077380.813    21077387.583
       243.000         205.000
  21216466.318      242265.99949    218628.44547  21216465.626    21216473.938
       239.000         200.000
  21039646.608   -11275260.69549  -8764240.45847  21039646.656    21039653.415
       241.000         204.000
 03  5  5 17 52  0.0000000  0  9G24G21G29G17G26G 5G30G10G 6
  24522996.189    13104992.75349  10217919.66645  24522996.893    24523007.804
       207.000         141.000
  22688245.548   -12208810.84649  -9488973.13446  22688245.614    22688251.776
       228.000         174.000
  23782504.032   -15682399.31949 -12192316.27145  23782504.005    23782514.781
       214.000         151.000
  22152200.893   -11828946.08949  -9194344.80347  22152200.241    22152208.820
       234.000         189.000
  24074945.724   -13069957.68849 -10142031.12445  24074945.582    24074958.258
       207.000         135.000
  22579111.178    10954554.78249   8735885.47746  22579111.356    22579120.022
       225.000         175.000
  21087832.055      594749.22549    496796.54047  21087832.597    21087839.508
       242.000         205.000
  21227146.382      298390.02349    262361.42047  21227145.793    21227153.731
       239.000         200.000
  21029952.935   -11326201.21149  -8803934.34947  21029952.837    21029959.965
       241.000         205.000
 03  5  5 17 52 30.0000000  0  9G24G21G29G17G26G 5G30G10G 6
  24537492.552    13181170.97049  10277279.13845  24537493.267    24537504.292
       208.000         142.000
  22676768.054   -12269125.34249  -9535971.42846  22676766.891    22676774.477
       228.000         174.000
  23770257.960   -15746753.05549 -12242461.91645  23770257.123    23770269.286
       214.000         151.000
  22143248.944   -11875988.71949  -9231001.40447  22143248.378    22143256.711
       233.000         189.000
  24057697.661   -13160595.51149 -10212657.77645  24057697.712    24057710.940
       206.000         135.000
  22597419.461    11050765.04549   8810854.37646  22597418.962    22597428.616
       225.000         174.000
  21098377.537      650165.79949    539978.22247  21098378.277    21098384.880
       242.000         204.000
  21237923.327      355023.03149    306491.00547  21237922.432    21237930.837
       239.000         199.000
  21020301.495   -11376919.83249  -8843455.33647  21020301.318    21020308.542
       241.000         205.000
 03  5  5 17 53  0.0000000  0  9G24G21G29G17G26G 5G30G10G 6
  24551978.193    13257292.32449  10336594.28445  24551978.009    24551990.349
       207.000         142.000
  22665325.722   -12329255.14349  -9582825.79746  22665325.372    22665332.825
       228.000         174.000
  23758050.707   -15810902.26049 -12292448.20145  23758050.504    23758060.639
       213.000         151.000
  22134334.965   -11922832.24849  -9267502.86047  22134334.559    22134342.856
       233.000         189.000
  24040451.557   -13251223.03549 -10283276.38845  24040450.952    24040464.763
       207.000         135.000
  22615767.108    11147182.04249   8885984.35546  22615766.920    22615776.626
       225.000         174.000
  21109016.464      706073.57849    583542.66747  21109017.072    21109023.839
       242.000         204.000
  21248796.655      412162.66549    351015.36247  21248796.025    21248803.936
       238.000         199.000
  21010692.630   -11427414.72949  -8882801.99047  21010692.520    21010699.596
       241.000         205.000
 03  5  5 17 53 30.0000000  0  9G24G21G29G17G26G 5G30G10G 6
  24566452.903    13333356.88649  10395865.15845  24566453.248    24566465.971
       209.000         142.000
  22653918.736   -12389199.32649  -9629535.54146  22653918.149    22653925.308
       228.000         174.000
  23745882.868   -15874843.63449 -12342272.54245  23745883.037    23745893.565
       213.000         150.000
  22125458.843   -11969476.63349  -9303849.14147  22125458.454    22125466.765
       232.000         189.000
  24023208.214   -13341836.68649 -10353884.23145  24023206.080    24023222.008
       207.000         136.000
  22634153.662    11243803.35149   8961273.53846  22634153.761    22634162.958
       225.000         173.000
  21119748.550      762470.75449    627488.44947  21119749.012    21119755.708
       242.000         204.000
  21259765.983      469806.81549    395932.84647  21259765.431    21259773.661
       238.000         199.000
  21001126.791   -11477683.71049  -8921972.60647  21001126.533    21001133.850
       241.000         205.000
 03  5  5 17 54  0.0000000  0  9G24G21G29G17G26G 5G30G10G 6
  24580916.705    13409363.44749  10455090.84745  24580917.305    24580929.591
       208.000         141.000
  22642546.854   -12448958.76349  -9676101.30846  22642545.942    22642553.723
       228.000         174.000
  23733755.112   -15938575.08149 -12391933.29145  23733755.443    23733765.568
       214.000         150.000
  22116620.392   -12015923.00549  -9340041.12547  22116619.703    22116628.204
       233.000         189.000
  24005967.825   -13432434.08749 -10424479.39945  24005968.134    24005980.855
       209.000         136.000
  22652578.338    11340625.14749   9036718.95546  22652577.717    22652587.969
       224.000         173.000
  21130573.157      819354.22049    671813.16547  21130573.588    21130580.628
       242.000         204.000
  21270830.680      527952.02149    441240.76947  21270829.901    21270838.085
       238.000         199.000
  20991604.037   -11527725.94649  -8960966.53247  20991603.685    20991610.985
       241.000         205.000
 03  5  5 17 54 30.0000000  0  9G24G21G29G17G26G 5G30G10G 6
  24595369.255    13485311.43049  10514270.92545  24595369.250    24595381.953
       211.000         141.000
  22631209.835   -12508534.87149  -9722524.23046  22631209.410    22631216.672
       228.000         174.000
  23721667.838   -16002093.66449 -12441428.19745  23721667.901    23721677.878
       213.000         150.000
  22107819.474   -12062172.14649  -9376079.42047  22107818.696    22107827.551
       232.000         189.000
  23988731.375   -13523012.04649 -10495059.44245  23988730.517    23988744.530
       209.000         136.000
  22671040.715    11437644.98649   9112318.67846  22671040.735    22671049.703
       225.000         173.000
  21141489.903      876721.78249    716515.09547  21141490.411    21141497.276
       242.000         204.000
  21281990.325      586596.30249    486937.57647  21281989.615    21281997.653
       238.000         198.000
  20982124.782   -11577539.80749  -8999782.51047  20982124.577    20982131.707
       243.000         206.000
 03  5  5 17 55  0.0000000  0  9G24G21G29G17G26G 5G30G10G 6
  24609810.711    13561200.99949  10573405.44345  24609812.082    24609823.772
       210.000         140.000
  22619907.930   -12567926.78449  -9768803.62846  22619907.144    22619914.382
       229.000         175.000
  23709621.776   -16065395.73749 -12490754.40045  23709621.910    23709633.162
       215.000         152.000
  22099056.242   -12108223.28849  -9411963.43647  22099055.762    22099063.638
       233.000         189.000
  23971499.327   -13613566.46349 -10565621.14045  23971499.106    23971512.215
       208.000         137.000
  22689540.388    11534860.75649   9188071.07746  22689540.118    22689549.942
       225.000         173.000
  21152498.462      934572.11749    761593.20647  21152499.210    21152506.123
       242.000         203.000
  21293244.521      645737.75749    533021.78247  21293243.914    21293252.252
       238.000         197.000
  20972689.474   -11627122.72149  -9038418.52947  20972689.449    20972696.547
       243.000         206.000
 03  5  5 17 55 30.0000000  0  9G24G21G29G17G26G 5G30G10G 6
  24624240.726    13637030.24449  10632492.94945  24624239.324    24624253.458
       211.000         139.000
  22608640.677   -12627136.45649  -9814941.02146  22608640.014    22608646.894
       228.000         175.000
  23697617.161   -16128480.06949 -12539910.93245  23697616.302    23697627.843
       215.000         152.000
  22090330.284   -12154078.68749  -9447694.91747  22090329.853    22090338.473
       233.000         190.000
  23954272.039   -13704095.77049 -10636163.26645  23954272.402    23954285.251
       208.000         138.000
  22708076.429    11632267.83249   9263972.53946  22708076.676    22708086.110
       225.000         173.000
  21163598.173      992901.12249    807044.31447  21163598.695    21163605.956
       242.000         203.000
  21304592.595      705372.22549    579490.16247  21304591.778    21304600.369
       238.000         197.000
  20963298.106   -11676474.57249  -9076874.49447  20963297.971    20963305.059
       242.000         206.000
 03  5  5 17 56  0.0000000  0  9G24G21G29G17G26G 5G30G10G 6
  24638659.615    13712801.29749  10691535.16245  24638659.041    24638673.436
       212.000         139.000
  22597408.571   -12686161.61349  -9860934.63246  22597408.110    22597415.334
       227.000         175.000
  23685655.030   -16191341.18749 -12588893.54845  23685654.672    23685665.226
       213.000         153.000
  22081641.933   -12199736.47449  -9483272.41747  22081641.568    22081650.105
       233.000         190.000
  23937050.513   -13794594.18549 -10706681.34245  23937050.615    23937063.916
       206.000         140.000
  22726648.842    11729865.86449   9340022.80746  22726648.848    22726658.476
       225.000         172.000
  21174788.992     1051708.97049    852868.54647  21174789.558    21174796.688
       242.000         203.000
  21316034.491      765499.52549    626342.55847  21316033.627    21316041.892
       238.000         197.000
  20953951.534   -11725591.18749  -9115147.16247  20953951.251    20953958.532
       243.000         206.000
 03  5  5 17 56 30.0000000  0  9G24G21G29G17G26G 5G30G10G 6
  24653067.263    13788513.16149  10750531.21145  24653067.037    24653079.325
       212.000         139.000
  22586211.344   -12745003.23449  -9906785.23646  22586210.862    22586217.983
       228.000         175.000
  23673735.695   -16253977.23849 -12637700.78445  23673735.794    23673745.879
       214.000         153.000
  22072990.986   -12245197.69149  -9518696.74447  22072990.277    22072998.998
       234.000         190.000
  23919835.349   -13885059.22149 -10777173.39345  23919835.572    23919847.098
       208.000         140.000
  22745256.919    11827651.50749   9416219.25946  22745256.816    22745266.636
       224.000         172.000
  21186070.378     1110992.81749    899063.68247  21186070.868    21186077.878
       241.000         203.000
  21327569.553      826116.66149    673576.64647  21327569.011    21327577.205
       237.000         197.000
  20944649.896   -11774471.53249  -9153235.73247  20944649.741    20944656.864
       243.000         206.000
 03  5  5 17 57  0.0000000  0  9G24G21G29G17G26G 5G30G10G 6
  24667463.647    13864165.88749  10809481.16045  24667464.750    24667476.805
       213.000         139.000
  22575049.122   -12803661.09749  -9952492.65146  22575048.419    22575056.175
       229.000         175.000
  23661859.927   -16316384.85449 -12686330.02645  23661859.665    23661870.935
       214.000         153.000
  22064377.383   -12290462.41549  -9553967.96547  22064376.940    22064385.661
       233.000         190.000
  23902627.343   -13975487.11649 -10847636.50645  23902626.466    23902640.667
       208.000         141.000
  22763900.250    11925622.32449   9492560.00046  22763900.070    22763910.328
       223.000         171.000
  21197441.999     1170750.83849    945628.31147  21197442.416    21197449.701
       241.000         203.000
  21339197.539      887221.81349    721191.00747  21339196.851    21339205.532
       238.000         197.000
  20935393.628   -11823113.39449  -9191138.46147  20935393.439    20935400.535
       243.000         206.000
 03  5  5 17 57 30.0000000  0  9G24G21G29G17G26G 5G30G10G 6
  24681848.672    13939759.02549  10868384.71945  24681849.781    24681861.114
       212.000         138.000
  22563921.796   -12862135.54349  -9998057.15246  22563921.292    22563928.094
       230.000         175.000
  23650028.101   -16378561.18249 -12734779.02945  23650028.116    23650037.895
       215.000         154.000
  22055801.039   -12335531.33949  -9589086.61247  22055800.687    22055808.656
       233.000         190.000
  23885427.062   -14065874.82949 -10918068.30045  23885426.593    23885441.600
       211.000         142.000
  22782578.211    12023775.14249   9569042.55546  22782578.279    22782588.285
       224.000         170.000
  21208903.349     1230980.35649    992560.33247  21208903.901    21208910.809
       242.000         203.000
  21350917.790      948811.80749    769183.16247  21350917.058    21350925.452
       237.000         198.000
  20926183.073   -11871515.20449  -9228854.14147  20926182.915    20926189.860
       242.000         207.000
 03  5  5 17 58  0.0000000  0  9G24G21G29G17G26G 5G30G10G 6
  24696222.134    14015291.45949  10927240.95945  24696221.082    24696233.343
       214.000         137.000
  22552829.284   -12920426.82849 -10043478.93646  22552829.091    22552835.553
       229.000         176.000
  23638240.813   -16440503.74549 -12783045.89445  23638240.217    23638251.629
       215.000         154.000
  22047261.811   -12380405.17849  -9624053.23947  22047261.279    22047269.613
       233.000         190.000
  23868234.969   -14156219.32549 -10988466.44445  23868234.425    23868246.757
       210.000         142.000
  22801290.280    12122106.86349   9645664.50746  22801290.845    22801299.946
       223.000         170.000
  21220453.915     1291678.76949   1039857.72647  21220454.335    21220461.504
       241.000         203.000
  21362729.761     1010883.96749    817551.03247  21362729.450    21362737.511
       238.000         198.000
  20917018.498   -11919675.36849  -9266381.52747  20917018.290    20917025.474
       243.000         207.000
 03  5  5 17 58 30.0000000  0  9G24G21G29G17G26G 5G30G10G 6
  24710584.061    14090763.21549  10986049.93545  24710584.888    24710595.804
       213.000         135.000
  22541771.529   -12978535.39949 -10088758.32746  22541771.426    22541778.066
       230.000         175.000
  23626498.515   -16502209.37149 -12831128.12445  23626498.396    23626509.339
       215.000         154.000
  22038759.659   -12425084.28149  -9658868.12347  22038759.015    22038767.272
       233.000         190.000
  23851051.645   -14246517.39449 -11058828.40645  23851052.030    23851064.107
       208.000         142.000
  22820035.820    12220614.75649   9722423.74246  22820035.938    22820045.621
       222.000         169.000
  21232093.344     1352843.87649   1087518.77347  21232093.777    21232100.785
       241.000         202.000
  21374632.994     1073435.69649    866292.58447  21374632.200    21374640.510
       238.000         198.000
  20907900.247   -11967592.12849  -9303719.25447  20907900.132    20907906.957
       243.000         207.000
 03  5  5 17 59  0.0000000  0  9G24G21G29G17G26G 5G30G10G 6
  24724934.520    14166174.35949  11044811.69245  24724934.034    24724946.795
       213.000         134.000
  22530748.673   -13036461.11149 -10133895.23246  22530748.807    22530755.038
       230.000         176.000
  23614801.935   -16563675.05149 -12879023.39645  23614800.973    23614813.136
       215.000         155.000
  22030294.494   -12469568.81949  -9693531.39947  22030294.195    22030302.768
       234.000         190.000
  23833877.905   -14336765.19849 -11129151.20345  23833878.209    23833890.724
       208.000         143.000
  22838814.326    12319296.30749   9799318.28146  22838813.678    22838823.610
       222.000         168.000
  21243821.174     1414473.65249   1135541.90847  21243821.778    21243828.981
       242.000         202.000
  21386627.136     1136465.01949    915406.28747  21386626.596    21386634.888
       238.000         198.000
  20898828.704   -12015263.34549  -9340865.65047  20898828.442    20898835.382
       243.000         207.000
 03  5  5 17 59 30.0000000  0  9G24G21G29G17G26G 5G30G10G 6
  24739273.212    14241523.94349  11103525.45745  24739273.258    24739286.618
       212.000         134.000
  22519760.425   -13094204.77749 -10178890.30046  22519760.454    22519767.439
       229.000         176.000
  23603151.441   -16624898.48649 -12926729.90345  23603151.039    23603161.371
       213.000         155.000
  22021866.246   -12513859.71449  -9728043.79047  22021865.949    22021874.336
       233.000         190.000
  23816714.308   -14426959.90549 -11199432.64045  23816714.072    23816726.752
       208.000         143.000
  22857625.334    12418148.27649   9876345.62546  22857624.936    22857635.752
       222.000         168.000
  21255636.857     1476565.12649   1183924.80647  21255637.289    21255644.345
       241.000         202.000
  21398711.543     1199968.78149    964889.68447  21398711.021    21398719.275
       238.000         198.000
  20889804.107   -12062687.81049  -9377819.77847  20889804.179    20889811.082
       243.000         207.000
 03  5  5 18  0  0.0000000  0  9G24G21G29G17G26G 5G30G10G 6
  24753600.235    14316812.12349  11162191.36445  24753601.328    24753612.477
       213.000         133.000
  22508806.857   -13151766.21949 -10223743.35846  22508806.038    22508813.869
       230.000         176.000
  23591547.613   -16685876.30649 -12974245.02145  23591547.512    23591557.483
       214.000         155.000
  22013474.790   -12557957.14149  -9762405.42947  22013474.429    22013482.276
       234.000         191.000
  23799561.557   -14517098.00949 -11269669.97545  23799561.746    23799574.675
       209.000         144.000
  22876468.366    12517168.21149   9953503.84946  22876468.570    22876477.773
       221.000         167.000
  21267540.031     1539116.35549   1232665.95547  21267540.368    21267547.502
       242.000         202.000
  21410885.769     1263944.60749   1014740.92347  21410885.143    21410893.635
       238.000         198.000
  20880826.916   -12109863.28949  -9414579.88147  20880826.714    20880833.874
       242.000         207.000
 03  5  5 18  0 30.0000000  0  9G24G21G29G17G26G 5G30G10G 6
  24767915.518    14392038.31349  11220808.99345  24767917.707    24767926.765
       212.000         133.000
  22497887.857   -13209145.90349 -10268454.78646  22497887.656    22497894.163
       230.000         177.000
  23579991.075   -16746605.97749 -13021566.78945  23579990.992    23580001.958
       215.000         155.000
  22005120.054   -12601861.82349  -9796616.87747  22005119.423    22005127.797
       234.000         191.000
  23782420.141   -14607176.35049 -11339860.74545  23782419.554    23782433.388
       208.000         143.000
  22895342.729    12616352.96949  10030790.50546  22895342.514    22895353.037
       221.000         166.000
  21279530.165     1602124.56049   1281763.18447  21279530.777    21279537.611
       241.000         202.000
  21423149.359     1328389.80349   1064957.89847  21423148.873    21423157.021
       238.000         198.000
  20871897.408   -12156788.21049  -9451144.75147  20871897.186    20871904.215
       242.000         207.000
 03  5  5 18  1  0.0000000  0  9G24G21G29G17G26G 5G30G10G 6
  24782218.951    14467202.32949  11279378.14045  24782220.716    24782232.594
       212.000         135.000
  22487003.478   -13266343.90849 -10313024.65846  22487003.421    22487009.914
       231.000         177.000
  23568482.428   -16807084.37049 -13068692.74945  23568482.199    23568494.147
       215.000         155.000
  21996801.916   -12645573.94849  -9830678.26747  21996801.381    21996810.036
       234.000         191.000
  23765290.733   -14697191.30349 -11410002.11345  23765289.862    23765304.067
       206.000         142.000
  22914247.984    12715700.00649  10108203.59946  22914248.236    22914258.175
       221.000         166.000
  21291606.838     1665587.69249   1331214.89747  21291607.077    21291614.265
       242.000         201.000
  21435501.818     1393302.05749   1115538.81547  21435501.311    21435509.588
       238.000         198.000
  20863015.918   -12203460.63649  -9487512.87447  20863015.925    20863022.782
       242.000         207.000
 03  5  5 18  1 30.0000000  0  9G24G21G29G17G26G 5G30G10G 6
  24796510.409    14542303.89349  11337898.60545  24796510.323    24796523.614
       210.000         136.000
  22476153.579   -13323360.58549 -10357453.22946  22476152.463    22476160.628
       230.000         177.000
  23557022.105   -16867308.57349 -13115620.63545  23557022.513    23557032.796
       215.000         156.000
  21988520.347   -12689093.91549  -9864589.92547  21988519.884    21988528.208
       234.000         191.000
  23748173.944   -14787139.51849 -11480091.48045  23748172.342    23748186.698
       207.000         142.000
  22933183.651    12815206.67649  10185741.09146  22933183.607    22933194.117
       220.000         165.000
  21303769.685     1729503.44249   1381019.30547  21303770.137    21303777.085
       241.000         201.000
  21447942.633     1458678.70249   1166481.59047  21447942.129    21447950.511
       237.000         197.000
  20854182.849   -12249878.65349  -9523682.75347  20854182.750    20854189.874
       242.000         207.000
 03  5  5 18  2  0.0000000  0 10G24G21G29G17G26G 5G18G30G10G 6
  24810790.123    14617343.05749  11396370.51145  24810790.517    24810804.875
       212.000         138.000
  22465338.106   -13380196.07849 -10401740.61946  22465338.200    22465344.843
       230.000         177.000
  23545610.630   -16927276.03549 -13162348.46445  23545610.163    23545621.491
       217.000         156.000
  21980275.163   -12732422.73849  -9898352.63247  21980275.022    21980282.997
       234.000         191.000
  23731070.571   -14877017.82849 -11550126.38545  23731071.371    23731083.069
       208.000         142.000
  22952149.097    12914870.03949  10263400.67546  22952149.048    22952158.785
       221.000         165.000
  24777152.748    -5276654.60359  -4082920.79545  24777151.135    24777163.270
       210.000         134.000
  21316018.082     1793868.91849   1431174.15247  21316018.607    21316025.487
       241.000         201.000
  21460471.289     1524517.11849   1217784.18947  21460470.635    21460478.952
       238.000         197.000
  20845398.524   -12296040.62949  -9559653.11447  20845398.441    20845405.386
       242.000         207.000
 03  5  5 18  2 30.0000000  0 10G24G21G29G17G26G 5G18G30G10G 6
  24825055.988    14692309.55349  11454785.75345  24825055.122    24825068.430
       211.000         139.000
  22454555.360   -13436859.79449 -10445894.15746  22454554.845    22454562.399
       230.000         177.000
  23534246.835   -16986993.26149 -13208881.30845  23534247.160    23534257.740
       215.000         156.000
  21972064.465   -12775570.09249  -9931973.94447  21972063.887    21972072.510
       234.000         191.000
  23713979.389   -14966832.40949 -11620111.62145  23713979.034    23713992.696
       207.000         143.000
  22971141.988    13014677.64249  10341172.65146  22971141.710    22971151.366
       219.000         165.000
  24756283.035    -5386324.92949  -4168378.01345  24756281.833    24756294.202
       210.000         135.000
  21328349.788     1858672.41449   1481670.30447  21328350.210    21328357.314
       241.000         201.000
  21473085.509     1590805.04249   1269437.05147  21473084.913    21473093.601
       236.000         196.000
  20836661.438   -12341954.34749  -9595430.04147  20836661.350    20836668.380
       242.000         207.000
 03  5  5 18  3  0.0000000  0 10G24G21G29G17G26G 5G18G30G10G 6
  24839310.622    14767217.51649  11513155.38245  24839311.932    24839325.387
       210.000         139.000
  22443807.910   -13493338.07149 -10489903.19746  22443807.915    22443814.387
       229.000         177.000
  23522933.862   -17046443.15249 -13255205.83045  23522934.162    23522944.298
       215.000         156.000
  21963890.940   -12818522.27249  -9965443.17247  21963890.375    21963898.535
       234.000         192.000
  23696903.720   -15056565.32949 -11690033.25045  23696904.025    23696916.292
       207.000         143.000
  22990164.478    13114641.07849  10419066.05746  22990164.320    22990174.249
       220.000         164.000
  24735426.255    -5495927.74349  -4253782.65345  24735425.871    24735438.532
       210.000         137.000
  21340767.175     1923925.77249   1532517.00647  21340767.704    21340774.849
       241.000         201.000
  21485787.548     1657554.43949   1321449.50047  21485786.939    21485795.507
       236.000         196.000
  20827974.710   -12387603.36449  -9631000.70947  20827974.653    20827981.765
       242.000         207.000
 03  5  5 18  3 30.0000000  0 10G24G21G29G17G26G 5G18G30G10G 6
  24853553.434    14842063.61649  11571476.79345  24853554.382    24853567.866
       209.000         137.000
  22433094.979   -13549634.70249 -10533770.69346  22433094.262    22433101.396
       230.000         178.000
  23511671.654   -17105626.08449 -13301322.34145  23511671.768    23511682.409
       214.000         156.000
  21955753.909   -12861282.58249  -9998762.89147  21955753.618    21955761.996
       234.000         192.000
  23679843.411   -15146216.73149 -11759891.34445  23679843.106    23679855.912
       208.000         144.000
  23009215.490    13214754.11249  10497076.02246  23009216.131    23009225.799
       220.000         164.000
  24714582.106    -5605464.27149  -4339135.64245  24714580.492    24714594.237
       210.000         138.000
  21353269.052     1989623.22949   1583709.74347  21353269.469    21353276.695
       241.000         201.000
  21498576.217     1724759.14049   1373816.73147  21498575.336    21498583.943
       236.000         196.000
  20819338.031   -12432989.46549  -9666366.50647  20819337.872    20819344.944
       242.000         208.000
 03  5  5 18  4  0.0000000  0 10G24G21G29G17G26G 5G18G30G10G 6
  24867784.614    14916848.26549  11629750.32545  24867784.691    24867798.681
       203.000         138.000
  22422416.866   -13605748.65549 -10577495.84646  22422417.124    22422423.810
       230.000         178.000
  23500460.889   -17164538.60949 -13347228.14245  23500461.179    23500470.748
       215.000         156.000
  21947653.527   -12903850.43749 -10031932.65347  21947652.896    21947661.206
       235.000         192.000
  23662799.452   -15235782.32549 -11829682.60345  23662799.425    23662812.403
       207.000         143.000
  23028294.676    13315014.91249  10575201.13746  23028294.743    23028305.179
       220.000         164.000
  24693751.093    -5714931.43449  -4424434.56245  24693750.133    24693762.240
       208.000         139.000
  21365855.079     2055763.00649   1635247.15247  21365855.806    21365862.897
       241.000         200.000
  21511451.204     1792417.31649   1426537.31247  21511450.433    21511459.103
       235.000         195.000
  20810751.903   -12478109.85949  -9701525.26147  20810751.756    20810758.839
       242.000         208.000
 03  5  5 18  4 30.0000000  0 10G24G21G29G17G26G 5G18G30G10G 6
  24882004.059    14991570.78349  11687975.45345  24882004.087    24882018.139
       205.000         137.000
  22411773.227   -13661681.29849 -10621079.72246  22411772.363    22411780.574
       229.000         178.000
  23489302.068   -17223178.36249 -13392921.39445  23489302.065    23489313.360
       215.000         156.000
  21939589.407   -12946227.75849 -10064953.94047  21939589.079    21939597.386
       235.000         192.000
  23645772.489   -15325259.34549 -11899404.82145  23645772.952    23645785.640
       209.000         145.000
  23047401.310    13415419.95249  10653438.62846  23047401.446    23047412.299
       222.000         164.000
  24672933.489    -5824327.89549  -4509678.41645  24672932.694    24672946.350
       208.000         139.000
  21378524.663     2122341.91349   1687126.73647  21378525.155    21378532.754
       240.000         200.000
  21524411.837     1860525.78749   1479608.77647  21524411.330    21524420.028
       235.000         195.000
  20802216.542   -12522963.46749  -9736476.13447  20802216.425    20802223.426
       242.000         208.000
 03  5  5 18  5  0.0000000  0  9G21G29G17G26G 5G18G30G10G 6
  22401163.800   -13717434.17449 -10664523.51646  22401163.607    22401170.278
       230.000         178.000
  23478195.360   -17281544.20349 -13438401.20145  23478194.724    23478206.156
       214.000         156.000
  21931561.054   -12988416.88049 -10097828.58547  21931560.457    21931569.079
       235.000         192.000
  23628762.631   -15414646.12949 -11969056.73745  23628763.268    23628774.666
       210.000         145.000
  23066534.497    13515964.66349  10731784.97546  23066534.590    23066545.022
       221.000         164.000
  24652129.425    -5933653.19749  -4594866.81745  24652128.417    24652142.282
       205.000         140.000
  21391277.034     2189355.73349   1739345.21147  21391277.607    21391284.877
       241.000         200.000
  21537457.325     1929080.17549   1533027.70647  21537456.769    21537465.225
       236.000         194.000
  20793731.953   -12567550.27649  -9771219.11247  20793731.939    20793738.906
       242.000         208.000
 03  5  5 18  5 30.0000000  0  9G21G29G17G26G 5G18G30G10G 6
  22390588.626   -13773007.01649 -10707827.01746  22390588.338    22390595.322
       230.000         178.000
  23467141.392   -17339632.79449 -13483664.99645  23467140.717    23467152.197
       216.000         156.000
  21923568.665   -13030417.17949 -10130556.09947  21923567.930    21923576.492
       235.000         192.000
  23611770.763   -15503938.45949 -12038635.05445  23611770.881    23611782.987
       210.000         145.000
  23085693.817    13616647.14349  10810238.65646  23085694.386    23085704.657
       220.000         163.000
  24631339.628    -6042904.32849  -4679997.41845  24631338.619    24631351.942
       206.000         140.000
  21404111.827     2256802.67749   1791901.19547  21404112.231    21404119.742
       241.000         200.000
  21550587.380     1998078.58549   1586792.63047  21550586.629    21550595.513
       236.000         194.000
  20785298.675   -12611867.53349  -9805752.04447  20785298.597    20785305.733
       242.000         208.000
 03  5  5 18  6  0.0000000  0  9G21G29G17G26G 5G18G30G10G 6
  22380047.811   -13828399.22949 -10750989.77546  22380047.605    22380054.034
       230.000         179.000
  23456140.926   -17397440.59849 -13528709.97845  23456140.882    23456151.306
       214.000         155.000
  21915612.297   -13072228.07349 -10163136.01047  21915612.008    21915620.264
       235.000         192.000
  23594797.572   -15593132.43049 -12108136.73945  23594796.662    23594810.490
       209.000         146.000
  23104879.006    13717465.09149  10888797.89446  23104878.435    23104889.366
       219.000         163.000
  24610564.366    -6152078.50849  -4765068.06645  24610563.451    24610575.572
       203.000         139.000
  21417028.676     2324680.96349   1844793.28347  21417029.329    21417036.484
       241.000         200.000
  21563801.467     2067518.60449   1640901.66047  21563800.971    21563809.373
       236.000         194.000
  20776917.103   -12655912.95649  -9840073.16147  20776917.030    20776924.027
       242.000         208.000
 03  5  5 18  6 30.0000000  0  9G21G29G17G26G 5G18G30G10G 6
  22369541.248   -13883611.47949 -10794012.30046  22369540.839    22369548.116
       230.000         179.000
  23445194.270   -17454965.39249 -13573534.45445  23445194.170    23445204.010
       215.000         155.000
  21907691.715   -13113851.02949 -10195569.48747  21907691.041    21907699.916
       235.000         193.000
  23577843.734   -15682225.27449 -12177559.60845  23577843.908    23577856.470
       210.000         147.000
  23124089.275    13818415.03949  10967459.99645  23124089.346    23124100.000
       219.000         162.000
  24589804.040    -6261174.22149  -4850077.55745  24589803.303    24589814.968
       202.000         138.000
  21430027.057     2392987.29349   1898018.90747  21430027.401    21430034.924
       240.000         199.000
  21577098.967     2137397.05549   1695352.32747  21577098.536    21577106.663
       236.000         194.000
  20768587.537   -12699685.26649  -9874181.45447  20768587.506    20768594.544
       242.000         208.000
 03  5  5 18  7  0.0000000  0  9G21G29G17G26G 5G18G30G10G 6
  22359068.815   -13938644.66949 -10836895.30546  22359068.609    22359076.256
       231.000         179.000
  23434302.024   -17512204.28449 -13618136.12145  23434302.050    23434313.009
       215.000         155.000
  21899806.837   -13155286.46949 -10227856.84247  21899806.080    21899814.347
       235.000         193.000
  23560909.874   -15771213.17049 -12246900.70245  23560910.041    23560921.943
       209.000         147.000
  23143324.198    13919494.41949  11046222.94845  23143324.420    23143334.945
       219.000         161.000
  24569059.160    -6370188.75649  -4935023.78245  24569058.775    24569070.879
       203.000         137.000
  21443106.415     2461719.35749   1951576.26947  21443106.956    21443114.138
       240.000         199.000
  21590479.450     2207711.70549   1750142.88547  21590478.423    21590487.523
       235.000         194.000
  20760310.296   -12743182.39049  -9908075.32347  20760310.206    20760317.269
       242.000         208.000
 03  5  5 18  7 30.0000000  0  9G21G29G17G26G 5G18G30G10G 6
  22348630.431   -13993498.72649 -10879638.71546  22348629.566    22348636.946
       231.000         179.000
  23423464.664   -17569154.61349 -13662512.93345  23423463.743    23423475.741
       216.000         155.000
  21891957.508   -13196534.98349 -10259998.55347  21891956.524    21891965.422
       234.000         193.000
  23543996.536   -15860092.99549 -12316157.57945  23543995.721    23544008.810
       209.000         148.000
  23162583.165    14020700.26249  11125084.42745  23162583.057    23162594.317
       219.000         161.000
  24548329.958    -6479120.67749  -5019905.65045  24548328.876    24548341.432
       203.000         138.000
  21456266.224     2530874.28149   2005463.13547  21456266.706    21456273.921
       241.000         199.000
  21603942.330     2278459.38149   1805270.86447  21603941.892    21603950.136
       236.000         194.000
  20752085.723   -12786402.82149  -9941753.59647  20752085.700    20752092.796
       242.000         208.000
 03  5  5 18  8  0.0000000  0  9G21G29G17G26G 5G18G30G10G 6
  22338226.120   -14048173.99849 -10922242.82346  22338225.868    22338232.924
       231.000         179.000
  23412682.787   -17625813.55549 -13706662.70945  23412682.607    23412693.416
       215.000         155.000
  21884143.649   -13237597.19649 -10291995.09147  21884143.363    21884151.629
       235.000         193.000
  23527104.354   -15948861.30849 -12385327.56445  23527104.305    23527116.452
       209.000         148.000
  23181865.712    14122029.68449  11204042.22245  23181865.319    23181875.850
       220.000         161.000
  24527616.873    -6587967.65449  -5104721.30045  24527615.915    24527627.289
       201.000         137.000
  21469505.989     2600449.44749   2059677.46447  21469506.680    21469513.928
       241.000         198.000
  21617487.158     2349637.57649   1860734.32047  21617486.695    21617495.178
       235.000         194.000
  20743914.174   -12829344.70349  -9975214.80747  20743914.137    20743921.069
       242.000         208.000
 03  5  5 18  8 30.0000000  0  9G21G29G17G26G 5G18G30G10G 6
  22327855.722   -14102670.64249 -10964707.73446  22327855.178    22327862.942
       230.000         180.000
  23401956.831   -17682178.78049 -13750583.59445  23401956.303    23401967.660
       215.000         155.000
  21876365.072   -13278474.00749 -10323847.16047  21876364.588    21876372.952
       234.000         193.000
  23510233.997   -16037515.00749 -12454408.26845  23510234.024    23510246.202
       210.000         148.000
  23201171.194    14223479.54249  11283093.85245  23201170.784    23201182.895
       218.000         161.000
  24506920.431    -6696727.92349  -5189469.38745  24506919.683    24506932.106
       203.000         137.000
  21482825.199     2670442.04849   2114217.06647  21482825.649    21482833.304
       240.000         198.000
  21631113.325     2421243.23649   1916530.86647  21631113.012    21631121.520
       237.000         194.000
  20735795.909   -12872006.56549 -10008457.82147  20735795.817    20735802.880
       242.000         208.000
 03  5  5 18  9  0.0000000  0  9G21G29G17G26G 5G18G30G10G 6
  22317519.277   -14156989.04749 -11007033.77146  22317518.543    22317526.085
       231.000         180.000
  23391287.279   -17738247.21449 -13794273.22545  23391286.809    23391298.029
       214.000         155.000
  21868621.780   -13319165.19549 -10355554.60047  21868621.338    21868629.471
       235.000         193.000
  23493386.305   -16126050.43249 -12523396.79145  23493386.317    23493399.035
       209.000         149.000
  23220499.084    14325047.55649  11362237.54545  23220498.583    23220510.251
       217.000         161.000
  24486240.974    -6805398.85149  -5274147.86945  24486239.609    24486252.661
       202.000         137.000
  21496223.406     2740849.74649   2169080.10747  21496223.974    21496231.285
       241.000         198.000
  21644820.391     2493273.83149   1972658.51647  21644819.823    21644828.232
       236.000         194.000
  20727731.344   -12914386.18249 -10041480.91047  20727731.100    20727738.388
       242.000         208.000
 03  5  5 18  9 30.0000000  0  9G21G29G17G26G 5G18G30G10G 6
  22307216.558   -14211130.21949 -11049221.70246  22307215.486    22307223.736
       231.000         180.000
  23380674.695   -17794016.25749 -13837729.54645  23380674.636    23380685.329
       215.000         155.000
  21860913.716   -13359671.53949 -10387117.99947  21860913.225    21860921.873
       235.000         194.000
  23476561.518   -16214464.35749 -12592290.64945  23476562.024    23476575.230
       210.000         149.000
  23239848.843    14426730.47349  11441470.75845  23239849.407    23239860.137
       217.000         161.000
  24465578.756    -6913978.62049  -5358755.29545  24465578.482    24465590.553
       201.000         137.000
  21509700.019     2811669.40049   2224264.15847  21509700.334    21509707.956
       240.000         198.000
  21658607.714     2565726.25049   2029114.87147  21658606.978    21658615.723
       236.000         193.000
  20719720.763   -12956482.12149 -10074282.94847  20719720.466    20719727.808
       243.000         208.000
 03  5  5 18 10  0.0000000  0  9G21G29G17G26G 5G18G30G10G 6
  22296947.631   -14265093.86449 -11091271.29646  22296947.235    22296953.719
       230.000         180.000
  23370119.735   -17849482.98149 -13880950.30845  23370119.903    23370130.530
       217.000         155.000
  21853240.700   -13399993.34349 -10418537.61147  21853240.157    21853248.675
       235.000         193.000
  23459760.558   -16302753.06949 -12661086.97245  23459760.756    23459772.939
       211.000         148.000
  23259220.015    14528525.78949  11520791.56745  23259219.897    23259231.591
       218.000         161.000
  24444934.297    -7022464.76549  -5443289.74745  24444934.444    24444945.323
       207.000         138.000
  21523254.610     2882898.93049   2279767.59147  21523254.911    21523262.692
       240.000         197.000
  21672474.878     2638598.14349   2085898.08947  21672474.058    21672482.877
       236.000         193.000
  20711764.603   -12998292.04749 -10106862.12647  20711764.544    20711771.486
       242.000         208.000
 03  5  5 18 10 30.0000000  0  9G21G29G17G26G 5G18G30G10G 6
  22286712.392   -14318880.20749 -11133182.73346  22286711.751    22286718.787
       231.000         180.000
  23359622.898   -17904644.03149 -13923932.88045  23359622.880    23359633.332
       215.000         156.000
  21845602.839   -13440130.55749 -10449813.37847  21845602.824    21845610.996
       235.000         194.000
  23442984.417   -16390912.22149 -12729782.27145  23442984.070    23442997.324
       212.000         149.000
  23278612.195    14630431.43249  11600198.33045  23278612.392    23278622.374
       219.000         161.000
  24424308.178    -7130854.56949  -5527749.13045  24424307.044    24424320.142
       203.000         137.000
  21536886.738     2954536.06449   2335588.63847  21536887.343    21536894.573
       240.000         197.000
  21686421.426     2711887.47449   2143006.58047  21686420.733    21686429.618
       235.000         193.000
  20703863.273   -13039813.71849 -10139216.68447  20703863.214    20703870.284
       242.000         208.000
 03  5  5 18 11  0.0000000  0  9G21G29G17G26G 5G18G30G10G 6
  22276510.981   -14372488.86349 -11174955.71346  22276510.982    22276517.623
       231.000         181.000
  23349184.657   -17959497.30149 -13966675.61645  23349183.926    23349194.923
       215.000         156.000
  21837999.928   -13480084.18249 -10480946.08047  21837999.577    21838008.215
       235.000         194.000
  23426233.377   -16478939.30849 -12798374.70145  23426233.406    23426245.488
       212.000         150.000
  23298024.756    14732444.07549  11679688.47745  23298025.363    23298035.774
       219.000         161.000
  24403700.792    -7239146.51149  -5612132.25945  24403700.510    24403711.629
       208.000         138.000
  21550595.876     3026577.75049   2391724.92347  21550596.433    21550604.096
       240.000         197.000
  21700446.739     2785590.64249   2200437.54347  21700445.894    21700454.803
       235.000         192.000
  20696017.073   -13081045.87049 -10171345.63947  20696016.986    20696024.250
       242.000         208.000
 03  5  5 18 11 30.0000000  0  9G21G29G17G26G 5G18G30G10G 6
  22266343.384   -14425920.08049 -11216590.44646  22266342.142    22266349.483
       231.000         181.000
  23338805.451   -18014039.98949 -14009176.35845  23338805.111    23338815.409
       216.000         157.000
  21830431.829   -13519855.05249 -10511936.38547  21830431.497    21830439.906
       235.000         194.000
  23409508.061   -16566830.92249 -12866861.57645  23409508.015    23409520.006
       211.000         151.000
  23317457.054    14834560.70549  11759259.65645  23317457.280    23317468.402
       218.000         161.000
  24383112.478    -7347338.51049  -5696437.52045  24383112.263    24383123.277
       208.000         138.000
  21564381.514     3099021.09949   2448174.18147  21564382.059    21564389.399
       240.000         197.000
  21714550.267     2859704.94849   2258188.86847  21714549.480    21714558.522
       235.000         192.000
  20688226.307   -13121986.71549 -10203247.61047  20688226.219    20688233.289
       242.000         208.000
 03  5  5 18 12  0.0000000  0  9G21G29G17G26G 5G18G30G10G 6
  22256209.113   -14479176.02449 -11258088.59446  22256208.557    22256215.977
       231.000         181.000
  23328485.577   -18068271.34149 -14051434.48445  23328485.296    23328496.271
       216.000         157.000
  21822898.025   -13559445.46349 -10542786.07147  21822897.712    21822905.836
       236.000         194.000
  23392808.923   -16654585.21449 -12935241.45145  23392808.316    23392820.808
       214.000         151.000
  23336908.252    14936776.85349  11838908.35945  23336908.444    23336919.685
       218.000         160.000
  24362543.240    -7455430.26249  -5780664.65245  24362543.232    24362554.955
       207.000         138.000
  21578242.658     3171861.61749   2504932.91847  21578243.113    21578250.849
       240.000         197.000
  21728731.150     2934225.91549   2316257.07447  21728730.503    21728739.248
       233.000         191.000
  20680491.013   -13162636.03349 -10234922.41247  20680490.854    20680498.018
       242.000         208.000
 03  5  5 18 12 30.0000000  0  9G21G29G17G26G 5G18G30G10G 6
  22246108.246   -14532256.42949 -11299449.95346  22246107.530    22246115.582
       231.000         181.000
  23318225.935   -18122186.07049 -14093445.90745  23318225.049    23318235.550
       216.000         158.000
  21815398.994   -13598853.41949 -10573493.57347  21815398.584    21815407.257
       235.000         195.000
  23376137.092   -16742196.20949 -13003509.65645  23376137.427    23376148.875
       213.000         151.000
  23356378.369    15039092.27649  11918634.43545  23356378.316    23356390.507
       217.000         160.000
  24341993.935    -7563416.92949  -5864809.89545  24341992.369    24342004.887
       209.000         138.000
  21592179.340     3245099.20249   2562001.06347  21592179.955    21592187.664
       239.000         196.000
  21742989.386     3009153.39149   2374642.03847  21742988.542    21742997.712
       234.000         191.000
  20672811.982   -13202989.61549 -10266366.76747  20672811.970    20672818.845
       242.000         209.000
 03  5  5 18 13  0.0000000  0  9G21G29G17G26G 5G18G30G10G 6
  22236040.957   -14585160.17549 -11340673.66146  22236040.200    22236047.204
       231.000         181.000
  23308027.108   -18175781.03349 -14135208.16845  23308026.619    23308038.777
       216.000         157.000
  21807934.656   -13638078.77249 -10604058.79547  21807934.081    21807942.719
       236.000         195.000
  23359493.291   -16829659.86949 -13071663.06145  23359493.519    23359505.166
       214.000         152.000
  23375866.989    15141504.67949  11998436.06845  23375867.314    23375878.738
       217.000         159.000
  24321465.096    -7671295.90049  -5948871.22545  24321464.590    24321476.411
       209.000         139.000
  21606191.198     3318731.52949   2619376.79447  21606191.625    21606199.485
       239.000         196.000
  21757324.501     3084484.68249   2433341.65647  21757323.718    21757332.781
       233.000         190.000
  20665189.699   -13243045.17949 -10297578.90747  20665189.657    20665196.799
       242.000         209.000
 03  5  5 18 13 30.0000000  0  9G21G29G17G26G 5G18G30G10G 6
  22226007.468   -14637886.46949 -11381759.09346  22226006.896    22226013.609
       231.000         181.000
  23297889.575   -18229053.88449 -14176719.43545  23297889.347    23297899.588
       216.000         157.000
  21800504.999   -13677122.09649 -10634482.16947  21800504.535    21800513.091
       236.000         195.000
  23342877.967   -16916973.23749 -13139699.37145  23342877.372    23342890.459
       214.000         153.000
  23395373.433    15244011.06849  12078310.94145  23395372.830    23395384.668
       215.000         158.000
  24300957.228    -7779065.40049  -6032847.24545  24300956.898    24300967.806
       209.000         140.000
  21620277.560     3392755.74249   2677057.89647  21620278.423    21620285.652
       239.000         196.000
  21771735.909     3160216.83649   2492353.64347  21771735.341    21771744.593
       232.000         190.000
  20657624.400   -13282801.24149 -10328557.66947  20657624.244    20657631.201
       242.000         209.000
 03  5  5 18 14  0.0000000  0  9G21G29G17G26G 5G18G30G10G 6
  22216007.473   -14690436.86849 -11422707.45846  22216007.138    22216014.206
       231.000         181.000
  23287813.627   -18282003.03449 -14217978.45345  23287813.742    23287823.276
       216.000         158.000
  21793109.583   -13715985.20549 -10664765.12447  21793109.284    21793117.752
       236.000         195.000
  23326291.802   -17004133.97649 -13207616.73245  23326291.504    23326305.338
       214.000         152.000
  23414897.090    15346607.43949  12158255.92745  23414897.684    23414908.992
       216.000         157.000
  24280470.324    -7886724.28049  -6116737.09845  24280469.111    24280480.716
       209.000         140.000
  21634437.768     3467167.74949   2735041.17247  21634438.400    21634446.038
       239.000         195.000
  21786222.835     3236345.88149   2551674.88447  21786222.092    21786231.124
       234.000         190.000
  20650116.178   -13322257.12149 -10359302.52747  20650116.092    20650123.284
       243.000         209.000
 03  5  5 18 14 30.0000000  0  9G21G29G17G26G 5G18G30G10G 6
  22206040.676   -14742812.70149 -11463519.80746  22206040.208    22206047.060
       231.000         182.000
  23277799.851   -18334625.56249 -14258982.97145  23277799.565    23277810.627
       217.000         158.000
  21785748.573   -13754667.84349 -10694907.45647  21785748.240    21785756.638
       237.000         195.000
  23309735.347   -17091138.11349 -13275412.08245  23309735.496    23309746.848
       213.000         152.000
  23434437.338    15449291.30049  12238269.07245  23434438.006    23434447.985
       215.000         157.000
  24260004.801    -7994270.46349  -6200539.11345  24260003.629    24260015.339
       212.000         141.000
  21648671.338     3541965.12149   2793324.72847  21648671.946    21648680.023
       239.000         195.000
  21800784.863     3312869.46549   2611303.56847  21800784.211    21800792.364
       233.000         190.000
  20642665.490   -13361410.60949 -10389811.75347  20642665.320    20642672.549
       243.000         209.000
 03  5  5 18 15  0.0000000  0  9G21G29G17G26G 5G18G30G10G 6
  22196107.174   -14795013.76449 -11504195.98246  22196106.825    22196114.017
       232.000         182.000
  23267848.792   -18386918.29249 -14299730.49545  23267848.524    23267859.853
       216.000         158.000
  21778421.780   -13793170.59849 -10724909.61747  21778421.043    21778430.126
       237.000         195.000
  23293209.488   -17177981.71749 -13343082.33945  23293209.826    23293221.603
       215.000         153.000
  23453993.848    15552060.32549  12318348.57945  23453994.278    23454005.216
       216.000         157.000
  24239561.296    -8101701.19849  -6284251.17945  24239561.231    24239571.464
       212.000         142.000
  21662977.809     3617145.77149   2851906.94547  21662978.582    21662986.353
       239.000         195.000
  21815421.507     3389785.24349   2671237.85247  21815421.158    21815429.959
       233.000         189.000
  20635272.849   -13400259.41249 -10420083.56447  20635272.798    20635280.107
       243.000         209.000
 03  5  5 18 15 30.0000000  0  9G21G29G17G26G 5G18G30G10G 6
  22186206.996   -14847039.66849 -11544735.65846  22186206.509    22186214.216
       231.000         182.000
  23257960.992   -18438878.60149 -14340219.00445  23257961.069    23257972.037
       216.000         159.000
  21771129.100   -13831493.82349 -10754771.88747  21771128.651    21771137.279
       236.000         195.000
  23276714.955   -17264661.29449 -13410624.78245  23276714.496    23276726.911
       215.000         153.000
  23473565.996    15654911.65849  12398492.22145  23473566.048    23473577.034
       218.000         157.000
  24219140.174    -8209014.21249  -6367871.53145  24219138.679    24219151.112
       213.000         142.000
  21677356.712     3692706.82849   2910785.57747  21677357.408    21677365.250
       239.000         195.000
  21830132.286     3467090.56249   2731475.67247  21830131.524    21830140.426
       234.000         189.000
  20627938.511   -13438801.73549 -10450116.55947  20627938.405    20627945.476
       243.000         209.000
 03  5  5 18 16  0.0000000  0  9G21G29G17G26G 5G18G30G10G 6
  22176340.028   -14898891.00349 -11585139.30746  22176339.590    22176346.830
       232.000         182.000
  23248136.990   -18490504.03149 -14380446.57345  23248137.319    23248147.086
       217.000         160.000
  21763870.433   -13869638.27349 -10784494.84447  21763869.717    21763878.735
       238.000         195.000
  23260252.194   -17351173.59849 -13478036.89745  23260252.232    23260264.719
       216.000         154.000
  23493153.273    15757842.52249  12478697.84145  23493153.318    23493165.304
       218.000         158.000
  24198741.695    -8316207.90949  -6451398.92045  24198740.201    24198753.004
       213.000         142.000
  21691807.431     3768645.29049   2969958.29047  21691808.214    21691816.064
       238.000         194.000
  21844916.667     3544782.37449   2792014.65547  21844916.329    21844925.424
       234.000         190.000
  20620662.766   -13477035.98149 -10479909.49247  20620662.712    20620669.856
       243.000         209.000
 03  5  5 18 16 30.0000000  0  9G21G29G17G26G 5G18G30G10G 6
  22166506.332   -14950567.61849 -11625406.81246  22166506.337    22166512.937
       232.000         183.000
  23238377.272   -18541791.76549 -14420411.00145  23238377.336    23238387.588
       218.000         160.000
  21756645.700   -13907604.37749 -10814078.83547  21756645.108    21756653.857
       236.000         195.000
  23243821.893   -17437515.03349 -13545315.85945  23243822.047    23243834.809
       216.000         154.000
  23512755.182    15860850.22149  12558963.32745  23512755.758    23512766.386
       218.000         159.000
  24178366.554    -8423279.60549  -6534831.25345  24178366.485    24178377.135
       212.000         142.000
  21706329.443     3844958.53649   3029423.04547  21706329.920    21706337.900
       238.000         194.000
  21859773.966     3622857.64349   2852852.44547  21859773.594    21859782.497
       233.000         189.000
  20613446.028   -13514960.18849 -10509460.84147  20613445.898    20613453.196
       242.000         209.000
 03  5  5 18 17  0.0000000  0  9G21G29G17G26G 5G18G30G10G 6
  22156705.803   -15002070.15349 -11665538.66346  22156705.162    22156712.175
       232.000         183.000
  23228682.219   -18592739.63449 -14460110.60745  23228682.078    23228692.041
       218.000         160.000
  21749454.795   -13945392.83649 -10843524.40147  21749454.226    21749462.691
       237.000         195.000
  23227424.703   -17523682.38349 -13612459.18345  23227424.179    23227436.541
       216.000         154.000
  23532371.173    15963931.80249  12639286.38145  23532372.587    23532382.948
       217.000         159.000
  24158014.793    -8530227.60749  -6618167.21145  24158014.774    24158024.505
       212.000         142.000
  21720922.219     3921643.41549   3089177.37847  21720922.648    21720930.872
       238.000         194.000
  21874703.655     3701313.28449   2913986.62247  21874702.868    21874712.263
       235.000         189.000
  20606288.592   -13552572.82049 -10538769.40647  20606288.503    20606295.683
       243.000         209.000
 03  5  5 18 17 30.0000000  0  9G21G29G17G26G 5G18G30G10G 6
  22146938.310   -15053398.66549 -11705534.91746  22146937.684    22146944.980
       232.000         183.000
  23219052.369   -18643344.88049 -14499543.20845  23219051.905    23219063.186
       218.000         160.000
  21742297.562   -13983004.12149 -10872831.90547  21742297.161    21742305.907
       237.000         195.000
  23211061.337   -17609672.00749 -13679464.00445  23211061.237    23211073.312
       216.000         153.000
  23552000.649    16067084.44449  12719664.81145  23552000.539    23552013.253
       215.000         159.000
  24137687.077    -8637049.79449  -6701405.12245  24137685.338    24137697.769
       214.000         142.000
  21735585.106     3998697.10649   3149219.10047  21735585.497    21735593.778
       238.000         194.000
  21889705.212     3780146.66049   2975415.13147  21889704.543    21889713.464
       233.000         189.000
  20599190.839   -13589871.97649 -10567833.69947  20599190.887    20599197.847
       242.000         209.000
 03  5  5 18 18  0.0000000  0  9G21G29G17G26G 5G18G30G10G 6
  22137203.757   -15104554.08049 -11745396.29646  22137203.603    22137210.755
       233.000         183.000
  23209488.131   -18693604.99849 -14538706.89845  23209487.446    23209498.237
       217.000         160.000
  21735174.001   -14020438.86549 -10902001.85447  21735173.403    21735181.964
       237.000         195.000
  23194732.413   -17695480.45749 -13746327.64645  23194732.111    23194743.626
       216.000         153.000
  23571643.063    16170305.34549  12800096.42145  23571642.731    23571655.243
       217.000         158.000
  24117383.785    -8743744.08949  -6784543.40945  24117382.703    24117394.208
       213.000         143.000
  21750317.642     4076116.75249   3209545.96747  21750318.138    21750325.783
       237.000         193.000
  21904778.127     3859354.97549   3037135.79847  21904777.538    21904786.963
       233.000         189.000
  20592153.026   -13626855.93349 -10596652.38747  20592153.049    20592160.053
       243.000         209.000
 03  5  5 18 18 30.0000000  0  9G21G29G17G26G 5G18G30G10G 6
  22127502.045   -15155536.94749 -11785123.22046  22127501.899    22127508.540
       233.000         184.000
  23199990.232   -18743516.79149 -14577599.15745  23199989.002    23199999.519
       217.000         161.000
  21728083.964   -14057697.16549 -10931034.31247  21728083.641    21728092.056
       237.000         195.000
  23178438.808   -17781103.87649 -13813047.10745  23178438.391    23178450.652
       217.000         154.000
  23591298.170    16273592.38249  12880579.55745  23591297.545    23591310.179
       215.000         156.000
  24097105.302    -8850308.00449  -6867580.11445  24097104.742    24097114.985
       213.000         144.000
  21765119.429     4153900.21849   3270156.34647  21765119.641    21765128.143
       237.000         193.000
  21919921.908     3938935.87649   3099146.79147  21919921.344    21919930.535
       233.000         188.000
  20585175.678   -13663522.25649 -10625223.56747  20585175.799    20585182.660
       243.000         209.000
 03  5  5 18 19  0.0000000  0  9G21G29G17G26G 5G18G30G10G 6
  22117833.203   -15206347.46649 -11824715.83246  22117832.933    22117839.919
       233.000         184.000
  23190559.085   -18793077.17849 -14616217.57045  23190558.730    23190569.638
       219.000         161.000
  21721027.597   -14094778.54849 -10959928.90347  21721026.976    21721035.859
       236.000         195.000
  23162181.200   -17866537.91649 -13879618.99645  23162180.646    23162193.543
       217.000         155.000
  23610965.476    16376943.63649  12961112.74745  23610965.519    23610978.268
       214.000         154.000
  24076852.060    -8956738.60449  -6950512.92545  24076852.352    24076861.981
       214.000         143.000
  21779990.033     4232045.37949   3331048.55247  21779990.426    21779998.680
       237.000         193.000
  21935136.216     4018887.14849   3161446.38947  21935135.841    21935144.778
       233.000         188.000
  20578259.251   -13699868.54249 -10653545.37047  20578259.228    20578266.454
       243.000         210.000
 03  5  5 18 19 30.0000000  0  9G21G29G17G26G 5G18G30G10G 6
  22108197.455   -15256983.71849 -11864172.66346  22108196.884    22108203.938
       233.000         184.000
  23181195.253   -18842284.25249 -14654560.70245  23181195.013    23181205.980
       218.000         162.000
  21714004.657   -14131684.29349 -10988686.64647  21714003.768    21714012.840
       237.000         195.000
  23145960.174   -17951779.90349 -13946041.24245  23145960.165    23145972.246
       218.000         155.000
  23630644.302    16480355.54349  13041693.16945  23630644.555    23630657.148
       212.000         153.000
  24056624.527    -9063034.55449  -7033340.84945  24056624.216    24056634.808
       214.000         143.000
  21794928.760     4310548.37049   3392219.58947  21794929.504    21794937.399
       237.000         192.000
  21950420.282     4099205.19649   3224031.77746  21950419.111    21950428.670
       233.000         187.000
  20571403.883   -13735893.74249 -10681616.97247  20571403.843    20571410.794
       243.000         210.000
 03  5  5 18 20  0.0000000  0 10G21G29G17G26G 5G18G30G10G15G 6
  22098591.709   -15307462.74349 -11903506.97146  22098591.384    22098598.160
       233.000         185.000
  23171896.174   -18891150.99349 -14692638.62845  23171896.290    23171906.624
       217.000         162.000
  21707012.117   -14168430.42049 -11017320.01447  21707011.529    21707020.193
       237.000         196.000
  23129773.331   -18036841.65249 -14012323.03845  23129773.501    23129785.433
       217.000         155.000
  23650331.181    16583809.91449  13122306.69045  23650331.596    23650343.508
       211.000         151.000
  24036420.066    -9169209.22749  -7116074.26045  24036418.684    24036430.364
       213.000         143.000
  21809932.132     4389391.03049   3453655.30447  21809932.588    21809940.642
       237.000         192.000
  21965770.697     4179871.75749   3286888.74346  21965770.464    21965779.356
       232.000         187.000
  24734578.224    -3630588.14759  -1970008.78845  24734577.278    24734589.936
       202.000         135.000
  20564607.090   -13771611.41649 -10709448.93747  20564607.039    20564614.134
       243.000         210.000
 03  5  5 18 20 30.0000000  0 10G21G29G17G26G 5G18G30G10G15G 6
  22089019.830   -15357763.41749 -11942702.30146  22089019.430    22089026.510
       234.000         185.000
  23162666.521   -18939652.92849 -14730432.28645  23162666.640    23162677.557
       219.000         162.000
  21700053.959   -14204995.84449 -11045812.57047  21700053.586    21700062.003
       237.000         196.000
  23113625.623   -18121698.08649 -14078444.83345  23113625.600    23113636.856
       217.000         155.000
  23670029.693    16687325.66649  13202968.03745  23670031.708    23670042.497
       212.000         150.000
  24016243.247    -9275238.71049  -7198694.55545  24016242.621    24016253.311
       212.000         143.000
  21825003.756     4468592.31549   3515370.46647  21825004.684    21825012.220
       237.000         192.000
  21981190.974     4260905.71949   3350031.99046  21981190.828    21981199.565
       231.000         186.000
  24719926.408    -3707583.61249  -2030005.21945  24719925.402    24719935.867
       201.000         132.000
  20557873.247   -13806998.01649 -10737022.92647  20557873.131    20557880.236
       243.000         210.000
 03  5  5 18 21  0.0000000  0 10G21G29G17G26G 5G18G30G10G15G 6
  22079481.444   -15407888.10549 -11981760.49846  22079480.724    22079488.155
       234.000         186.000
  23153506.325   -18987790.13749 -14767941.75245  23153506.751    23153516.324
       219.000         162.000
  21693129.706   -14241383.34649 -11074166.47947  21693129.099    21693137.812
       236.000         196.000
  23097517.190   -18206347.95749 -14144405.67345  23097516.372    23097529.181
       217.000         154.000
  23689738.922    16790897.65949  13283673.20045  23689738.655    23689751.461
       212.000         149.000
  23996093.897    -9381123.32849  -7281201.95745  23996092.101    23996104.924
       209.000         143.000
  21840142.627     4548146.91549   3577360.93647  21840143.333    21840151.368
       237.000         192.000
  21996680.178     4342301.73749   3413457.34746  21996679.666    21996688.546
       231.000         185.000
  24705292.850    -3784482.88449  -2089926.69044  24705292.712    24705304.236
       200.000         130.000
  20551202.310   -13842054.23549 -10764339.47447  20551202.179    20551209.340
       243.000         210.000
 03  5  5 18 21 30.0000000  0 10G21G29G17G26G 5G18G30G10G15G 6
  22069976.126   -15457838.86449 -12020683.17246  22069975.384    22069983.028
       234.000         186.000
  23144415.668   -19035561.38949 -14805166.05646  23144415.095    23144425.405
       218.000         163.000
  21686238.869   -14277594.78349 -11102383.20247  21686238.639    21686246.843
       237.000         196.000
  23081448.572   -18290789.11849 -14210203.89345  23081447.556    23081459.687
       216.000         154.000
  23709458.114    16894521.84649  13364419.05145  23709459.183    23709470.427
       212.000         149.000
  23975972.303    -9486862.32049  -7363595.89745  23975972.400    23975983.037
       210.000         143.000
  21855347.874     4628050.53149   3639623.36647  21855348.507    21855356.580
       237.000         192.000
  22012237.484     4424055.60849   3477161.55946  22012236.915    22012246.244
       230.000         185.000
  24690677.427    -3861287.18649  -2149774.13744  24690677.170    24690689.389
       203.000         131.000
  20544594.317   -13876779.61649 -10791398.22547  20544594.213    20544601.337
       243.000         210.000
 03  5  5 18 22  0.0000000  0 10G21G29G17G26G 5G18G30G10G15G 6
  22060503.672   -15507616.92149 -12059471.26546  22060503.171    22060510.559
       235.000         186.000
  23135394.939   -19082965.26449 -14842104.08046  23135394.640    23135405.238
       218.000         163.000
  21679381.239   -14313632.09849 -11130464.23947  21679380.527    21679389.512
       236.000         196.000
  23065420.084   -18375019.22849 -14275837.66045  23065420.652    23065431.443
       217.000         154.000
  23729186.595    16998194.17549  13445202.40145  23729186.876    23729198.194
       214.000         148.000
  23955878.589    -9592454.88249  -7445875.72245  23955877.491    23955889.041
       210.000         143.000
  21870618.741     4708299.15049   3702154.62747  21870619.155    21870627.915
       236.000         191.000
  22027862.140     4506163.48049   3541141.61646  22027861.709    22027871.067
       230.000         184.000
  24676079.860    -3937997.83549  -2209548.65145  24676079.466    24676091.134
       204.000         135.000
  20538049.364   -13911173.55749 -10818198.71647  20538049.234    20538056.475
       243.000         210.000
 03  5  5 18 22 30.0000000  0 10G21G29G17G26G 5G18G30G10G15G 6
  22051063.893   -15557223.51649 -12098125.74946  22051063.516    22051070.348
       235.000         186.000
  23126444.382   -19130000.46949 -14878754.84046  23126443.496    23126454.212
       218.000         163.000
  21672556.503   -14349496.30149 -11158410.38847  21672556.202    21672564.607
       236.000         196.000
  23049432.242   -18459035.89049 -14341305.08945  23049432.000    23049442.951
       218.000         155.000
  23748923.495    17101911.06949  13526020.47345  23748924.132    23748936.210
       213.000         148.000
  23935813.066    -9697899.66749  -7528040.42245  23935812.772    23935823.832
       208.000         144.000
  21885954.571     4788888.90149   3764951.70347  21885954.919    21885963.596
       236.000         191.000
  22043553.514     4588621.60149   3605394.58746  22043552.636    22043562.449
       231.000         184.000
  24661500.014    -4014615.95549  -2269251.05245  24661499.419    24661511.233
       207.000         138.000
  20531567.658   -13945235.19149 -10844740.26147  20531567.452    20531574.604
       243.000         210.000
 03  5  5 18 23  0.0000000  0 10G21G29G17G26G 5G18G30G10G15G 6
  22041656.633   -15606659.26549 -12136647.12146  22041656.089    22041663.373
       235.000         187.000
  23117564.469   -19176664.55749 -14915116.40746  23117564.393    23117574.681
       219.000         163.000
  21665764.584   -14385188.30249 -11186222.34947  21665763.984    21665772.842
       237.000         196.000
  23033485.568   -18542835.77449 -14406603.61645  23033485.200    23033496.728
       216.000         155.000
  23768668.362    17205669.56949  13606870.98145  23768669.123    23768680.888
       214.000         148.000
  23915775.876    -9803195.18049  -7610088.78045  23915774.134    23915786.912
       210.000         145.000
  21901354.700     4869816.71849   3828012.20647  21901355.497    21901363.273
       236.000         190.000
  22059310.888     4671426.67149   3669917.90946  22059309.578    22059320.079
       230.000         184.000
  24646937.680    -4091141.71649  -2328881.47345  24646936.131    24646949.644
       206.000         141.000
  20525149.469   -13978962.88749 -10871021.59747  20525149.375    20525156.496
       243.000         210.000
 03  5  5 18 23 30.0000000  0 10G21G29G17G26G 5G18G30G10G15G 6
  22032281.874   -15655924.05149 -12175035.27046  22032281.369    22032288.831
       236.000         187.000
  23108755.706   -19222954.77949 -14951186.65146  23108755.801    23108766.778
       220.000         163.000
  21659005.382   -14420708.27649 -11213900.26147  21659004.983    21659013.711
       236.000         197.000
  23017580.934   -18626414.57349 -14471729.84945  23017579.891    23017592.692
       216.000         155.000
  23788420.742    17309467.41649  13687752.12345  23788420.979    23788432.812
       214.000         149.000
  23895767.703    -9908338.58249  -7692018.60845  23895766.195    23895778.898
       211.000         146.000
  21916818.636     4951079.96249   3891334.07447  21916819.092    21916827.684
       235.000         190.000
  22075133.763     4754576.21249   3734709.65046  22075133.013    22075142.738
       230.000         184.000
  24632392.998    -4167574.62149  -2388439.58745  24632392.510    24632404.662
       204.000         141.000
  20518795.262   -14012354.57349 -10897041.10947  20518795.154    20518802.578
       245.000         210.000
 03  5  5 18 24  0.0000000  0 10G21G29G17G26G 5G18G30G10G15G 6
  22022939.467   -15705018.71649 -12213290.86446  22022938.847    22022946.011
       236.000         187.000
  23100018.446   -19268868.90749 -14986963.83246  23100018.920    23100029.751
       219.000         163.000
  21652278.796   -14456056.77449 -11241444.56147  21652278.450    21652286.797
       236.000         197.000
  23001718.905   -18709769.47549 -14536681.62545  23001717.602    23001730.127
       216.000         155.000
  23808179.918    17413301.56049  13768661.55545  23808180.090    23808191.721
       213.000         149.000
  23875788.739   -10013328.18849  -7773828.62245  23875788.985    23875799.027
       210.000         147.000
  21932345.818     5032675.62249   3954914.97547  21932346.542    21932355.299
       235.000         189.000
  22091021.616     4838067.12549   3799767.39546  22091021.144    22091030.395
       229.000         183.000
  24617865.915    -4243915.07749  -2447925.62945  24617865.346    24617878.267
       199.000         140.000
  20512505.259   -14045408.82849 -10922797.68447  20512505.148    20512512.349
       245.000         210.000
 03  5  5 18 24 30.0000000  0 10G21G29G17G26G 5G18G30G10G15G 6
  22013629.468   -15753943.09049 -12251413.75746  22013629.062    22013635.776
       236.000         187.000
  23091353.280   -19314404.27749 -15022445.87446  23091352.729    23091363.784
       220.000         164.000
  21645584.762   -14491234.42649 -11268855.73047  21645584.114    21645592.837
       236.000         197.000
  22985900.201   -18792896.70749 -14601455.99845  22985900.132    22985912.336
       216.000         155.000
  23827945.597    17517169.52049  13849597.33545  23827945.617    23827958.693
       214.000         149.000
  23855839.590   -10118161.47749  -7855516.80945  23855839.056    23855849.982
       212.000         148.000
  21947935.795     5114600.84549   4018752.66447  21947936.440    21947944.641
       236.000         189.000
  22106973.915     4921896.65149   3865088.99646  22106973.221    22106982.442
       229.000         183.000
  24603356.253    -4320163.19649  -2507339.69545  24603356.081    24603368.033
       203.000         138.000
  20506279.883   -14078123.51149 -10948289.65747  20506279.898    20506287.170
       245.000         210.000
 03  5  5 18 25  0.0000000  0 10G21G29G17G26G 5G18G30G10G15G 6
  22004351.760   -15802697.79849 -12289404.43247  22004351.265    22004358.316
       236.000         188.000
  23082760.680   -19359558.85349 -15057631.20646  23082760.737    23082771.104
       220.000         164.000
  21638923.088   -14526241.77849 -11296134.19247  21638922.726    21638931.405
       237.000         197.000
  22970125.465   -18875793.04449 -14666050.44945  22970124.754    22970136.567
       215.000         155.000
  23847717.152    17621068.35149  13930557.17445  23847717.229    23847729.999
       214.000         149.000
  23835920.496   -10222837.04449  -7937082.11545  23835920.695    23835930.796
       213.000         149.000
  21963587.886     5196852.51949   4082844.74647  21963588.874    21963596.780
       236.000         189.000
  22122990.104     5006061.87049   3930672.18446  22122989.783    22122999.591
       230.000         183.000
  24588864.234    -4396318.96849  -2566681.83745  24588863.514    24588876.160
       206.000         139.000
  20500119.430   -14110496.95049 -10973515.72247  20500119.403    20500126.449
       245.000         210.000
 03  5  5 18 25 30.0000000  0 10G21G29G17G26G 5G18G30G10G15G 6
  21995106.255   -15851283.40449 -12327263.34746  21995105.695    21995112.529
       236.000         187.000
  23074241.002   -19404330.11849 -15092517.84846  23074239.976    23074250.739
       220.000         164.000
  21632293.711   -14561079.56149 -11323280.52447  21632293.565    21632301.814
       237.000         197.000
  22954395.327   -18958454.91949 -14730462.21445  22954395.543    22954406.386
       217.000         155.000
  23867493.935    17724995.28849  14011538.88745  23867494.268    23867506.410
       211.000         147.000
  23816031.761   -10327352.61949  -8018522.74645  23816031.025    23816042.141
       212.000         149.000
  21979301.545     5279427.46949   4147188.71447  21979302.735    21979310.877
       236.000         189.000
  22139069.588     5090559.50449   3996514.38446  22139068.672    22139078.315
       230.000         183.000
  24574389.823    -4472382.63649  -2625952.22845  24574388.725    24574400.427
       209.000         141.000
  20494024.224   -14142527.61549 -10998474.69847  20494024.052    20494031.280
       245.000         210.000
 03  5  5 18 26  0.0000000  0 10G21G29G17G26G 5G18G30G10G15G 6
  21985893.138   -15899698.83349 -12364989.66547  21985892.833    21985899.253
       236.000         188.000
  23065794.802   -19448714.95949 -15127103.37446  23065795.332    23065804.669
       221.000         165.000
  21625696.694   -14595747.15849 -11350294.25147  21625696.332    21625704.506
       236.000         197.000
  22938710.699   -19040877.83849 -14794687.78845  22938710.461    22938721.435
       217.000         157.000
  23887275.805    17828948.58949  14092541.15345  23887275.863    23887289.750
       211.000         149.000
  23796174.127   -10431705.16449  -8099836.35145  23796173.012    23796184.522
       212.000         151.000
  21995076.345     5362323.99549   4211783.26247  21995076.825    21995085.224
       236.000         189.000
  22155211.931     5175387.66949   4062614.14146  22155211.146    22155220.540
       230.000         183.000
  24559933.152    -4548353.31249  -2685150.16645  24559932.073    24559944.282
       209.000         141.000
  20487994.757   -14174212.79049 -11023164.46747  20487994.656    20488001.966
       245.000         210.000
 03  5  5 18 26 30.0000000  0 10G21G29G17G26G 5G18G30G10G15G 6
  21976712.076   -15947945.79249 -12402584.70147  21976711.779    21976718.701
       236.000         188.000
  23057422.517   -19492711.79049 -15161386.56046  23057422.908    23057432.762
       221.000         166.000
  21619131.746   -14630246.33649 -11377176.73547  21619131.237    21619140.169
       237.000         197.000
  22923071.973   -19123059.48349 -14858725.35145  22923072.387    22923084.195
       217.000         157.000
  23907061.985    17932924.55249  14173561.05545  23907061.386    23907076.037
       213.000         150.000
  23776347.573   -10535893.75549  -8181022.20045  23776347.677    23776358.134
       214.000         152.000
  22010911.553     5445537.84149   4276625.07547  22010912.402    22010920.376
       236.000         189.000
  22171416.459     5260542.61449   4128968.53046  22171416.008    22171425.357
       229.000         183.000
  24545493.814    -4624232.50149  -2744276.81745  24545493.978    24545504.897
       207.000         139.000
  20482031.148   -14205551.85749 -11047584.53147  20482031.155    20482038.271
       245.000         210.000
 03  5  5 18 27  0.0000000  0 10G21G29G17G26G 5G18G30G10G15G 6
  21967563.084   -15996024.07449 -12440048.30547  21967562.773    21967569.052
       236.000         188.000
  23049124.406   -19536318.12549 -15195365.46846  23049124.323    23049134.181
       219.000         166.000
  21612598.850   -14664577.28349 -11403928.13947  21612598.639    21612607.187
       237.000         197.000
  22907479.964   -19204995.97849 -14922571.88345  22907479.702    22907492.418
       216.000         158.000
  23926852.082    18036920.82349  14254596.79345  23926852.695    23926865.638
       211.000         149.000
  23756552.751   -10639916.15449  -8262078.55645  23756552.411    23756563.156
       213.000         152.000
  22026806.678     5529066.48949   4341712.18247  22026807.129    22026815.510
       235.000         188.000
  22187682.734     5346021.81449   4195575.58346  22187682.327    22187691.833
       230.000         183.000
  24531071.899    -4700019.85849  -2803331.89945  24531071.533    24531083.848
       207.000         138.000
  20476133.834   -14236542.57549 -11071733.16447  20476133.848    20476140.948
       245.000         210.000
 03  5  5 18 27 30.0000000  0 10G21G29G17G26G 5G18G30G10G15G 6
  21958446.136   -16043933.98649 -12477380.71147  21958445.604    21958453.011
       237.000         188.000
  23040901.129   -19579531.47049 -15229038.13246  23040900.267    23040910.705
       221.000         165.000
  21606097.844   -14698740.30449 -11430548.68347  21606097.340    21606105.753
       237.000         198.000
  22891935.197   -19286683.90849 -14986224.72445  22891935.703    22891946.654
       218.000         158.000
  23946645.474    18140934.66949  14335646.24745  23946645.412    23946659.145
       211.000         149.000
  23736789.962   -10743770.14749  -8343003.68245  23736789.972    23736799.841
       213.000         152.000
  22042761.084     5612906.88049   4407042.21047  22042762.173    22042769.999
       235.000         188.000
  22204010.204     5431822.47949   4262433.13746  22204009.924    22204018.635
       229.000         182.000
  24516667.511    -4775715.42949  -2862315.43245  24516666.865    24516679.131
       205.000         139.000
  20470303.113   -14267183.31449 -11095609.07947  20470303.154    20470310.098
       245.000         211.000
 03  5  5 18 28  0.0000000  0 10G21G29G17G26G 5G18G30G10G15G 6
  21949361.179   -16091675.82549 -12514582.14847  21949360.634    21949367.607
       236.000         188.000
  23032753.117   -19622349.24649 -15262402.57146  23032753.017    23032763.368
       220.000         166.000
  21599628.736   -14732735.69949 -11457038.61147  21599628.149    21599636.949
       237.000         198.000
  22876438.503   -19368119.27349 -15049680.77645  22876437.842    22876449.900
       217.000         158.000
  23966441.699    18244963.44649  14416707.30345  23966441.428    23966455.075
       214.000         149.000
  23717059.573   -10847453.56249  -8423795.90945  23717059.371    23717069.378
       214.000         152.000
  22058774.302     5697056.40949   4472613.11646  22058775.168    22058782.983
       235.000         187.000
  22220398.209     5517941.73849   4329538.94046  22220398.019    22220406.971
       229.000         182.000
  24502280.641    -4851319.07949  -2921227.34945  24502279.795    24502292.243
       208.000         141.000
  20464539.395   -14297471.98649 -11119210.66047  20464539.464    20464546.369
       245.000         211.000
 03  5  5 18 28 30.0000000  0 11G21G23G29G17G26G 5G18G30G10G15G 6
  21940306.766   -16139256.83449 -12551658.26147  21940306.512    21940313.338
       236.000         188.000
  24493539.342   -10052658.09059  -7308758.49445  24493538.986    24493552.699
       213.000         140.000
  23024679.527   -19664776.32949 -15295462.58646  23024679.306    23024689.258
       221.000         166.000
  21593190.110   -14766570.94649 -11483403.74447  21593189.536    21593197.863
       237.000         198.000
  22860989.169   -19449305.62749 -15112942.78845  22860988.487    22861000.662
       217.000         159.000
  23986239.009    18348997.73049  14497772.66245  23986238.822    23986252.512
       215.000         150.000
  23697360.745   -10950971.56249  -8504459.22245  23697360.129    23697371.940
       217.000         153.000
  22074844.452     5781505.00549   4538417.05846  22074845.063    22074853.941
       233.000         186.000
  22236844.995     5604369.67349   4396885.27546  22236844.393    22236854.270
       230.000         182.000
  24487910.045    -4926837.64549  -2980072.97845  24487909.513    24487921.205
       206.000         140.000
  20458841.668   -14327413.75749 -11142541.92347  20458841.639    20458848.847
       245.000         211.000
 03  5  5 18 29  0.0000000  0 11G21G23G29G17G26G 5G18G30G10G15G 6
  21931284.767   -16186667.92249 -12588601.97647  21931284.138    21931291.131
       236.000         188.000
  24473761.850   -10156588.57449  -7389743.23845  24473761.288    24473775.364
       211.000         141.000
  23016682.493   -19706801.19249 -15328209.17846  23016682.492    23016692.880
       220.000         166.000
  21586783.553   -14800237.58049 -11509637.48947  21586783.121    21586791.649
       237.000         198.000
  22845589.614   -19530230.33549 -15176000.90845  22845589.138    22845601.426
       218.000         159.000
  24006038.518    18453043.82949  14578847.23745  24006037.866    24006051.889
       212.000         151.000
  23677695.664   -11054312.40549  -8584984.50745  23677695.003    23677705.873
       217.000         154.000
  22090972.662     5866258.87549   4604458.88546  22090972.968    22090981.971
       233.000         186.000
  22253351.708     5691112.59449   4464477.04446  22253351.505    22253360.530
       229.000         181.000
  24473557.205    -5002262.08049  -3038845.24445  24473556.050    24473569.427
       206.000         139.000
  20453212.003   -14356997.94049 -11165594.55647  20453211.866    20453218.939
       245.000         211.000
 03  5  5 18 29 30.0000000  0 11G21G23G29G17G26G 5G18G30G10G15G 6
  21922295.021   -16233909.18249 -12625413.34547  21922294.651    21922301.610
       235.000         188.000
  24454011.934   -10260374.93949  -7470615.66745  24454010.871    24454026.118
       212.000         142.000
  23008762.474   -19748420.83649 -15360640.01346  23008761.496    23008773.272
       221.000         166.000
  21580409.105   -14833735.63749 -11535739.87847  21580408.694    21580417.457
       237.000         198.000
  22830240.652   -19610889.55549 -15238852.15945  22830240.543    22830251.534
       218.000         160.000
  24025840.008    18557099.79849  14659929.50345  24025840.267    24025853.037
       214.000         150.000
  23658064.764   -11157473.60949  -8665369.80945  23658065.042    23658075.134
       218.000         155.000
  22107158.514     5951315.65949   4670736.73946  22107158.702    22107167.743
       234.000         186.000
  22269917.929     5778168.20949   4532312.47946  22269917.917    22269927.976
       229.000         181.000
  24459222.264    -5077592.28049  -3097544.12645  24459222.133    24459233.514
       207.000         138.000
  20447650.809   -14386222.25149 -11188366.76047  20447650.626    20447658.221
       243.000         211.000
 03  5  5 18 30  0.0000000  0 11G21G23G29G17G26G 5G18G30G10G15G 6
  21913337.284   -16280982.19149 -12662093.62147  21913336.703    21913344.019
       235.000         188.000
  24434289.588   -10364016.33249  -7551375.14045  24434289.084    24434303.091
       212.000         143.000
  23000919.733   -19789634.47349 -15392754.47246  23000919.225    23000930.216
       221.000         166.000
  21574066.494   -14867066.39449 -11561711.90947  21574066.015    21574074.532
       237.000         198.000
  22814942.653   -19691280.99549 -15301494.74945  22814941.685    22814953.813
       216.000         160.000
  24045642.556    18661161.41949  14741016.16545  24045642.338    24045657.123
       212.000         149.000
  23638468.063   -11260454.81749  -8745614.85845  23638467.669    23638478.549
       217.000         156.000
  22123401.187     6036670.87049   4737247.13446  22123401.758    22123410.862
       234.000         186.000
  22286542.907     5865532.40749   4600388.35946  22286542.638    22286551.333
       228.000         181.000
  24444905.160    -5152829.48949  -3156170.55345  24444904.675    24444916.065
       205.000         136.000
  20442158.168   -14415086.33849 -11210858.28047  20442158.248    20442165.253
       244.000         211.000
 03  5  5 18 30 30.0000000  0 11G21G23G29G17G26G 5G18G30G10G15G 6
  21904411.377   -16327888.06049 -12698643.65447  21904410.952    21904417.123
       235.000         188.000
  24414595.045   -10467511.68149  -7632020.79445  24414594.758    24414609.525
       208.000         143.000
  22993154.460   -19830440.79249 -15424551.55346  22993154.151    22993163.685
       221.000         166.000
  21567755.371   -14900231.61949 -11587554.95047  21567754.784    21567763.623
       237.000         198.000
  22799696.060   -19771402.02549 -15363926.63545  22799696.399    22799707.768
       217.000         160.000
  24065445.488    18765225.22849  14822104.53445  24065444.979    24065459.026
       210.000         148.000
  23618905.818   -11363254.82949  -8825718.71845  23618905.672    23618915.832
       218.000         156.000
  22139699.916     6122320.70249   4803987.09946  22139700.574    22139709.481
       234.000         186.000
  22303225.796     5953201.26749   4668701.65346  22303225.039    22303234.445
       228.000         181.000
  24430605.470    -5227974.71149  -3214725.28945  24430605.114    24430615.740
       202.000         133.000
  20436734.300   -14443589.17849 -11233068.30547  20436734.253    20436741.242
       244.000         211.000
 03  5  5 18 31  0.0000000  0 11G21G23G29G17G26G 5G18G30G10G15G 6
  21895517.168   -16374627.09749 -12735063.67847  21895517.069    21895523.428
       235.000         188.000
  24394928.667   -10570858.92949  -7712551.04345  24394927.503    24394942.522
       210.000         143.000
  22985467.213   -19870837.47349 -15456029.43146  22985466.992    22985477.123
       221.000         166.000
  21561475.645   -14933231.75549 -11613269.35347  21561475.031    21561483.716
       237.000         198.000
  22784501.540   -19851249.21949 -15426145.12445  22784501.658    22784512.657
       217.000         160.000
  24085248.313    18869288.54149  14903192.49645  24085247.500    24085262.734
       208.000         147.000
  23599378.459   -11465871.50849  -8905679.71345  23599377.821    23599388.129
       219.000         155.000
  22156054.131     6208262.17249   4870954.31946  22156055.032    22156063.533
       234.000         185.000
  22319966.114     6041171.83249   4737250.02746  22319965.240    22319974.762
       229.000         181.000
  24416323.288    -5303028.14149  -3273208.45045  24416321.532    24416335.629
       205.000         134.000
  20431379.495   -14471729.12049 -11254995.55447  20431379.420    20431386.667
       244.000         211.000
 03  5  5 18 31 30.0000000  0 11G21G23G29G17G26G 5G18G30G10G15G 6
  21886654.752   -16421199.48949 -12771353.84347  21886654.125    21886661.925
       235.000         188.000
  24375290.896   -10674055.89949  -7792964.20645  24375290.587    24375305.302
       207.000         143.000
  22977858.320   -19910822.14449 -15487186.27746  22977857.990    22977868.262
       221.000         166.000
  21555227.190   -14966067.50349 -11638855.66147  21555226.817    21555235.358
       237.000         198.000
  22769359.831   -19930818.92549 -15488147.40645  22769359.410    22769371.425
       218.000         160.000
  24105050.593    18973348.77649  14984278.06945  24105051.040    24105064.818
       206.000         146.000
  23579886.348   -11568302.89049  -8985496.33445  23579885.765    23579896.549
       218.000         155.000
  22172463.299     6294492.22649   4938146.40346  22172464.262    22172472.357
       234.000         185.000
  22336763.392     6129441.55849   4806031.52346  22336763.211    22336772.608
       228.000         180.000
  24402058.532    -5377989.61549  -3331619.97545  24402058.337    24402070.755
       209.000         137.000
  20426094.033   -14499504.40449 -11276638.64947  20426094.049    20426101.271
       243.000         211.000
 03  5  5 18 32  0.0000000  0 11G21G23G29G17G26G 5G18G30G10G15G 6
  21877823.875   -16467605.96749 -12807514.73847  21877823.738    21877830.289
       235.000         188.000
  24355682.011   -10777100.78349  -7873258.83245  24355681.433    24355695.229
       204.000         142.000
  22970328.202   -19950392.97849 -15518020.65246  22970328.912    22970337.840
       222.000         167.000
  21549009.867   -14998739.62049 -11664314.46347  21549009.601    21549018.121
       237.000         198.000
  22754271.524   -20010108.13949 -15549931.10245  22754272.145    22754282.553
       218.000         161.000
  24124851.746    19077403.13849  15065359.04345  24124851.373    24124865.743
       205.000         145.000
  23560429.838   -11670547.37149  -9065167.27645  23560429.414    23560439.833
       218.000         155.000
  22188926.749     6381007.63249   5005560.84446  22188927.335    22188935.751
       233.000         184.000
  22353616.935     6218007.12049   4875043.53946  22353616.194    22353626.228
       228.000         180.000
  24387811.287    -5452859.63949  -3389960.26245  24387811.749    24387821.573
       211.000         139.000
  20420878.247   -14526913.60649 -11297996.49147  20420878.350    20420885.326
       243.000         211.000
 03  5  5 18 32 30.0000000  0 11G21G23G29G17G26G 5G18G30G10G15G 6
  21869024.576   -16513846.60849 -12843546.40347  21869024.200    21869031.207
       235.000         188.000
  24336102.446   -10879991.28849  -7953433.16345  24336101.807    24336116.705
       203.000         141.000
  22962877.361   -19989547.40849 -15548530.55346  22962876.971    22962887.092
       220.000         167.000
  21542823.738   -15031248.10649 -11689645.76347  21542823.174    21542831.863
       237.000         198.000
  22739237.319   -20089112.91349 -15611493.16545  22739237.793    22739248.136
       218.000         162.000
  24144651.267    19181449.28949  15146433.60845  24144651.975    24144665.275
       207.000         144.000
  23541009.336   -11772602.38649  -9144690.62145  23541009.158    23541018.878
       217.000         155.000
  22205443.996     6467805.70149   5073195.54146  22205444.730    22205453.551
       232.000         184.000
  22370526.291     6306865.99149   4944284.11046  22370525.747    22370536.439
       227.000         180.000
  24373581.426    -5527638.07849  -3448229.17745  24373580.571    24373592.548
       209.000         138.000
  20415732.506   -14553954.65649 -11319067.46147  20415732.473    20415739.745
       243.000         211.000
 03  5  5 18 33  0.0000000  0 11G21G23G29G17G26G 5G18G30G10G15G 6
  21860256.727   -16559922.01249 -12879449.30947  21860256.200    21860263.222
       235.000         188.000
  24316552.604   -10982725.74349  -8033485.89645  24316551.292    24316566.292
       203.000         139.000
  22955506.036   -20028283.61149 -15578714.57546  22955505.674    22955516.110
       221.000         167.000
  21536668.542   -15063593.76449 -11714850.18047  21536668.015    21536676.646
       237.000         198.000
  22724257.864   -20167830.09949 -15672831.13845  22724257.314    22724269.680
       218.000         162.000
  24164448.634    19285484.22649  15227499.44745  24164449.760    24164463.852
       205.000         144.000
  23521625.264   -11874466.23649  -9224064.98745  23521624.068    23521636.242
       218.000         155.000
  22222014.337     6554883.15249   5141047.93946  22222015.099    22222024.309
       232.000         183.000
  22387490.806     6396014.86949   5013750.65846  22387490.463    22387499.615
       228.000         180.000
  24359368.842    -5602325.40249  -3506427.06645  24359368.340    24359379.490
       205.000         137.000
  20410657.070   -14580626.39749 -11339850.65847  20410657.046    20410664.138
       243.000         211.000
 03  5  5 18 33 30.0000000  0 11G21G23G29G17G26G 5G18G30G10G15G 6
  21851520.299   -16605832.08849 -12915223.39247  21851519.378    21851526.661
       235.000         188.000
  24297032.896   -11085301.82049  -8113415.22045  24297032.434    24297046.787
       201.000         138.000
  22948214.772   -20066599.18549 -15608570.82546  22948214.272    22948224.986
       221.000         167.000
  21530544.361   -15095776.58849 -11739927.71247  21530544.094    21530552.237
       237.000         198.000
  22709333.840   -20246256.00749 -15733942.14645  22709333.645    22709344.480
       218.000         162.000
  24184243.563    19389505.70849  15308554.80945  24184243.377    24184257.678
       210.000         144.000
  23502277.917   -11976136.90949  -9303288.83845  23502278.461    23502287.538
       219.000         155.000
  22238637.382     6642237.07449   5209115.76346  22238638.261    22238646.683
       232.000         182.000
  22404510.047     6485451.27649   5083441.26246  22404509.681    22404518.922
       228.000         179.000
  24345173.592    -5676921.42149  -3564553.81245  24345173.317    24345186.394
       209.000         138.000
  20405652.298   -14606926.70849 -11360344.42947  20405652.191    20405659.525
       243.000         211.000
 03  5  5 18 34  0.0000000  0 11G21G23G29G17G26G 5G18G30G10G15G 6
  21842815.281   -16651577.28949 -12950868.99747  21842814.724    21842821.762
       235.000         188.000
  24277543.758   -11187717.64049  -8193219.67545  24277542.687    24277558.209
       204.000         139.000
  22941003.984   -20104492.09849 -15638097.74746  22941004.293    22941014.235
       220.000         167.000
  21524451.034   -15127797.32949 -11764878.94747  21524450.783    21524459.156
       237.000         199.000
  22694465.920   -20324387.38049 -15794823.63445  22694465.379    22694477.358
       219.000         162.000
  24204035.392    19493510.81249  15389597.41845  24204036.094    24204051.056
       208.000         145.000
  23482967.732   -12077612.66449  -9382360.78745  23482968.109    23482978.055
       218.000         155.000
  22255312.415     6729864.43849   5277396.65246  22255312.927    22255321.591
       231.000         182.000
  22421583.386     6575171.99949   5153353.39946  22421583.221    22421592.731
       227.000         179.000
  24330995.843    -5751426.55949  -3622609.77745  24330995.652    24331006.925
       211.000         140.000
  20400718.481   -14632854.23049 -11380547.71547  20400718.596    20400725.539
       243.000         211.000
 03  5  5 18 34 30.0000000  0 11G21G23G29G17G26G 5G18G30G10G15G 6
  21834141.550   -16697157.93149 -12986386.37247  21834140.979    21834147.817
       235.000         189.000
  24258085.573   -11289970.94549  -8272897.50745  24258085.527    24258099.981
       201.000         137.000
  22933874.013   -20141960.17549 -15667293.61646  22933874.659    22933883.677
       220.000         167.000
  21518388.420   -15159656.50649 -11789704.29047  21518388.020    21518396.739
       237.000         199.000
  22679654.723   -20402220.55849 -15855472.77346  22679654.402    22679665.882
       218.000         163.000
  24223823.481    19597497.01549  15470625.29245  24223824.555    24223838.098
       210.000         144.000
  23463695.091   -12178891.19949  -9461279.06045  23463695.562    23463705.078
       218.000         155.000
  22272038.868     6817762.02049   5345888.10146  22272039.158    22272048.615
       231.000         182.000
  22438710.345     6665174.16649   5223484.84346  22438710.304    22438720.069
       227.000         179.000
  24316835.279    -5825840.77849  -3680594.87245  24316834.746    24316847.103
       209.000         142.000
  20395855.937   -14658407.17349 -11400459.12547  20395855.993    20395863.077
       244.000         211.000
 03  5  5 18 35  0.0000000  0 11G21G23G29G17G26G 5G18G30G10G15G 6
  21825499.087   -16742574.20849 -13021775.68647  21825498.322    21825505.534
       234.000         189.000
  24238658.722   -11392059.66049  -8352447.09745  24238658.556    24238672.881
       203.000         138.000
  22926825.279   -20179001.25949 -15696156.76746  22926825.099    22926835.126
       221.000         167.000
  21512356.428   -15191354.71649 -11814404.20147  21512355.986    21512364.203
       237.000         199.000
  22664900.850   -20479752.08549 -15915886.85846  22664900.836    22664911.953
       220.000         163.000
  24243607.541    19701461.91649  15551636.57445  24243608.339    24243623.367
       211.000         144.000
  23444460.268   -12279970.55049  -9540042.12745  23444459.828    23444470.025
       220.000         156.000
  22288816.275     6905927.00549   5414587.91446  22288816.743    22288825.394
       232.000         182.000
  22455890.395     6755455.37649   5293833.72546  22455889.521    22455899.680
       228.000         178.000
  24302691.870    -5900164.26449  -3738509.23445  24302691.107    24302704.003
       210.000         141.000
  20391065.000   -14683583.80049 -11420077.29647  20391064.860    20391072.179
       243.000         211.000
 03  5  5 18 35 30.0000000  0 11G21G23G29G17G26G 5G18G30G10G15G 6
  21816887.901   -16787826.08949 -13057036.89347  21816887.323    21816894.618
       235.000         189.000
  24219263.569   -11493981.57649  -8431866.71945  24219262.643    24219278.680
       201.000         140.000
  22919858.332   -20215612.82949 -15724685.22546  22919857.743    22919868.038
       221.000         167.000
  21506355.122   -15222891.93149 -11838978.66447  21506354.531    21506363.189
       237.000         199.000
  22650205.074   -20556978.24849 -15976062.99546  22650204.680    22650215.424
       220.000         163.000
  24263387.064    19805403.01049  15632629.29845  24263386.187    24263401.077
       207.000         143.000
  23425263.741   -12380848.51749  -9618648.27845  23425262.408    23425273.135
       218.000         157.000
  22305644.034     6994356.64049   5483493.95046  22305644.484    22305653.646
       233.000         182.000
  22473122.961     6846012.71749   5364397.77546  22473122.161    22473132.002
       227.000         178.000
  24288565.819    -5974396.91449  -3796352.83045  24288565.006    24288577.259
       212.000         142.000
  20386346.022   -14708382.16649 -11439400.72047  20386345.976    20386353.127
       243.000         211.000
 03  5  5 18 36  0.0000000  0 11G21G23G29G17G26G 5G18G30G10G15G 6
  21808307.834   -16832914.56949 -13092170.77147  21808307.263    21808314.143
       235.000         189.000
  24199900.495   -11595734.92349  -8511154.99345  24199899.978    24199915.323
       203.000         140.000
  22912973.378   -20251793.22849 -15752877.71046  22912973.309    22912982.307
       220.000         166.000
  21500384.228   -15254269.30549 -11863428.56947  21500383.744    21500392.358
       237.000         199.000
  22635568.057   -20633895.84349 -16035998.68746  22635568.272    22635579.701
       219.000         164.000
  24283161.657    19909317.46549  15713601.27345  24283162.416    24283176.625
       207.000         141.000
  23406105.903   -12481523.41649  -9697096.17845  23406105.550    23406115.001
       219.000         157.000
  22322521.476     7083047.43549   5552603.48746  22322522.199    22322531.299
       231.000         182.000
  22490407.506     6936842.94949   5435174.47546  22490407.355    22490416.941
       228.000         177.000
  24274457.092    -6048539.01949  -3854125.87345  24274457.373    24274468.403
       211.000         142.000
  20381699.288   -14732801.04749 -11458428.44047  20381698.983    20381706.360
       243.000         211.000
 03  5  5 18 36 30.0000000  0 11G21G23G29G17G26G 5G18G30G10G15G 6
  21799758.614   -16877841.02349 -13127178.39447  21799758.171    21799765.313
       236.000         189.000
  24180569.599   -11697318.94149  -8590311.35245  24180569.300    24180584.272
       205.000         141.000
  22906170.680   -20287541.64549 -15780733.59146  22906170.418    22906180.960
       220.000         166.000
  21494443.531   -15285488.01849 -11887754.85147  21494443.177    21494451.660
       238.000         199.000
  22620990.227   -20710502.69349 -16095692.22846  22620989.785    22621001.042
       219.000         164.000
  24302930.314    20013201.27249  15794549.36145  24302930.671    24302945.411
       207.000         139.000
  23386986.855   -12581994.52749  -9775385.28145  23386985.867    23386997.266
       218.000         158.000
  22339447.884     7171995.37849   5621913.38746  22339448.332    22339457.412
       232.000         182.000
  22507743.153     7027941.96749   5506160.60346  22507742.224    22507752.210
       227.000         177.000
  24260365.218    -6122592.08549  -3911829.55245  24260364.189    24260377.264
       211.000         140.000
  20377124.872   -14756839.84449 -11477159.99647  20377124.780    20377132.064
       243.000         211.000
 03  5  5 18 37  0.0000000  0 11G21G23G29G17G26G 5G18G30G10G15G 6
  21791240.616   -16922603.25549 -13162058.04947  21791240.168    21791247.659
       236.000         190.000
  24161271.860   -11798729.47449  -8669332.51745  24161271.540    24161286.953
       207.000         141.000
  22899450.993   -20322853.73349 -15808249.47646  22899450.240    22899461.536
       220.000         167.000
  21488533.278   -15316546.68649 -11911956.42147  21488532.888    21488541.369
       238.000         199.000
  22606472.600   -20786793.20049 -16155139.27646  22606473.204    22606483.521
       219.000         164.000
  24322693.080    20117054.11449  15875473.30045  24322693.170    24322707.939
       203.000         137.000
  23367907.384   -12682257.70849  -9853512.37445  23367906.625    23367917.206
       218.000         158.000
  22356422.979     7261199.39449   5691422.83646  22356423.660    22356433.078
       231.000         181.000
  22525129.860     7119309.30849   5577355.82146  22525129.108    22525138.949
       228.000         176.000
  24246290.778    -6196553.83249  -3969462.08145  24246290.013    24246302.042
       213.000         141.000
  20372623.541   -14780494.62049 -11495592.31447  20372623.456    20372630.601
       243.000         211.000
 03  5  5 18 37 30.0000000  0 11G21G23G29G17G26G 5G18G30G10G15G 6
  21782753.731   -16967202.32949 -13196810.56847  21782753.224    21782760.292
       236.000         190.000
  24142007.354   -11899964.96449  -8748217.28045  24142006.667    24142021.891
       206.000         141.000
  22892814.598   -20357728.02149 -15835424.21946  22892814.754    22892824.118
       221.000         167.000
  21482653.302   -15347446.21149 -11936033.98447  21482652.789    21482661.383
       238.000         199.000
  22592015.665   -20862764.39449 -16214337.51046  22592015.563    22592025.854
       220.000         165.000
  24342449.430    20220872.95249  15956370.74845  24342449.613    24342465.083
       201.000         136.000
  23348867.659   -12782311.52549  -9931476.31045  23348866.626    23348877.750
       218.000         158.000
  22373446.107     7350655.94549   5761129.05546  22373446.445    22373456.604
       231.000         181.000
  22542567.010     7210941.59049   5648757.48846  22542566.566    22542576.517
       229.000         176.000
  24232233.571    -6270424.99649  -4027024.02945  24232231.995    24232244.539
       210.000         143.000
  20368195.471   -14803764.32849 -11513724.57847  20368195.372    20368202.558
       243.000         211.000
 03  5  5 18 38  0.0000000  0 11G21G23G29G17G26G 5G18G30G10G15G 6
  21774297.937   -17011637.92149 -13231435.70347  21774297.308    21774304.397
       236.000         190.000
  24122776.628   -12001023.12649  -8826963.86745  24122776.899    24122790.564
       208.000         141.000
  22886261.906   -20392162.30649 -15862256.10846  22886261.441    22886272.544
       220.000         167.000
  21476803.546   -15378186.87749 -11959987.76247  21476803.179    21476811.739
       238.000         199.000
  22577620.210   -20938412.54049 -16273284.01746  22577620.549    22577631.623
       220.000         165.000
  24362198.785    20324655.60849  16037239.98345  24362199.340    24362214.843
       201.000         134.000
  23329868.197   -12882153.82549 -10009275.44045  23329866.649    23329877.865
       219.000         158.000
  22390516.764     7440362.28149   5831029.91846  22390517.197    22390527.403
       231.000         180.000
  22560054.079     7302836.13649   5720363.50446  22560053.820    22560063.490
       228.000         176.000
  24218193.619    -6344205.57649  -4084515.36045  24218192.654    24218205.150
       211.000         142.000
  20363841.013   -14826647.25649 -11531555.45347  20363840.886    20363848.067
       243.000         211.000
 03  5  5 18 38 30.0000000  0 11G21G23G29G17G26G 5G18G30G10G15G 6
  21765873.117   -17055910.67149 -13265933.95147  21765872.960    21765879.625
       236.000         190.000
  24103579.978   -12101902.28549  -8905570.95845  24103578.970    24103593.560
       209.000         141.000
  22879793.318   -20426154.62249 -15888743.60246  22879793.119    22879803.149
       220.000         167.000
  21470983.890   -15408769.68249 -11983818.53547  21470983.308    21470992.024
       238.000         199.000
  22563286.896   -21013734.40149 -16331976.27246  22563286.362    22563298.323
       221.000         166.000
  24381940.672    20428398.89649  16118078.53445  24381941.273    24381956.733
       201.000         136.000
  23310909.372   -12981782.79449 -10086908.33445  23310908.824    23310920.242
       218.000         158.000
  22407634.373     7530315.21349   5901122.92146  22407635.946    22407644.763
       231.000         180.000
  22577590.436     7394989.86049   5792171.47946  22577589.820    22577600.250
       228.000         176.000
  24204170.767    -6417895.84349  -4141936.31545  24204170.431    24204183.852
       210.000         141.000
  20359560.441   -14849141.87249 -11549083.74647  20359560.360    20359567.585
       243.000         211.000
 03  5  5 18 39  0.0000000  0 11G21G23G29G17G26G 5G18G30G10G15G 6
  21757479.108   -17100021.64149 -13300306.13047  21757478.561    21757485.548
       236.000         190.000
  24084417.823   -12202600.35749  -8984036.93445  24084417.465    24084432.269
       211.000         141.000
  22873409.249   -20459703.04749 -15914885.19346  22873408.978    22873419.646
       220.000         167.000
  21465194.232   -15439194.49449 -12007526.19847  21465193.626    21465202.595
       238.000         199.000
  22549016.303   -21088726.52949 -16390411.59246  22549016.511    22549026.829
       222.000         166.000
  24401674.754    20532100.35949  16198884.50645  24401675.142    24401689.540
       208.000         139.000
  23291991.470   -13081196.49749 -10164373.48345  23291989.731    23292002.064
       219.000         159.000
  22424798.253     7620511.48049   5971405.53646  22424799.215    22424808.960
       230.000         180.000
  22595175.589     7487400.07949   5864179.32446  22595175.106    22595185.691
       227.000         176.000
  24190165.187    -6491495.88949  -4199287.01845  24190163.978    24190176.954
       213.000         141.000
  20355354.075   -14871246.51649 -11566308.16947  20355353.972    20355361.410
       243.000         211.000
 03  5  5 18 39 30.0000000  0 11G21G23G29G17G26G 5G18G30G10G15G 6
  21749115.863   -17143970.70249 -13334552.15047  21749115.431    21749122.709
       236.000         191.000
  24065290.367   -12303115.60249  -9062360.48345  24065290.076    24065303.675
       211.000         141.000
  22867109.942   -20492805.87849 -15940679.58746  22867110.219    22867119.803
       220.000         167.000
  21459434.502   -15469462.07949 -12031111.34547  21459434.013    21459442.528
       238.000         199.000
  22534809.061   -21163385.74149 -16448587.50346  22534809.376    22534819.561
       221.000         166.000
  24421400.512    20635757.48849  16279655.93545  24421400.406    24421417.162
       209.000         142.000
  23273114.936   -13180393.07949 -10241669.44645  23273114.528    23273125.050
       219.000         159.000
  22442007.926     7710948.14849   6041875.47846  22442008.980    22442018.543
       230.000         180.000
  22612809.009     7580063.80049   5936384.69246  22612808.299    22612818.907
       227.000         176.000
  24176176.670    -6565005.92449  -4256567.57445  24176175.692    24176188.295
       214.000         141.000
  20351222.254   -14892959.63149 -11583227.50647  20351222.172    20351229.346
       243.000         211.000
 03  5  5 18 40  0.0000000  0 11G21G23G29G17G26G 5G18G30G10G15G 6
  21740783.500   -17187757.73749 -13368671.91447  21740783.299    21740789.641
       237.000         191.000
  24046198.037   -12403446.03049  -9140540.00245  24046197.704    24046211.920
       211.000         141.000
  22860895.899   -20525461.06549 -15966125.15846  22860896.061    22860906.004
       221.000         168.000
  21453704.627   -15499572.80749 -12054574.27047  21453704.020    21453712.643
       238.000         199.000
  22520665.811   -21237708.53349 -16506501.25946  22520665.768    22520675.674
       222.000         167.000
  24441117.195    20739367.53449  16360390.68745  24441117.337    24441131.909
       209.000         143.000
  23254280.044   -13279370.77249 -10318794.83545  23254279.048    23254291.253
       220.000         160.000
  22459262.759     7801621.95749   6112530.19446  22459263.026    22459273.203
       231.000         180.000
  22630490.029     7672977.94349   6008785.19646  22630489.398    22630500.087
       227.000         175.000
  24162205.258    -6638426.23349  -4313778.19645  24162205.213    24162217.331
       212.000         142.000
  20347165.168   -14914279.88649 -11599840.71647  20347165.201    20347172.367
       243.000         211.000
 03  5  5 18 40 30.0000000  0 11G21G23G29G17G26G 5G18G30G10G15G 6
  21732481.934   -17231382.83349 -13402665.48547  21732481.416    21732488.564
       237.000         191.000
  24027141.357   -12503589.37149  -9218573.74245  24027141.426    24027155.056
       213.000         141.000
  22854767.410   -20557666.36849 -15991220.17346  22854767.254    22854777.343
       221.000         168.000
  21448004.463   -15529527.38249 -12077915.49947  21448004.096    21448012.635
       238.000         200.000
  22506587.223   -21311691.40549 -16564150.14946  22506586.315    22506598.318
       222.000         167.000
  24460824.399    20842928.21449  16441086.94545  24460824.853    24460840.093
       210.000         144.000
  23235487.315   -13378127.33549 -10395747.93245  23235486.078    23235497.650
       220.000         161.000
  22476562.172     7892530.17949   6183367.58246  22476562.849    22476572.318
       231.000         180.000
  22648218.335     7766140.04349   6081378.92646  22648217.685    22648227.424
       227.000         175.000
  24148250.929    -6711756.68749  -4370918.80045  24148249.665    24148263.952
       211.000         141.000
  20343183.215   -14935205.19749 -11616146.17847  20343183.147    20343190.344
       243.000         211.000
 03  5  5 18 41  0.0000000  0 11G21G23G29G17G26G 5G18G30G10G15G 6
  21724211.006   -17274846.92349 -13436533.60247  21724210.622    21724217.765
       236.000         192.000
  24008120.602   -12603543.62649  -9296460.13845  24008120.194    24008134.156
       212.000         141.000
  22848724.947   -20589419.79449 -16015963.09046  22848725.297    22848734.868
       221.000         168.000
  21442334.042   -15559325.72949 -12101135.00547  21442333.521    21442342.309
       238.000         200.000
  22492574.014   -21385330.80949 -16621531.39646  22492574.435    22492584.799
       223.000         167.000
  24480521.650    20946437.01249  16521742.79545  24480521.907    24480536.957
       210.000         144.000
  23216737.015   -13476660.80349 -10472527.17245  23216737.027    23216748.094
       220.000         161.000
  22493905.576     7983669.67949   6254385.18246  22493907.012    22493916.107
       231.000         180.000
  22665993.211     7859547.21949   6154163.61846  22665992.740    22666002.859
       226.000         175.000
  24134313.567    -6784997.63849  -4427989.65845  24134313.153    24134325.940
       213.000         142.000
  20339276.747   -14955734.05849 -11632142.71747  20339276.672    20339283.942
       243.000         211.000
 03  5  5 18 41 30.0000000  0 11G21G23G29G17G26G 5G18G30G10G15G 6
  21715970.801   -17318149.39849 -13470275.78347  21715970.676    21715977.213
       237.000         192.000
  23989136.362   -12703306.44049  -9374197.34145  23989135.477    23989150.870
       213.000         142.000
  22842768.829   -20620719.13849 -16040352.15746  22842768.091    22842779.265
       221.000         168.000
  21436693.326   -15588967.85149 -12124232.77347  21436692.866    21436701.387
       238.000         200.000
  22478626.939   -21458622.98949 -16678642.09446  22478626.920    22478638.676
       223.000         168.000
  24500208.734    21049891.88949  16602356.62545  24500208.708    24500224.871
       208.000         142.000
  23198029.511   -13574968.85849 -10549130.77645  23198028.959    23198039.158
       220.000         162.000
  22511292.587     8075037.94649   6325581.02946  22511293.326    22511303.358
       232.000         180.000
  22683814.259     7953197.10249   6227137.42946  22683814.112    22683823.977
       225.000         174.000
  24120393.315    -6858148.81249  -4484990.54345  24120392.080    24120406.422
       211.000         141.000
  20335446.044   -14975864.62349 -11647828.90147  20335445.984    20335453.253
       243.000         211.000
 03  5  5 18 42  0.0000000  0 11G21G23G29G17G26G 5G18G30G10G15G 6
  21707761.187   -17361291.10949 -13503892.69947  21707760.500    21707767.965
       237.000         192.000
  23970188.816   -12802876.32849  -9451784.22145  23970188.534    23970202.435
       215.000         143.000
  22836899.437   -20651563.05749 -16064386.35946  22836899.024    22836909.137
       221.000         168.000
  21431082.147   -15618454.79149 -12147209.62447  21431081.591    21431090.294
       237.000         200.000
  22464746.433   -21531564.97849 -16735479.91146  22464745.600    22464757.402
       222.000         169.000
  24519885.090    21153289.93149  16682926.14545  24519885.736    24519900.411
       206.000         140.000
  23179365.207   -13673050.31849 -10625557.79245  23179365.049    23179375.679
       220.000         162.000
  22528722.406     8166631.38949   6396952.33046  22528723.439    22528733.303
       231.000         179.000
  22701680.820     8047086.20949   6300297.65946  22701680.693    22701690.911
       224.000         174.000
  24106490.081    -6931210.68849  -4541921.86145  24106489.774    24106501.623
       209.000         141.000
  20331691.354   -14995595.80349 -11663203.87947  20331691.413    20331698.378
       243.000         211.000
 03  5  5 18 42 30.0000000  0 11G21G23G29G17G26G 5G18G30G10G15G 6
  21699582.256   -17404271.81149 -13537384.16047  21699582.162    21699589.164
       238.000         192.000
  23951278.446   -12902250.96149  -9529218.95445  23951278.945    23951292.101
       215.000         144.000
  22831117.098   -20681949.30149 -16088063.93446  22831117.107    22831127.102
       221.000         169.000
  21425500.484   -15647786.82149 -12170065.76347  21425499.755    21425508.594
       238.000         200.000
  22450933.376   -21604152.94749 -16792041.87546  22450934.072    22450944.010
       223.000         169.000
  24539550.165    21256629.03549  16763449.75745  24539551.492    24539565.303
       204.000         136.000
  23160744.404   -13770902.68949 -10701806.30646  23160744.071    23160754.861
       221.000         163.000
  22546194.566     8258447.31249   6468497.00346  22546195.554    22546205.202
       229.000         179.000
  22719592.507     8141212.34949   6373642.57246  22719592.843    22719602.453
       225.000         173.000
  24092603.968    -7004182.95449  -4598783.34845  24092602.608    24092616.088
       212.000         140.000
  20328013.049   -15014925.49949 -11678266.00947  20328012.989    20328020.065
       243.000         211.000
 03  5  5 18 43  0.0000000  0 11G21G23G29G17G26G 5G18G30G10G15G 6
  21691433.727   -17447092.58149 -13570751.00447  21691433.113    21691440.514
       237.000         193.000
  23932405.483   -13001429.13549  -9606500.59745  23932406.170    23932419.039
       212.000         143.000
  22825422.141   -20711876.50349 -16111383.82546  22825421.410    22825431.342
       222.000         169.000
  21419948.096   -15676964.80449 -12192801.87247  21419947.449    21419956.378
       238.000         200.000
  22437188.142   -21676384.32449 -16848325.97646  22437188.348    22437198.876
       224.000         169.000
  24559203.320    21359905.90349  16843924.85045  24559203.727    24559218.055
       199.000         132.000
  23142167.487   -13868524.71049 -10777875.34346  23142166.142    23142177.186
       221.000         164.000
  22563708.259     8350481.99349   6540212.13446  22563708.320    22563718.947
       229.000         178.000
  22737548.659     8235572.07749   6447169.49746  22737548.673    22737558.089
       224.000         173.000
  24078734.618    -7077066.29449  -4655575.57245  24078733.909    24078747.107
       210.000         139.000
  20324411.304   -15033852.93749 -11693014.69247  20324411.163    20324418.554
       243.000         211.000
 03  5  5 18 43 30.0000000  0 12G16G21G23G29G17G26G 5G18G30G10G15G 6
  24750475.521    -3745550.73059  -2051256.00044  24750475.482    24750486.965
       197.000         131.000
  21683315.344   -17489755.04649 -13603994.50047  21683314.524    21683321.819
       237.000         193.000
  23913570.011   -13100410.09449  -9683628.57445  23913569.041    23913582.201
       213.000         143.000
  22819814.612   -20741344.21649 -16134345.67146  22819814.871    22819824.083
       223.000         169.000
  21414424.736   -15705990.39249 -12215419.22947  21414424.013    21414432.965
       238.000         200.000
  22423511.207   -21748256.78249 -16904330.40346  22423511.066    22423522.011
       223.000         169.000
  24578843.835    21463116.78549  16924348.55044  24578845.259    24578860.152
       200.000         128.000
  23123634.493   -13965915.93349 -10853764.51246  23123634.081    23123644.633
       221.000         164.000
  22581262.794     8442731.14149   6612094.36846  22581263.716    22581273.279
       229.000         177.000
  22755548.468     8330161.24549   6520875.20646  22755547.702    22755559.012
       223.000         172.000
  24064881.910    -7149862.23149  -4712299.64445  24064882.119    24064893.833
       207.000         137.000
  20320886.155   -15052377.73549 -11707449.63447  20320886.083    20320893.324
       243.000         211.000
 03  5  5 18 44  0.0000000  0 12G16G21G23G29G17G26G 5G18G30G10G15G 6
  24736122.756    -3820975.55449  -2110028.54545  24736123.578    24736134.317
       198.000         132.000
  21675227.011   -17532259.60049 -13637114.94147  21675226.393    21675233.571
       238.000         193.000
  23894772.356   -13199192.16749  -9760601.56445  23894771.574    23894785.678
       213.000         144.000
  22814294.800   -20770350.98349 -16156948.30546  22814295.092    22814303.754
       222.000         169.000
  21408930.134   -15734864.77649 -12237918.76547  21408929.716    21408938.240
       238.000         200.000
  22409903.119   -21819767.45249 -16960052.93046  22409903.007    22409913.065
       223.000         170.000
  24598471.378    21566258.91649  17004718.68344  24598471.562    24598487.288
       198.000         124.000
  23105145.730   -14063074.88249 -10929472.69146  23105144.801    23105156.039
       222.000         165.000
  22598857.549     8535191.25249   6684140.99946  22598858.236    22598868.451
       228.000         177.000
  22773591.335     8424976.68149   6594757.24046  22773591.191    22773601.917
       224.000         172.000
  24051045.842    -7222571.21049  -4768955.97145  24051045.498    24051057.629
       211.000         139.000
  20317437.876   -15070498.63449 -11721569.84947  20317437.900    20317445.276
       243.000         211.000
 03  5  5 18 44 30.0000000  0 12G16G21G23G29G17G26G 5G18G30G10G15G 6
  24721841.115    -3896026.16549  -2168509.49544  24721839.457    24721852.471
       199.000         131.000
  21667169.459   -17574602.58849 -13670109.48447  21667168.961    21667175.800
       237.000         193.000
  23876013.644   -13297769.48749  -9837414.98945  23876013.290    23876028.051
       213.000         145.000
  22808863.885   -20798890.71149 -16179187.06346  22808863.902    22808873.718
       222.000         169.000
  21403465.050   -15763583.91349 -12260297.32247  21403464.740    21403473.290
       238.000         200.000
  22396365.301   -21890908.95749 -17015487.79746  22396365.099    22396375.527
       223.000         170.000
  24618086.059    21669333.81149  17085036.37644  24618086.054    24618103.341
       201.000         127.000
  23086702.242   -14159995.54249 -11004995.18846  23086701.509    23086712.586
       221.000         164.000
  22616492.602     8627863.33949   6756352.79746  22616493.228    22616503.124
       230.000         177.000
  22791677.507     8520019.81249   6668816.68546  22791676.980    22791687.483
       225.000         172.000
  24037227.131    -7295189.50249  -4825541.64945  24037225.905    24037238.603
       209.000         141.000
  20314067.548   -15088210.08249 -11735371.00947  20314067.484    20314074.714
       243.000         211.000
 03  5  5 18 45  0.0000000  0 12G16G21G23G29G17G26G 5G18G30G10G15G 6
  24707630.608    -3970703.06749  -2226699.24844  24707628.245    24707642.385
       200.000         130.000
  21659142.005   -17616787.01449 -13702980.47747  21659141.628    21659148.748
       238.000         193.000
  23857293.812   -13396142.93449  -9914069.57345  23857293.649    23857307.996
       211.000         145.000
  22803521.564   -20826964.69449 -16201062.87946  22803521.720    22803530.957
       223.000         169.000
  21398028.875   -15792151.38549 -12282557.70547  21398028.393    21398036.798
       238.000         200.000
  22382897.829   -21961680.63349 -17070634.48446  22382897.732    22382908.992
       224.000         170.000
  24637687.111    21772336.15749  17165297.59844  24637688.793    24637704.165
       204.000         128.000
  23068303.965   -14256678.67749 -11080332.60546  23068303.876    23068312.959
       221.000         165.000
  22634166.967     8720741.67249   6828725.31046  22634168.121    22634177.187
       230.000         177.000
  22809805.984     8615284.93149   6743049.11346  22809805.970    22809815.113
       224.000         171.000
  24023424.964    -7367720.18349  -4882059.03445  24023424.809    24023435.833
       207.000         139.000
  20310774.845   -15105513.35749 -11748854.11247  20310774.623    20310782.115
       243.000         211.000
 03  5  5 18 45 30.0000000  0 12G16G21G23G29G17G26G 5G18G30G10G15G 6
  24693491.858    -4045001.47249  -2284594.05444  24693490.722    24693503.663
       195.000         130.000
  21651145.253   -17658810.33449 -13735725.92847  21651144.754    21651151.797
       238.000         194.000
  23838613.659   -13494307.96549  -9990561.73745  23838613.551    23838626.706
       211.000         146.000
  22798268.701   -20854568.59849 -16222572.39246  22798268.487    22798279.269
       223.000         170.000
  21392622.024   -15820564.63949 -12304697.91147  21392621.516    21392630.629
       238.000         200.000
  22369501.899   -22032076.63149 -17125488.42746  22369500.997    22369512.331
       224.000         170.000
  24657274.369    21875266.08249  17245502.35945  24657275.284    24657291.944
       207.000         132.000
  23049951.721   -14353119.91249 -11155481.52046  23049950.341    23049961.959
       222.000         165.000
  22651880.475     8813825.72549   6901258.12246  22651881.329    22651891.840
       230.000         178.000
  22827976.650     8710771.73949   6817454.29046  22827976.031    22827986.880
       224.000         171.000
  24009639.966    -7440160.66049  -4938506.13345  24009637.924    24009651.841
       207.000         138.000
  20307560.642   -15122404.22949 -11762015.86147  20307560.548    20307567.830
       243.000         211.000
 03  5  5 18 46  0.0000000  0 12G16G21G23G29G17G26G 5G18G30G10G15G 6
  24679425.499    -4118920.43749  -2342193.19744  24679424.280    24679437.517
       197.000         130.000
  21643178.812   -17700674.24649 -13768347.16847  21643178.909    21643185.766
       238.000         193.000
  23819973.355   -13592263.86949 -10066890.94045  23819973.056    23819986.621
       211.000         146.000
  22793105.386   -20881701.60249 -16243714.98446  22793105.581    22793114.598
       223.000         170.000
  21387244.191   -15848825.31149 -12326719.22847  21387243.749    21387252.515
       238.000         201.000
  22356177.799   -22102094.61849 -17180047.82846  22356177.141    22356188.071
       223.000         170.000
  24676847.260    21978120.04349  17325647.94145  24676847.804    24676863.726
       207.000         135.000
  23031645.677   -14449318.53949 -11230441.40446  23031645.434    23031656.462
       223.000         165.000
  22669632.289     8907111.16349   6973947.85546  22669633.449    22669643.424
       230.000         177.000
  22846188.805     8806476.41149   6892029.22346  22846188.333    22846198.744
       224.000         171.000
  23995871.978    -7512512.09549  -4994883.86445  23995872.023    23995882.807
       207.000         140.000
  20304424.978   -15138882.41349 -11774856.03747  20304424.839    20304432.306
       243.000         211.000
 03  5  5 18 46 30.0000000  0 12G16G21G23G29G17G26G 5G18G30G10G15G 6
  24665431.788    -4192457.97949  -2399495.13244  24665430.718    24665443.551
       196.000         130.000
  21635242.654   -17742379.05849 -13800844.43147  21635241.994    21635249.166
       238.000         194.000
  23801373.017   -13690008.88249 -10143055.81345  23801372.313    23801386.309
       210.000         147.000
  22788032.041   -20908362.27449 -16264489.51146  22788032.284    22788041.472
       224.000         170.000
  21381895.256   -15876934.01549 -12348622.12147  21381894.732    21381903.458
       238.000         201.000
  22342926.270   -22171731.53449 -17234310.29046  22342925.654    22342937.178
       224.000         170.000
  24696405.054    22080895.37749  17405732.27845  24696405.694    24696422.780
       209.000         137.000
  23013386.146   -14545272.77149 -11305210.83946  23013386.064    23013395.979
       223.000         166.000
  22687421.828     9000594.94049   7046792.14146  22687422.444    22687432.296
       230.000         177.000
  22864441.793     8902395.93249   6966771.57746  22864441.497    22864451.235
       225.000         170.000
  23982120.777    -7584774.95049  -5051192.52045  23982118.685    23982132.846
       206.000         141.000
  20301368.054   -15154946.77349 -11787373.75047  20301367.885    20301375.462
       243.000         211.000
 03  5  5 18 47  0.0000000  0 12G16G21G23G29G17G26G 5G18G30G10G15G 6
  24651510.872    -4265611.53549  -2456497.82644  24651510.724    24651521.238
       198.000         129.000
  21627336.772   -17783924.83449 -13833217.76947  21627336.407    21627343.605
       238.000         194.000
  23782813.155   -13787540.87249 -10219054.69245  23782811.532    23782826.783
       208.000         147.000
  22783048.923   -20934548.69949 -16284894.49846  22783049.283    22783058.793
       223.000         170.000
  21376575.262   -15904890.95849 -12370406.75747  21376574.585    21376583.707
       239.000         201.000
  22329747.911   -22240983.92049 -17288273.11246  22329747.527    22329758.723
       223.000         170.000
  24715947.418    22183589.80249  17485753.53045  24715946.976    24715964.048
       209.000         140.000
  22995173.518   -14640980.67049 -11379788.33246  22995173.193    22995183.179
       223.000         166.000
  22705248.560     9094274.12449   7119788.68446  22705249.303    22705259.788
       229.000         177.000
  22882735.148     8998527.71949   7041679.34046  22882734.832    22882744.684
       224.000         170.000
  23968386.436    -7656949.19949  -5107432.15945  23968387.021    23968398.113
       209.000         143.000
  20298390.211   -15170595.48549 -11799567.57647  20298390.077    20298397.429
       243.000         211.000
 03  5  5 18 47 30.0000000  0 12G16G21G23G29G17G26G 5G18G30G10G15G 6
  24637663.629    -4338379.59949  -2513200.15544  24637662.981    24637676.195
       199.000         130.000
  21619460.952   -17825312.39149 -13865467.81947  21619460.559    21619467.924
       237.000         194.000
  23764294.078   -13884858.50249 -10294886.51345  23764292.932    23764307.532
       209.000         148.000
  22778156.239   -20960259.68549 -16304929.01846  22778156.281    22778165.049
       224.000         170.000
  21371283.960   -15932697.04849 -12392073.85547  21371283.278    21371292.209
       239.000         201.000
  22316643.315   -22309848.82349 -17341934.00646  22316643.599    22316653.955
       225.000         171.000
  24735473.834    22286200.35649  17565709.44845  24735474.198    24735491.117
       208.000         141.000
  22977007.997   -14736440.82249 -11454172.77146  22977007.299    22977017.840
       223.000         166.000
  22723111.796     9188145.06749   7192934.64246  22723112.826    22723122.787
       229.000         176.000
  22901068.292     9094868.69349   7116750.09246  22901068.610    22901078.396
       225.000         169.000
  23954669.055    -7729035.36149  -5163603.19945  23954668.218    23954681.457
       210.000         144.000
  20295491.656   -15185827.59349 -11811436.77947  20295491.594    20295498.991
       243.000         211.000
 03  5  5 18 48  0.0000000  0 12G16G21G23G29G17G26G 5G18G30G10G15G 6
  24623890.308    -4410759.55349  -2569600.05044  24623890.845    24623901.872
       200.000         131.000
  21611615.310   -17866541.42749 -13897594.34247  21611614.660    21611621.948
       237.000         194.000
  23745816.246   -13981959.58749 -10370549.62545  23745815.434    23745830.291
       210.000         148.000
  22773354.467   -20985493.19749 -16324591.47746  22773354.025    22773364.051
       224.000         171.000
  21366021.390   -15960352.03049 -12413623.20047  21366021.021    21366029.457
       240.000         201.000
  22303613.139   -22378322.61849 -17395290.13346  22303613.030    22303623.996
       225.000         171.000
  24754983.955    22388725.13749  17645598.52045  24754984.751    24755001.666
       206.000         142.000
  22958889.920   -14831651.37649 -11528362.72646  22958889.252    22958899.921
       222.000         166.000
  22741010.956     9282205.24449   7266228.05546  22741010.976    22741022.116
       227.000         175.000
  22919440.852     9191416.38049   7191981.92146  22919440.252    22919450.548
       225.000         169.000
  23940968.224    -7801033.28849  -5219705.44545  23940967.223    23940979.374
       209.000         144.000
  20292672.753   -15200641.13349 -11822979.82447  20292672.705    20292680.137
       243.000         211.000
 03  5  5 18 48 30.0000000  0 12G16G21G23G29G17G26G 5G18G30G10G15G 6
  24610190.899    -4482749.85649  -2625696.32644  24610190.150    24610202.369
       202.000         131.000
  21603799.678   -17907612.68149 -13929597.91247  21603799.251    21603806.096
       238.000         194.000
  23727379.900   -14078842.55349 -10446042.73845  23727379.097    23727393.461
       211.000         148.000
  22768643.773   -21010247.86949 -16343880.80746  22768643.356    22768653.673
       224.000         171.000
  21360787.388   -15987856.97349 -12435055.63447  21360786.945    21360795.584
       240.000         201.000
  22290657.983   -22446402.36949 -17448339.21846  22290657.799    22290667.925
       225.000         171.000
  24774477.204    22491161.38749  17725418.60545  24774476.567    24774494.537
       204.000         140.000
  22940819.737   -14926610.41649 -11602356.66646  22940819.441    22940829.929
       223.000         166.000
  22758945.503     9376451.21449   7339666.23646  22758946.779    22758956.914
       227.000         174.000
  22937852.192     9288167.75649   7267372.47946  22937852.395    22937862.713
       225.000         169.000
  23927284.149    -7872943.41549  -5275739.25845  23927284.276    23927295.551
       210.000         146.000
  20289933.706   -15215035.11149 -11834195.93047  20289933.591    20289941.012
       243.000         211.000
 03  5  5 18 49  0.0000000  0 12G16G21G23G29G17G26G 5G18G30G10G15G 6
  24596566.167    -4554348.42749  -2681487.35645  24596565.842    24596576.996
       202.000         132.000
  21596014.061   -17948526.30449 -13961478.65747  21596013.401    21596020.955
       237.000         193.000
  23708985.510   -14175505.52749 -10521364.44145  23708984.911    23708999.127
       209.000         149.000
  22764024.475   -21034522.26349 -16362795.88846  22764024.784    22764034.304
       224.000         171.000
  21355581.841   -16015212.35649 -12456371.52047  21355581.379    21355590.322
       240.000         201.000
  22277778.383   -22514084.67949 -17501078.60046  22277778.145    22277788.662
       225.000         172.000
  24793953.047    22593506.49349  17805167.66645  24793952.764    24793970.546
       202.000         140.000
  22922797.638   -15021316.38749 -11676153.43146  22922796.548    22922807.991
       223.000         166.000
  22776914.787     9470879.77849   7413246.69646  22776916.039    22776926.250
       226.000         173.000
  22956301.706     9385119.86949   7342919.43446  22956301.473    22956312.118
       224.000         168.000
  23913616.793    -7944765.78249  -5331704.70545  23913615.958    23913628.699
       211.000         146.000
  20287274.708   -15229008.20649 -11845084.07647  20287274.642    20287282.115
       242.000         211.000
 03  5  5 18 49 30.0000000  0 12G16G21G23G29G17G26G 5G18G30G10G15G 6
  24583016.381    -4625552.58749  -2736971.02344  24583014.923    24583026.924
       200.000         131.000
  21588258.475   -17989282.09649 -13993236.42147  21588258.040    21588265.350
       238.000         194.000
  23690633.340   -14271946.38649 -10596513.07845  23690633.116    23690647.134
       209.000         149.000
  22759497.082   -21058314.22049 -16381335.04946  22759496.568    22759506.666
       224.000         171.000
  21350404.741   -16042418.44549 -12477571.08347  21350404.353    21350413.114
       240.000         201.000
  22264975.061   -22581366.16249 -17553505.66046  22264974.879    22264986.139
       225.000         172.000
  24813411.112    22695758.57749  17884844.23845  24813411.932    24813428.975
       199.000         137.000
  22904824.189   -15115767.12649 -11749751.30646  22904822.911    22904833.871
       224.000         167.000
  22794918.339     9565488.27749   7486967.36046  22794918.516    22794929.556
       227.000         173.000
  22974788.893     9482270.31749   7418620.94546  22974788.055    22974798.863
       223.000         167.000
  23899966.139    -8016500.28649  -5387601.67845  23899965.598    23899978.214
       210.000         146.000
  20284696.178   -15242558.53149 -11855642.79947  20284696.097    20284703.538
       243.000         211.000
 03  5  5 18 50  0.0000000  0 11G16G21G23G29G17G26G18G30G10G15G 6
  24569542.302    -4696358.94049  -2792144.73244  24569540.121    24569554.777
       201.000         130.000
  21580533.165   -18029878.84049 -14024870.25347  21580532.478    21580539.536
       238.000         194.000
  23672324.090   -14368161.59149 -10671485.86545  23672323.771    23672338.045
       211.000         150.000
  22755061.999   -21081620.70849 -16399495.92946  22755062.278    22755071.263
       224.000         171.000
  21345256.326   -16069473.57249 -12498653.01547  21345255.987    21345264.632
       239.000         201.000
  22252248.964   -22648242.01149 -17605616.64646  22252249.408    22252259.867
       225.000         173.000
  22886899.935   -15209959.34049 -11823147.73846  22886899.609    22886909.132
       225.000         167.000
  22812955.893     9660275.26449   7560827.11146  22812957.328    22812967.725
       227.000         173.000
  22993313.637     9579618.00149   7494476.14346  22993313.280    22993323.674
       223.000         167.000
  23886332.465    -8088145.69949  -5443429.22545  23886332.056    23886344.895
       212.000         148.000
  20282198.691   -15255683.09849 -11865869.75347  20282198.466    20282206.139
       243.000         211.000
 03  5  5 18 50 30.0000000  0 11G16G21G23G29G17G26G18G30G10G15G 6
  24556143.895    -4766767.48049  -2847008.43944  24556144.435    24556154.630
       203.000         131.000
  21572837.718   -18070318.83149 -14056381.93747  21572837.555    21572844.268
       238.000         194.000
  23654057.809   -14464151.52249 -10746283.10945  23654056.817    23654071.516
       212.000         150.000
  22750719.167   -21104442.27449 -16417278.93246  22750719.694    22750728.836
       224.000         171.000
  21340136.132   -16096380.40149 -12519619.38547  21340135.472    21340144.377
       239.000         201.000
  22239600.344   -22714710.80349 -17657410.44546  22239599.755    22239610.212
       225.000         172.000
  22869024.877   -15303893.33849 -11896342.95746  22869023.794    22869034.061
       225.000         168.000
  22831026.443     9755235.42149   7634821.80346  22831026.509    22831038.391
       228.000         174.000
  23011875.026     9677158.21149   7570481.37046  23011874.930    23011885.141
       223.000         165.000
  23872715.355    -8159704.29349  -5499189.15545  23872715.423    23872726.627
       210.000         149.000
  20279782.065   -15268382.59349 -11875765.48347  20279782.049    20279789.478
       243.000         211.000
 03  5  5 18 51  0.0000000  0 11G16G21G23G29G17G26G18G30G10G15G 6
  24542821.809    -4836776.04049  -2901560.51045  24542821.298    24542832.967
       205.000         132.000
  21565172.029   -18110602.30149 -14087771.66047  21565171.502    21565178.655
       238.000         194.000
  23635834.718   -14559914.18949 -10820903.26945  23635833.153    23635848.383
       210.000         150.000
  22746468.934   -21126777.26949 -16434682.79346  22746468.847    22746479.215
       224.000         171.000
  21335044.143   -16123139.06449 -12540470.30747  21335043.317    21335052.441
       240.000         202.000
  22227029.768   -22780769.39949 -17708884.62346  22227029.698    22227040.279
       224.000         172.000
  22851199.257   -15397567.09249 -11969335.39246  22851198.165    22851209.130
       226.000         169.000
  22849129.366     9850365.90949   7708949.20446  22849131.425    22849138.814
       227.000         173.000
  23030472.473     9774888.21649   7646634.48346  23030471.836    23030482.111
       223.000         165.000
  23859114.577    -8231176.23149  -5554881.51445  23859113.479    23859126.024
       210.000         147.000
  20277446.604   -15280655.65149 -11885328.92847  20277446.696    20277453.944
       243.000         211.000
 03  5  5 18 51 30.0000000  0 11G16G21G23G29G17G26G18G30G10G15G 6
  24529576.029    -4906382.73749  -2955799.44645  24529575.148    24529586.596
       207.000         133.000
  21557536.037   -18150729.72249 -14119039.77847  21557535.819    21557542.902
       238.000         194.000
  23617655.122   -14655447.80749 -10895344.94445  23617654.188    23617668.388
       211.000         151.000
  22742311.553   -21148624.31449 -16451706.43146  22742311.475    22742321.217
       224.000         172.000
  21329980.245   -16149749.99749 -12561206.11147  21329979.852    21329988.622
       239.000         202.000
  22214537.759   -22846414.69349 -17760036.70646  22214538.005    22214547.736
       224.000         172.000
  22833423.524   -15490979.01049 -12042123.79746  22833423.740    22833432.822
       226.000         170.000
  22867264.131     9945663.54149   7783206.86846  22867265.422    22867276.040
       227.000         173.000
  23049105.586     9872805.24549   7722933.31846  23049104.657    23049116.048
       222.000         165.000
  23845530.384    -8302561.59749  -5610506.43245  23845529.284    23845542.288
       212.000         148.000
  20275192.520   -15292501.01349 -11894559.09847  20275192.466    20275200.101
       243.000         211.000
 03  5  5 18 52  0.0000000  0 11G16G21G23G29G17G26G18G30G10G15G 6
  24516407.289    -4975584.91249  -3009723.17745  24516408.024    24516418.461
       209.000         134.000
  21549929.895   -18190700.28349 -14150185.67347  21549929.544    21549936.693
       238.000         194.000
  23599519.661   -14750749.97549 -10969606.26245  23599519.083    23599533.470
       211.000         152.000
  22738247.423   -21169981.33649 -16468348.23846  22738247.129    22738257.425
       223.000         172.000
  21324944.477   -16176213.18049 -12581826.78647  21324943.879    21324952.758
       240.000         202.000
  22202125.192   -22911642.88749 -17810863.80446  22202124.379    22202134.975
       225.000         172.000
  22815698.056   -15584126.85149 -12114706.42946  22815697.132    22815706.993
       226.000         170.000
  22885430.227    10041125.79349   7857592.79746  22885431.346    22885442.049
       227.000         173.000
  23067773.839     9970907.12649   7799376.19346  23067772.853    23067783.841
       220.000         164.000
  23831962.757    -8373859.84049  -5666063.49245  23831961.336    23831974.276
       211.000         150.000
  20273020.252   -15303916.51049 -11903454.31247  20273020.170    20273027.752
       243.000         211.000
 03  5  5 18 52 30.0000000  0 11G16G21G23G29G17G26G18G30G10G15G 6
  24503315.835    -5044380.81849  -3063330.33745  24503315.398    24503327.580
       210.000         135.000
  21542353.443   -18230514.81849 -14181209.98747  21542353.249    21542359.885
       239.000         195.000
  23581428.550   -14845819.25349 -11043686.11145  23581427.657    23581441.619
       213.000         153.000
  22734276.753   -21190847.21249 -16484607.32846  22734276.888    22734286.264
       223.000         172.000
  21319936.666   -16202529.43549 -12602332.97047  21319936.115    21319944.887
       240.000         201.000
  22189792.588   -22976451.04549 -17861363.58246  22189792.986    22189802.152
       225.000         173.000
  22798023.069   -15677009.12449 -12187082.11246  22798022.567    22798032.607
       227.000         170.000
  22903626.929    10136749.33549   7932104.38346  22903628.148    22903638.068
       227.000         172.000
  23086476.720    10069190.90949   7875960.79846  23086475.765    23086486.977
       220.000         164.000
  23818411.494    -8445071.70149  -5721553.20345  23818409.848    23818423.105
       209.000         149.000
  20270929.944   -15314901.26849 -11912013.88447  20270929.807    20270937.274
       243.000         211.000
 03  5  5 18 53  0.0000000  0 11G16G21G23G29G17G26G18G30G10G15G 6
  24490301.953    -5112769.56049  -3116620.24145  24490302.067    24490313.345
       210.000         135.000
  21534806.472   -18270174.50149 -14212113.63147  21534806.064    21534813.160
       239.000         195.000
  23563381.932   -14940654.82249 -11117583.86045  23563381.141    23563396.377
       213.000         153.000
  22730399.719   -21211221.23449 -16500483.16146  22730399.462    22730409.241
       224.000         172.000
  21314956.594   -16228699.88749 -12622725.54247  21314956.113    21314964.777
       239.000         201.000
  22177540.295   -23040837.01249 -17911534.39546  22177540.138    22177550.695
       225.000         173.000
  22780398.746   -15769625.15749 -12259250.35246  22780398.009    22780408.262
       226.000         171.000
  22921853.574    10232530.06049   8006738.46746  22921853.701    22921866.577
       226.000         171.000
  23105213.481    10167652.73449   7952684.16446  23105213.454    23105223.558
       220.000         164.000
  23804876.565    -8516198.23249  -5776976.44445  23804876.647    23804887.875
       215.000         149.000
  20268921.678   -15325454.84949 -11920237.47647  20268921.588    20268929.122
       243.000         211.000
 03  5  5 18 53 30.0000000  0 11G16G21G23G29G17G26G18G30G10G15G 6
  24477365.991    -5180748.02349  -3169590.43245  24477365.572    24477378.133
       212.000         136.000
  21527289.089   -18309678.47049 -14242895.93747  21527288.528    21527295.918
       239.000         195.000
  23545380.219   -15035253.90449 -11191297.31845  23545379.953    23545393.592
       215.000         154.000
  22726616.631   -21231101.15349 -16515973.98746  22726616.681    22726627.339
       222.000         172.000
  21310004.414   -16254723.85049 -12643003.96447  21310003.751    21310012.720
       239.000         201.000
  22165369.172   -23104796.52949 -17961372.90146  22165368.834    22165379.184
       224.000         173.000
  22762825.683   -15861971.94349 -12331208.77246  22762826.153    22762835.076
       226.000         171.000
  22940109.764    10328466.00649   8081493.47946  22940110.282    22940122.104
       224.000         171.000
  23123983.862    10266290.98849   8029544.99046  23123983.609    23123994.258
       221.000         163.000
  23791358.201    -8587238.55349  -5832332.52245  23791357.116    23791369.564
       213.000         151.000
  20266995.927   -15335574.81449 -11928123.18247  20266995.871    20267003.372
       243.000         211.000
 03  5  5 18 54  0.0000000  0 11G16G21G23G29G17G26G18G30G10G15G 6
  24464508.923    -5248312.13749  -3222237.77245  24464508.193    24464520.622
       212.000         135.000
  21519801.676   -18349025.10649 -14273555.64747  21519801.601    21519808.480
       239.000         195.000
  23527424.269   -15129612.63349 -11264823.47345  23527423.014    23527437.492
       214.000         155.000
  22722928.328   -21250483.39549 -16531077.00546  22722928.274    22722938.060
       223.000         171.000
  21305080.449   -16280599.59049 -12663166.89547  21305079.750    21305088.667
       239.000         202.000
  22153280.157   -23168324.39049 -18010875.06246  22153279.704    22153290.240
       226.000         173.000
  22745304.538   -15954045.82149 -12402954.54546  22745303.674    22745314.232
       225.000         171.000
  22958395.225    10424556.29649   8156368.76046  22958395.254    22958407.520
       225.000         170.000
  23142787.673    10365105.07949   8106542.83746  23142787.102    23142797.764
       219.000         163.000
  23777856.344    -8658190.69949  -5887619.86345  23777854.854    23777867.982
       213.000         150.000
  20265153.376   -15345257.74649 -11935668.34947  20265153.046    20265160.731
       243.000         211.000
 03  5  5 18 54 30.0000000  0 11G16G21G23G29G17G26G18G30G10G15G 6
  24451730.793    -5315461.49949  -3274561.93545  24451729.990    24451741.245
       211.000         135.000
  21512343.956   -18388215.85349 -14304093.87347  21512343.544    21512350.403
       240.000         195.000
  23509514.132   -15223730.97249 -11338162.31845  23509513.622    23509527.031
       214.000         155.000
  22719334.603   -21269368.38149 -16545792.55446  22719334.332    22719344.137
       223.000         172.000
  21300184.289   -16306329.06449 -12683215.84647  21300183.660    21300192.766
       238.000         202.000
  22141273.562   -23231419.02549 -18060039.63346  22141273.555    22141283.185
       225.000         173.000
  22727835.231   -16045846.90749 -12474487.74446  22727833.898    22727844.726
       226.000         171.000
  22976709.164    10520795.99249   8231360.47846  22976709.365    22976721.061
       223.000         170.000
  23161624.037    10464090.51949   8183674.19545  23161622.912    23161635.073
       219.000         162.000
  23764371.090    -8729056.56449  -5942839.96545  23764370.579    23764382.810
       217.000         152.000
  20263393.864   -15354504.01949 -11942873.25347  20263393.774    20263401.341
       243.000         211.000
